.

MPMG - Transparência

Contracheque - Remuneração de todos os servidores ativos - Pós Resolução CNMP 200/2019

Período: 2021 - Dezembro

Ordem Matrícula Nome Cargo Efetivo Lotação Rendimentos Descontos Rendimento Líquido Total *14 Data de Referência
Remuneração básica Remuneração eventual ou Temporária Outras Remunerações Temporárias *7 Verbas Indenizatórias *8 Total de Rendimentos Brutos *9 Obrigatórios Legais Outros Descontos Eventuais Total de descontos *13
Remuneração do Cargo Efetivo *1 Outras Verbas Remuneratórias *2 Função de Confiança ou Cargo em Comissão *3 Gratificação Natalina *4 Férias 1/3 Constitucional *5 Abono de Permanência *6 Contribuição Previdenciária *10 Imposto de Renda *11 Retenção por Teto Constitucional *12
1 498900 ABDON MARCIO BARBOSA DA SILVA OFICIAL DO MP ABRE CAMPO - COMARCA; ABRE CAMPO-PJ-01PJ 6.123,79 1.224,76 0,00 2.216,91 0,00 0,00 0,00 1.717,00 11.282,46 988,05 775,50 0,00 0,00 1.763,55 9.518,91 31/12/2021
2 177800 ADALBERTO MENEZES FARIA SAMORA OFICIAL DO MP BELO HORIZONTE - COMARCA; DIR ESTRUTURA E PROCESSOS ORGANIZACIONAIS 16.750,82 6.700,33 0,00 4.701,06 7.817,05 0,00 0,00 1.717,00 37.686,26 3.564,46 6.644,89 0,00 0,00 10.209,35 27.476,91 31/12/2021
3 306400 ADALBERTO MOREIRA GONCALVES ANALISTA DO MP BELO HORIZONTE - COMARCA; BH-24PJ JUIZO REG BARREIRO-SECRETARIA 17.413,92 5.224,18 0,00 3.904,02 0,00 0,00 0,00 1.717,00 28.259,12 3.434,37 4.411,67 0,00 0,00 7.846,04 20.413,08 31/12/2021
4 179300 ADENISE AUXILIADORA SOUZA SAD OFICIAL DO MP BARBACENA - COMARCA; BARBACENA-PJ-06PJ 15.272,02 6.108,81 0,00 7.270,54 7.126,94 0,00 0,00 1.717,00 37.495,31 3.233,21 5.976,87 0,00 0,00 9.210,08 28.285,23 31/12/2021
5 272200 ADILSON BATISTA ORNELAS OFICIAL DO MP LAVRAS - COMARCA; LAVRAS-PJ-SECRETARIA 5.136,32 1.540,90 0,00 1.785,41 2.225,74 0,00 0,00 1.717,00 12.405,37 880,63 1.284,64 0,00 0,00 2.165,27 10.240,10 31/12/2021
6 380100 ADILSON GONCALVES DE MELO JUNIOR ANALISTA DO MP ARAXÁ - COMARCA; ARAXA-PJ-05PJ 12.204,02 2.440,80 0,00 3.586,78 4.881,61 0,00 0,00 1.717,00 24.830,21 2.155,45 3.803,39 0,00 0,00 5.958,84 18.871,37 31/12/2021
7 148800 ADILSON JANUARIO OFICIAL DO MP BELO HORIZONTE - COMARCA; BH-22PJ PES COM DEF E IDOSOS-SECRETARIA 18.820,14 13.174,10 0,00 8.120,20 10.664,75 4.931,36 0,00 1.717,00 57.427,55 4.931,36 10.809,73 0,00 0,00 15.741,09 41.686,46 31/12/2021
8 322601 ADMILSON SILVEIRA ANALISTA DO MP SAO JOAO DO PARAISO COMARCA; SAO JOAO DO PARAISO-PJ-UNPJ 10.069,62 1.006,96 0,00 2.102,17 3.692,19 0,00 0,00 2.486,39 19.357,33 1.584,53 2.756,31 0,00 0,00 4.340,84 15.016,49 31/12/2021
9 333700 ADRIANA ABRITTA TEIXEIRA OFICIAL DO MP BELO HORIZONTE - COMARCA; DIRET DE PESSOAL DO MINISTERIO PUBLICO - DPMP 10.069,62 3.020,89 0,00 2.432,32 4.363,50 0,00 0,00 1.717,00 21.603,33 1.906,76 3.406,13 0,00 0,00 5.312,89 16.290,44 31/12/2021
10 468500 ADRIANA APARECIDA FIRMINO ANALISTA DO MP CARATINGA - COMARCA; CARATINGA-PJ-04PJ 10.069,62 2.013,92 0,00 2.374,70 0,00 0,00 0,00 2.486,39 16.944,63 1.745,64 1.921,43 0,00 0,00 3.667,07 13.277,56 31/12/2021
11 326100 ADRIANA AUGUSTA AMARAL BELO OFICIAL DO MP BARBACENA - COMARCA; BARBACENA-PJ-08PJ 10.069,62 3.020,89 0,00 2.536,59 4.363,50 0,00 0,00 1.717,00 21.707,60 1.906,76 3.301,86 0,00 0,00 5.208,62 16.498,98 31/12/2021
12 605700 ADRIANA COSTA LIRA ASSESSOR/OFICIAL BELO HORIZONTE - COMARCA; COORD ESTADUAL DE DEFESA DA EDUCACAO 0,00 817,05 8.170,49 2.270,89 2.995,85 0,00 0,00 1.717,00 15.971,28 890,06 2.181,31 0,00 0,00 3.071,37 12.899,91 31/12/2021
13 541100 ADRIANA CRISTINA DE OLIVEIRA OFICIAL DO MP GUAPÉ - COMARCA; GUAPE-PJ-UNPJ 5.562,64 556,26 0,00 4.782,86 2.039,63 0,00 0,00 2.486,39 15.427,78 792,88 1.104,06 0,00 0,00 1.896,94 13.530,84 31/12/2021
14 254800 ADRIANA DAS GRACAS FERNANDES ANALISTA DO MP UBERABA - COMARCA; UBERABA-PJ-07PJ 18.820,14 13.174,10 0,00 5.020,18 10.664,75 0,00 0,00 1.717,00 49.396,17 4.931,36 9.453,60 0,00 0,00 14.384,96 35.011,21 31/12/2021
15 217400 ADRIANA DE CARVALHO CATAO BRAGA ASSESSOR BELO HORIZONTE - COMARCA; DIV FISCAL ADM CONT TERCEIRIZACAO 0,00 3.268,20 8.170,49 3.649,85 0,00 0,00 0,00 1.717,00 16.805,54 1.503,94 2.398,94 0,00 0,00 3.902,88 12.902,66 31/12/2021
16 434600 ADRIANA FERREIRA DA SILVA ANALISTA DO MP BELO HORIZONTE - COMARCA; BH-14PJ DEFESA CONSUMIDOR-GAB 112PJ 13.011,52 2.602,30 0,00 2.953,49 0,00 0,00 0,00 1.717,00 20.284,31 2.310,49 2.789,06 0,00 0,00 5.099,55 15.184,76 31/12/2021
17 499800 ADRIANA FERREIRA TIAGO OFICIAL DO MP SALINAS - COMARCA; SALINAS-PJ-02PJ 7.663,37 1.532,67 0,00 2.347,32 0,00 0,00 0,00 1.717,00 13.260,36 1.283,64 1.306,55 0,00 0,00 2.590,19 10.670,17 31/12/2021
18 543400 ADRIANA GUIMARAES NUNES DE PAULA ANALISTA DO MP PATROCÍNIO - COMARCA; PATROCINIO-PJ-01PJ 9.444,70 944,47 0,00 2.301,66 0,00 0,00 0,00 1.717,00 14.407,83 1.474,54 1.582,16 0,00 0,00 3.056,70 11.351,13 31/12/2021
19 471500 ADRIANA HORTA DE CARVALHO RODRIGUES DE SOUSA ANALISTA DO MP BELO HORIZONTE - COMARCA; GRUPO ESP PROM JUST DEF PROB ADM PAT PUB 10.069,62 2.013,92 0,00 8.416,47 0,00 0,00 0,00 1.717,00 22.217,01 1.745,64 1.921,43 0,00 0,00 3.667,07 18.549,94 31/12/2021
20 86400 ADRIANA MOREIRA CALDEIRA BRANT OFICIAL DO MP BELO HORIZONTE - COMARCA; BH-21PJ TUTELA FUNDACOES-SECRETARIA 16.750,82 11.725,57 0,00 6.710,90 9.492,13 4.368,50 0,00 1.717,00 50.764,92 4.368,50 9.571,98 0,00 0,00 13.940,48 36.824,44 31/12/2021
21 480700 ADRIANA MOREIRA DE AVELLAR CEZILIO OFICIAL DO MP BELO HORIZONTE - COMARCA; BH-12PJ JUIZO CRIMINAL-SECRETARIA 6.123,79 1.224,76 0,00 2.792,50 0,00 0,00 0,00 1.717,00 11.858,05 988,05 775,50 0,00 0,00 1.763,55 10.094,50 31/12/2021
22 326000 ADRIANA PEREIRA CARNEIRO RESENDE OFICIAL DO MP BELO HORIZONTE - COMARCA; BH-25PJ DEFESA DA EDUCACAO-SECRETARIA 10.069,62 3.020,89 0,00 2.387,34 0,00 0,00 0,00 1.717,00 17.194,85 1.906,76 2.206,17 0,00 0,00 4.112,93 13.081,92 31/12/2021
23 502200 ADRIANA PETRUCCI DAVINA OFICIAL DO MP PATROCÍNIO - COMARCA; PATROCINIO-PJ-01PJ 7.912,85 1.582,57 0,00 2.390,99 3.165,14 0,00 0,00 2.486,39 17.537,94 1.331,54 2.246,12 0,00 0,00 3.577,66 13.960,28 31/12/2021
24 201900 ADRIANA REIS PIMENTA OFICIAL DO MP TEÓFILO OTONI - COMARCA; TEOFILO OTONI-PJ-03PJ 15.272,02 6.108,81 0,00 3.672,92 7.126,94 0,00 0,00 1.717,00 33.897,69 3.233,21 6.081,14 0,00 0,00 9.314,35 24.583,34 31/12/2021
25 278700 ADRIANA RODRIGUES PINTO COELHO AMARAL ANALISTA DO MP BELO HORIZONTE - COMARCA; CGMP-ASSESSORIA JURIDICA 18.103,37 5.431,01 0,00 3.972,39 0,00 0,00 0,00 1.717,00 29.223,77 3.577,78 4.566,57 0,00 0,00 8.144,35 21.079,42 31/12/2021
26 468000 ADRIANA SANTOS DE SANTANA MOREIRA ANALISTA DO MP ARAÇUAÍ - COMARCA; ARACUAI-PJ-02PJ 10.069,62 4.027,85 0,00 2.646,35 4.699,16 0,00 0,00 1.717,00 23.159,98 2.067,87 3.626,77 0,00 0,00 5.694,64 17.465,34 31/12/2021
27 194700 ADRIANA TSUKIDE OFICIAL DO MP UBERABA - COMARCA; COORD REG BACIAS PARANAIBA BAIXO RIO GRANDE 15.272,02 6.108,81 0,00 14.078,52 0,00 0,00 0,00 1.717,00 37.176,35 3.233,21 4.069,10 0,00 0,00 7.302,31 29.874,04 31/12/2021
28 465500 ADRIANO CASSIANO MATOS ANALISTA DO MP ARAXÁ - COMARCA; ARAXA-PJ-02PJ 10.069,62 2.013,92 0,00 2.322,57 4.027,85 0,00 0,00 1.717,00 20.150,96 1.745,64 3.081,22 0,00 0,00 4.826,86 15.324,10 31/12/2021
29 500500 ADRIANO DE ALMEIDA SILVA OFICIAL DO MP UBERABA - COMARCA; UBERABA-PJ-12PJ 7.912,85 1.582,57 0,00 7.059,60 3.165,14 0,00 0,00 2.486,39 22.206,55 1.331,54 1.792,37 0,00 0,00 3.123,91 19.082,64 31/12/2021
30 187200 ADRIANO DE FREITAS MARON OFICIAL DO MP PONTE NOVA - COMARCA; PONTE NOVA-PJ-03PJ 13.011,52 11.710,37 0,00 6.256,41 8.240,63 3.767,78 0,00 1.717,00 44.703,71 3.767,78 8.195,33 0,00 0,00 11.963,11 32.740,60 31/12/2021
31 477900 ADRIANO FERREIRA DE ALMEIDA OFICIAL DO MP TAIOBEIRAS - COMARCA; TAIOBEIRAS-PJ-UNPJ 7.912,85 1.582,57 0,00 2.294,43 0,00 0,00 0,00 1.717,00 13.506,85 1.331,54 1.271,43 0,00 0,00 2.602,97 10.903,88 31/12/2021
32 269101 ADRIANO PEREIRA SILVA ANALISTA DO MP UBERABA - COMARCA; UBERABA-PJ-02PJ 10.069,62 2.013,92 0,00 2.478,98 4.027,85 0,00 0,00 1.717,00 20.307,37 1.745,64 2.924,81 0,00 0,00 4.670,45 15.636,92 31/12/2021
33 414200 ADRIANO RODRIGUES FERNANDES ANALISTA DO MP CARANDAÍ - COMARCA; CARANDAI-PJ-UNPJ 10.069,62 2.013,92 0,00 2.426,84 4.027,85 0,00 0,00 1.717,00 20.255,23 1.745,64 2.976,95 0,00 0,00 4.722,59 15.532,64 31/12/2021
34 536700 ADRIELLE COSTA MARIA MOURAO FIGUEIREDO OFICIAL DO MP SERRO - COMARCA; SERRO-PJ-SECRETARIA 5.562,64 556,26 0,00 2.424,47 0,00 0,00 0,00 2.486,39 11.029,76 792,88 595,30 0,00 0,00 1.388,18 9.641,58 31/12/2021
35 514300 ADRIENE DAMASCENO BRAGA ANALISTA DO MP ALFENAS - COMARCA; ALFENAS-PJ-03PJ 10.069,62 2.013,92 0,00 3.219,77 0,00 0,00 994,86 6.393,40 22.691,57 1.745,64 1.973,56 0,00 0,00 3.719,20 18.972,37 31/12/2021
36 254600 ADRIENE DOMINGUES COSTA ANALISTA DO MP BELO HORIZONTE - COMARCA; SUPER DE GESTAO DE PESSOAS-LOTACAO TEMPORARIA 18.820,14 5.646,04 0,00 3.379,04 0,00 0,00 0,00 0,00 27.845,22 3.726,87 4.833,95 0,00 0,00 8.560,82 19.284,40 31/12/2021
37 252001 ADRIENE GOMES BARRETO ANALISTA DO MP BELO HORIZONTE - COMARCA; BH-19PJ SAUDE-SECRETARIA 047PJ 14.790,66 5.916,26 0,00 3.191,34 6.902,31 0,00 0,00 1.717,00 32.517,57 3.125,38 5.863,70 0,00 0,00 8.989,08 23.528,49 31/12/2021
38 645000 AFONSO CELSO GUIMARAES JUNIOR OFICIAL DO MP PIRAPORA - COMARCA; PIRAPORA-PJ-01PJ 4.817,57 481,76 0,00 1.818,32 0,00 0,00 0,00 1.717,00 8.834,65 668,35 405,84 0,00 0,00 1.074,19 7.760,46 31/12/2021
39 302500 AGENOR JOSE DA SILVA JUNIOR ANALISTA DO MP JUIZ DE FORA - COMARCA; JUIZ DE FORA-PJ-14PJ 17.413,92 5.224,18 0,00 4.008,30 7.546,03 0,00 0,00 1.717,00 35.909,43 3.434,37 6.382,55 0,00 0,00 9.816,92 26.092,51 31/12/2021
40 357500 AILSON WAGNER DE ALENCAR SILVA OFICIAL DO MP BELO HORIZONTE - COMARCA; BH-12PJ JUIZO CRIMINAL-SECRETARIA 11.085,56 4.434,22 0,00 3.266,71 5.173,26 0,00 0,00 1.717,00 25.676,75 2.295,44 4.033,57 0,00 0,00 6.329,01 19.347,74 31/12/2021
41 366400 AILTON ALEXSSANDRO ALVES OFICIAL DO MP PARÁ DE MINAS - COMARCA; PARA DE MINAS-PJ-05PJ 9.752,14 3.900,86 0,00 9.058,01 0,00 0,00 0,00 1.717,00 24.428,01 1.996,76 2.336,11 0,00 0,00 4.332,87 20.095,14 31/12/2021
42 318900 AILTON DE CASTRO RIBEIRO JUNIOR OFICIAL DO MP ITAJUBA - COMARCA; ITAJUBA-PJ-01PJ 10.069,62 3.020,89 0,00 4.593,06 4.363,50 0,00 0,00 2.486,39 24.533,46 1.906,76 3.197,58 0,00 0,00 5.104,34 19.429,12 31/12/2021
43 464400 ALAN MONTEIRO GASPAR ANALISTA DO MP SETE LAGOAS - COMARCA; SETE LAGOAS-PJ-08PJ 10.069,62 2.013,92 0,00 4.182,17 4.027,85 0,00 0,00 1.717,00 22.010,56 1.745,64 3.081,22 0,00 0,00 4.826,86 17.183,70 31/12/2021
44 492000 ALANA DE CASTRO FREITAS OFICIAL DO MP LAVRAS - COMARCA; LAVRAS-PJ-03PJ 6.123,79 1.224,76 0,00 5.480,72 0,00 0,00 0,00 1.717,00 14.546,27 988,05 879,78 0,00 0,00 1.867,83 12.678,44 31/12/2021
45 306700 ALANA MARCIA DE OLIVEIRA OFICIAL DO MP BELO HORIZONTE - COMARCA; DIRETORIA DE ADMINISTRACAO FINANCEIRA 10.069,62 3.020,89 0,00 2.638,69 0,00 0,00 0,00 1.717,00 17.446,20 1.906,76 2.206,17 0,00 0,00 4.112,93 13.333,27 31/12/2021
46 324500 ALANMAR COUTINHO COSTA OFICIAL DO MP LEOPOLDINA - COMARCA; LEOPOLDINA-PJ-02PJ 10.069,62 3.020,89 0,00 2.942,79 4.363,50 0,00 0,00 1.717,00 22.113,80 1.906,76 3.301,86 0,00 0,00 5.208,62 16.905,18 31/12/2021
47 407300 ALBERTO LUIZ SOARES DE OLIVEIRA ANALISTA DO MP BELO HORIZONTE - COMARCA; DIRETORIA DE PROJETOS DE EDIFICACOES 13.011,52 2.602,30 0,00 2.953,49 0,00 0,00 0,00 1.717,00 20.284,31 2.310,49 2.789,06 0,00 0,00 5.099,55 15.184,76 31/12/2021
48 118200 ALBERTO PEREIRA DA COSTA OFICIAL DO MP DORES DO INDAIÁ - COMARCA; DORES DO INDAIA-PJ-UNPJ 17.413,92 15.672,53 0,00 8.995,89 11.028,82 3.134,40 0,00 1.717,00 57.962,56 5.106,11 10.667,98 0,00 0,00 15.774,09 42.188,47 31/12/2021
49 282400 ALCILENE MARISE DE ARAUJO ANALISTA DO MP BELO HORIZONTE - COMARCA; BH-23PJ INF-FISC MED SOC FEC 18.103,37 5.431,01 0,00 4.024,53 0,00 0,00 0,00 1.717,00 29.275,91 3.577,78 4.514,43 0,00 0,00 8.092,21 21.183,70 31/12/2021
50 112600 ALCIONE DA MOTA JARDIM OFICIAL DO MP BELO HORIZONTE - COMARCA; CAO-CRIANCAS E ADOLESCENTES-SECRETARIA 14.324,23 10.026,96 0,00 3.628,19 0,00 0,00 0,00 1.717,00 29.696,38 3.708,47 4.755,25 0,00 0,00 8.463,72 21.232,66 31/12/2021
51 396400 ALCIONE DE FREITAS E SILVA ANALISTA DO MP BELO HORIZONTE - COMARCA; ASSESS JUR DO CONS SUPERIOR DO MINISTERIO PUB 14.790,66 5.916,26 0,00 6.609,15 0,00 0,00 0,00 1.717,00 29.033,07 3.125,38 3.965,56 0,00 0,00 7.090,94 21.942,13 31/12/2021
52 657400 ALCIONE MARIA FERREIRA ASSESSOR PROCURADOR JUSTICA BELO HORIZONTE - COMARCA; GABINETE DE PROCURADOR DE JUSTIÇA - SALA 610 0,00 0,00 7.187,72 2.693,39 0,00 0,00 0,00 2.486,39 12.367,50 1.503,94 1.229,92 0,00 0,00 2.733,86 9.633,64 31/12/2021
53 161600 ALCIONE NERY SOUZA ASSESSOR BELO HORIZONTE - COMARCA; BH-18PJ DIREITOS HUMANOS-SECRETARIA 0,00 4.085,25 8.170,49 3.833,69 0,00 0,00 0,00 1.717,00 17.806,43 1.503,94 2.623,63 0,00 0,00 4.127,57 13.678,86 31/12/2021
54 376000 ALDA GOMES LANA OFICIAL DO MP BELO HORIZONTE - COMARCA; BH-18PJ VIOLENCIA DOMESTICA-SECRETARIA 9.146,93 1.829,39 0,00 2.427,11 3.658,77 0,00 0,00 1.717,00 18.779,20 1.568,49 2.671,82 0,00 0,00 4.240,31 14.538,89 31/12/2021
55 148000 ALDA MARTINS SIMOES OFICIAL DO MP BELO HORIZONTE - COMARCA; BH-23PJ CIVEL- FISC ENT AB POL 18.103,37 9.051,69 0,00 4.368,69 0,00 0,00 0,00 1.717,00 33.240,75 4.157,09 5.455,08 0,00 0,00 9.612,17 23.628,58 31/12/2021
56 318400 ALDO CREPALDI JUNIOR OFICIAL DO MP BELO HORIZONTE - COMARCA; DIVISAO DE MATERIAIS 10.069,62 3.020,89 0,00 4.389,19 4.363,50 0,00 0,00 1.717,00 23.560,20 1.906,76 3.354,00 0,00 0,00 5.260,76 18.299,44 31/12/2021
57 604500 ALENIZE APARECIDA RODRIGUES HENRIQUE OFICIAL DO MP RIO NOVO - COMARCA; RIO NOVO-PJ-UNPJ 5.562,64 556,26 0,00 2.306,25 0,00 0,00 0,00 1.717,00 10.142,15 792,88 595,30 0,00 0,00 1.388,18 8.753,97 31/12/2021
58 197900 ALESSA DE SOUSA E SILVA OFICIAL DO MP OLIVEIRA - COMARCA; OLIVEIRA-PJ-02PJ 16.750,82 6.700,33 0,00 4.701,06 7.817,05 0,00 0,00 1.807,00 37.776,26 3.564,46 6.644,89 0,00 0,00 10.209,35 27.566,91 31/12/2021
59 428500 ALESSANDRA ALVES DINIZ OFICIAL DO MP BELO HORIZONTE - COMARCA; CENTRAL DE APOIO TECNICO-SECRETARIA 7.912,85 3.956,43 0,00 4.648,35 0,00 0,00 0,00 1.717,00 18.234,63 1.711,36 1.924,07 0,00 0,00 3.635,43 14.599,20 31/12/2021
60 286801 ALESSANDRA BOTELHO JUNQUEIRA DE MENEZES ANALISTA DO MP PASSOS - COMARCA; PASSOS-PJ-05PJ 14.324,23 5.729,69 0,00 4.318,78 6.684,64 0,00 0,00 2.486,39 33.543,73 3.020,90 5.444,45 0,00 0,00 8.465,35 25.078,38 31/12/2021
61 307000 ALESSANDRA CRISTINA SANTOS MENDES ANALISTA DO MP BELO HORIZONTE - COMARCA; BH-18PJ VIOLENCIA DOMESTICA-SECRETARIA 12.601,30 3.780,39 0,00 5.674,28 0,00 0,00 0,00 1.717,00 23.772,97 2.433,35 2.914,30 0,00 0,00 5.347,65 18.425,32 31/12/2021
62 264400 ALESSANDRA DE SOUZA SANTOS ANALISTA DO MP BELO HORIZONTE - COMARCA; SUPERINTENDENCIA DOS ORGAOS COLEGIADOS 18.820,14 7.528,06 0,00 4.268,77 0,00 0,00 0,00 1.717,00 32.333,97 4.027,99 5.268,70 0,00 0,00 9.296,69 23.037,28 31/12/2021
63 441500 ALESSANDRA DRUMMOND DE FIGUEIREDO ROSSI ANALISTA DO MP BELO HORIZONTE - COMARCA; DIRETORIA DE PROJETOS DE EDIFICACOES 10.069,62 2.013,92 0,00 2.322,57 0,00 0,00 0,00 1.717,00 16.123,11 1.745,64 1.973,56 0,00 0,00 3.719,20 12.403,91 31/12/2021
64 524000 ALESSANDRA LUCIOLI DE BARROS GUERRA ANALISTA DO MP BELO HORIZONTE - COMARCA; BH-19PJ SAUDE--SECRETARIA 10.069,62 1.006,96 0,00 2.369,22 0,00 0,00 0,00 1.717,00 15.162,80 1.584,53 1.584,54 0,00 0,00 3.169,07 11.993,73 31/12/2021
65 479900 ALESSANDRA MARA ANDRADE DE FARIA OFICIAL DO MP UBERABA - COMARCA; UBERABA-PJ-09PJ 7.912,85 1.582,57 0,00 6.788,17 3.165,14 0,00 0,00 1.717,00 21.165,73 1.331,54 2.246,12 0,00 0,00 3.577,66 17.588,07 31/12/2021
66 226700 ALESSANDRA MARA VASCONCELOS REZENDE OFICIAL DO MP CONSELHEIRO LAFAIETE - COMARCA; CONSELHEIRO LAFAIETE-PJ-07PJ 10.736,08 3.220,82 0,00 2.746,82 0,00 0,00 0,00 1.717,00 18.420,72 2.045,38 2.406,31 0,00 0,00 4.451,69 13.969,03 31/12/2021
67 112100 ALESSANDRA MARCIA FERREIRA OFICIAL DO MP BELO HORIZONTE - COMARCA; BELO HORIZONTE- SECRETARIA DAS PROMOTORIAS 10.069,62 7.048,73 0,00 2.871,36 5.706,12 0,00 0,00 1.717,00 27.412,83 2.551,21 4.705,79 0,00 0,00 7.257,00 20.155,83 31/12/2021
68 196500 ALESSANDRA MARIA RIBEIRO LUCIANO OFICIAL DO MP RIO PARANAÍBA - COMARCA; RIO PARANAIBA-PJ-UNPJ 16.750,82 6.700,33 0,00 3.440,24 0,00 0,00 0,00 1.717,00 28.608,39 3.564,46 4.495,21 0,00 0,00 8.059,67 20.548,72 31/12/2021
69 651700 ALESSANDRA PROFIRIO SOUZA OFICIAL DO MP NOVA ERA - COMARCA; NOVA ERA-PJ-UNPJ 4.817,57 289,05 0,00 1.512,40 0,00 0,00 0,00 1.717,00 8.336,02 639,44 326,33 0,00 0,00 965,77 7.370,25 31/12/2021
70 384900 ALESSANDRA RODRIGUES ANALISTA DO MP VISCONDE DO RIO BRANCO - COMARCA; VISCONDE DO RIO BRANCO-PJ-03PJ 14.790,66 2.958,13 0,00 2.983,34 5.916,26 0,00 0,00 2.486,39 29.134,78 2.652,08 4.804,93 0,00 0,00 7.457,01 21.677,77 31/12/2021
71 390000 ALESSANDRA SPADANO MASSARA VASCONCELOS OFICIAL DO MP BETIM - COMARCA; BETIM-PJ-10PJ 9.146,93 1.829,39 0,00 2.164,14 0,00 0,00 0,00 1.717,00 14.857,46 1.568,49 1.717,79 0,00 0,00 3.286,28 11.571,18 31/12/2021
72 426500 ALESSANDRO CAMPOS DE PAIVA ANALISTA DO MP BELO HORIZONTE - COMARCA; DIR CRIACAO E MIDIAS 14.324,23 2.864,85 0,00 2.707,36 0,00 0,00 0,00 1.717,00 21.613,44 2.562,53 3.152,94 0,00 0,00 5.715,47 15.897,97 31/12/2021
73 623400 ALESSANDRO DE OLIVEIRA REZENDE ANALISTA DO MP BELO HORIZONTE - COMARCA; DIRET DE INFORMACAO E CONHECIMENTO-DINC/CEAF 9.146,93 914,69 0,00 2.406,93 0,00 0,00 0,00 1.717,00 14.185,55 1.422,14 1.506,50 0,00 0,00 2.928,64 11.256,91 31/12/2021
74 420600 ALESSANDRO SILVA OFICIAL DO MP VISCONDE DO RIO BRANCO - COMARCA; VISCONDE DO RIO BRANCO-PJ-02PJ 8.579,10 2.573,73 0,00 2.849,86 3.717,61 0,00 0,00 1.717,00 19.437,30 1.596,73 2.059,53 0,00 0,00 3.656,26 15.781,04 31/12/2021
75 375301 ALETHEIA PATRICIA ASSIS MORAIS MOREIRA ANALISTA DO MP ITABIRA - COMARCA; ITABIRA-PJ-02PJ 10.069,62 1.006,96 0,00 7.803,23 0,00 0,00 0,00 2.486,39 21.366,20 1.584,53 1.688,82 0,00 0,00 3.273,35 18.092,85 31/12/2021
76 382300 ALEX CARVALHO LIMA ANALISTA DO MP UBERLÂNDIA - COMARCA; UBERLANDIA-PJ-14PJ 14.790,66 2.958,13 0,00 11.473,61 0,00 0,00 0,00 1.717,00 30.939,40 2.652,08 3.282,24 0,00 0,00 5.934,32 25.005,08 31/12/2021
77 195201 ALEX DE CASTRO PEREIRA ANALISTA DO MP UBERABA - COMARCA; UBERABA-PJ-09PJ 18.103,37 7.241,35 0,00 4.144,47 8.448,24 0,00 0,00 1.717,00 39.654,43 3.867,43 7.360,16 0,00 0,00 11.227,59 28.426,84 31/12/2021
78 358900 ALEX DE PAULA LANZA ASSESSOR BELO HORIZONTE - COMARCA; DIR CONTEUDO JORNALISTICO 0,00 0,00 10.397,52 3.415,59 0,00 0,00 0,00 2.486,39 16.299,50 1.503,94 2.112,62 0,00 0,00 3.616,56 12.682,94 31/12/2021
79 178400 ALEX RODRIGO SALDANHA GUIMARAES OFICIAL DO MP BELO HORIZONTE - COMARCA; DIRETORIA DE SISTEMAS DE INFORMACAO 6.123,79 2.449,52 0,00 1.939,94 0,00 0,00 0,00 1.717,00 12.230,25 1.184,01 1.162,70 0,00 0,00 2.346,71 9.883,54 31/12/2021
80 413500 ALEX VILELA OLIVEIRA ANALISTA DO MP GOVERNADOR VALADARES - COMARCA; COORD REG PJ DEF EDU DIR CRIANCA ADOL RIODOCE 14.324,23 2.864,85 0,00 11.473,61 5.729,69 0,00 0,00 1.717,00 36.109,38 2.562,53 4.728,61 0,00 0,00 7.291,14 28.818,24 31/12/2021
81 264300 ALEXANDRA FATIMA SARAIVA SOARES ANALISTA DO MP BELO HORIZONTE - COMARCA; CENTRAL DE APOIO TECN-SETOR DE MEIO AMBIENTE 18.820,14 5.646,04 0,00 4.035,67 0,00 0,00 0,00 1.717,00 30.218,85 3.726,87 4.833,95 0,00 0,00 8.560,82 21.658,03 31/12/2021
82 488000 ALEXANDRA LARA PAIS DE CARVALHO ANALISTA DO MP SERRO - COMARCA; SERRO-PJ-UNPJ 10.069,62 2.013,92 0,00 8.520,75 0,00 0,00 0,00 1.717,00 22.321,29 1.745,64 1.817,15 0,00 0,00 3.562,79 18.758,50 31/12/2021
83 256300 ALEXANDRA SANTOS GOMES OFICIAL DO MP BELO HORIZONTE - COMARCA; DIRETORIA GESTAO COMPRAS LICITACOES 10.069,62 3.020,89 0,00 2.432,32 0,00 0,00 0,00 1.717,00 17.239,83 1.906,76 2.206,17 0,00 0,00 4.112,93 13.126,90 31/12/2021
84 403300 ALEXANDRE AUGUSTO RODRIGUES ANALISTA DO MP ÁGUAS FORMOSAS - COMARCA; AGUAS FORMOSAS-PJ-UNPJ 10.069,62 2.013,92 0,00 2.322,57 0,00 0,00 0,00 3.255,78 17.661,89 1.745,64 1.973,56 0,00 0,00 3.719,20 13.942,69 31/12/2021
85 640900 ALEXANDRE BARBOSA MASCARENHAS ANALISTA DO MP BETIM - COMARCA; BETIM-PJ-02PJ 6.961,05 696,11 0,00 2.393,95 0,00 0,00 0,00 1.717,00 11.768,11 841,65 447,40 0,00 0,00 1.289,05 10.479,06 31/12/2021
86 311700 ALEXANDRE BARCELOS RESENDE OFICIAL DO MP BELO HORIZONTE - COMARCA; BH-19PJ SAUDE-SECRETARIA 047PJ 8.579,10 1.715,82 0,00 2.040,46 3.431,64 0,00 0,00 2.486,39 18.253,41 1.459,46 2.504,09 0,00 0,00 3.963,55 14.289,86 31/12/2021
87 285600 ALEXANDRE CAMPOS DE OLIVEIRA OFICIAL DO MP UBERABA - COMARCA; COORD REG BACIAS PARANAIBA BAIXO RIO GRANDE 10.069,62 3.020,89 0,00 2.588,73 4.363,50 0,00 0,00 1.717,00 21.759,74 1.906,76 3.249,72 0,00 0,00 5.156,48 16.603,26 31/12/2021
88 509200 ALEXANDRE CAPUANO DE REZENDE ANALISTA DO MP BELO HORIZONTE - COMARCA; BH-07PJ 02 TRIBUNAL DO JURI-GAB 109PJ 10.069,62 2.013,92 0,00 2.878,18 0,00 0,00 0,00 1.717,00 16.678,72 1.745,64 1.921,43 0,00 0,00 3.667,07 13.011,65 31/12/2021
89 229400 ALEXANDRE CARLOS BOTREL DIRETOR/OFICIAL BELO HORIZONTE - COMARCA; SUPERINTENDENCIA DOS ORGAOS COLEGIADOS 0,00 5.224,18 17.413,92 3.938,94 7.546,03 0,00 0,00 1.717,00 35.840,07 2.791,72 6.663,55 0,00 0,00 9.455,27 26.384,80 31/12/2021
90 411900 ALEXANDRE CARVALHO SANTOS RIBEIRO ANALISTA DO MP OLIVEIRA - COMARCA; OLIVEIRA-PJ-02PJ 14.324,23 2.864,85 0,00 2.707,36 5.729,69 0,00 0,00 2.486,39 28.112,52 2.562,53 4.728,61 0,00 0,00 7.291,14 20.821,38 31/12/2021
91 641600 ALEXANDRE DA SILVA ASSUNCAO OFICIAL DO MP BELO HORIZONTE - COMARCA; SERVICO MEDICO-DEPTO PERIC MEDICA SAUDE OCUP 4.974,42 497,44 0,00 1.683,47 0,00 0,00 0,00 1.717,00 8.872,33 713,21 444,49 0,00 0,00 1.157,70 7.714,63 31/12/2021
92 201200 ALEXANDRE DE ALENCAR CORDEIRO OFICIAL DO MP ÁGUAS FORMOSAS - COMARCA; AGUAS FORMOSAS-PJ-UNPJ 6.123,79 3.061,90 0,00 2.006,69 0,00 0,00 0,00 1.717,00 12.909,38 1.281,99 1.304,16 0,00 0,00 2.586,15 10.323,23 31/12/2021
93 288200 ALEXANDRE DE VASCONCELOS COSTA KER ANALISTA DO MP BELO HORIZONTE - COMARCA; BH-03PJ EMPRESARIAL-SECRETARIA 17.413,92 5.224,18 0,00 3.956,16 0,00 0,00 0,00 1.717,00 28.311,26 3.434,37 4.359,53 0,00 0,00 7.793,90 20.517,36 31/12/2021
94 445000 ALEXANDRE DIOGENES OLIVEIRA ANALISTA DO MP SALINAS - COMARCA; SALINAS-PJ-02PJ 10.736,08 2.147,22 0,00 2.063,35 4.294,43 0,00 0,00 2.486,39 21.727,47 1.873,61 3.339,27 0,00 0,00 5.212,88 16.514,59 31/12/2021
95 463400 ALEXANDRE LEAL WINKELSTROTER ANALISTA DO MP TEÓFILO OTONI - COMARCA; TEOFILO OTONI-PJ-04PJ 10.069,62 2.013,92 0,00 2.322,57 4.027,85 0,00 0,00 1.717,00 20.150,96 1.745,64 3.081,22 0,00 0,00 4.826,86 15.324,10 31/12/2021
96 615700 ALEXANDRE LUIZ DE CASTRO MACIEL ANALISTA DO MP CONTAGEM - COMARCA; CONTAGEM-PJ-01PJ 9.146,93 914,69 0,00 2.492,89 0,00 0,00 0,00 1.717,00 14.271,51 1.422,14 1.506,50 0,00 0,00 2.928,64 11.342,87 31/12/2021
97 356900 ALEXANDRE MOISES MENDONCA E ARAUJO OFICIAL DO MP UBERABA - COMARCA; UBERABA-PJ-13PJ 7.663,37 2.299,01 0,00 2.428,21 0,00 0,00 0,00 1.717,00 14.107,59 1.406,26 1.483,57 0,00 0,00 2.889,83 11.217,76 31/12/2021
98 633300 ALEXANDRE NONATO MARTINS OFICIAL DO MP IGARAPÉ - COMARCA; IGARAPE-PJ-02PJ 4.974,42 497,44 0,00 1.731,78 0,00 0,00 0,00 1.717,00 8.920,64 694,23 396,18 0,00 0,00 1.090,41 7.830,23 31/12/2021
99 469900 ALEXANDRE PEREIRA GUEDES ANALISTA DO MP CATAGUASES - COMARCA; CATAGUASES-PJ-03PJ 10.069,62 2.013,92 0,00 2.322,57 0,00 0,00 0,00 1.717,00 16.123,11 1.745,64 1.973,56 0,00 0,00 3.719,20 12.403,91 31/12/2021
100 208700 ALEXANDRE RESENDE FRAGA ANALISTA DO MP BELO HORIZONTE - COMARCA; BH-19PJ SAUDE-SECRETARIA 130PJ 18.820,14 7.528,06 0,00 4.033,82 8.782,73 0,00 0,00 1.717,00 40.881,75 4.027,99 7.527,54 0,00 0,00 11.555,53 29.326,22 31/12/2021
101 216401 ALEXANDRE RIBEIRO DE LIMA MAIORINO ANALISTA DO MP UBERABA - COMARCA; UBERABA-PJ-03PJ 17.413,92 6.965,57 0,00 4.179,12 0,00 0,00 0,00 1.717,00 30.275,61 3.713,00 4.761,79 0,00 0,00 8.474,79 21.800,82 31/12/2021
102 475100 ALEXANDRE TEOTONIO COSTA ANALISTA DO MP ARAGUARI - COMARCA; ARAGUARI-PJ-01PJ 10.069,62 2.013,92 0,00 2.426,84 4.027,85 0,00 0,00 1.717,00 20.255,23 1.745,64 2.976,95 0,00 0,00 4.722,59 15.532,64 31/12/2021
103 339000 ALEXANDRE VITOR CARDOSO OFICIAL DO MP BELO HORIZONTE - COMARCA; BH-12PJ JUIZO CRIMINAL-SECRETARIA 6.123,79 1.837,14 0,00 2.029,60 2.653,64 0,00 0,00 1.717,00 14.361,17 1.086,03 1.594,58 0,00 0,00 2.680,61 11.680,56 31/12/2021
104 678900 ALEXIA DUARTE TORRES ASSESSOR PROCURADOR JUSTICA BELO HORIZONTE - COMARCA; GABINETE DE PROCURADOR DE JUSTIÇA - SALA 502 0,00 0,00 7.187,72 2.693,39 0,00 0,00 0,00 1.717,00 11.598,11 1.503,94 1.229,92 0,00 0,00 2.733,86 8.864,25 31/12/2021
105 623100 ALEXSANDER BATISTA AGUIAR COORDENADOR/ANALISTA BELO HORIZONTE - COMARCA; DIRETORIA DE SUPORTE E MANUTENCAO 0,00 1.343,52 13.435,16 5.983,21 0,00 0,00 0,00 2.486,39 23.248,28 1.422,14 2.544,13 0,00 375,09 4.341,36 18.906,92 31/12/2021
106 513300 ALFSON MIRANDA BRAGA ANALISTA DO MP BELO HORIZONTE - COMARCA; BH-12PJ JUIZO CRIMINAL-GAB 087PJ 10.069,62 2.013,92 0,00 2.826,05 4.027,85 0,00 0,00 1.717,00 20.654,44 1.745,64 3.081,22 0,00 0,00 4.826,86 15.827,58 31/12/2021
107 618400 ALICE MAGALHAES MACEDO DE CARVALHO ANALISTA DO MP IPATINGA - COMARCA; IPATINGA-PJ-10PJ 9.146,93 914,69 0,00 2.492,89 0,00 0,00 0,00 2.486,39 15.040,90 1.422,14 1.506,50 0,00 0,00 2.928,64 12.112,26 31/12/2021
108 707000 ALICE MARIA RIBEIRO DINIZ ASSESSOR PROMOTOR JUSTICA BELO HORIZONTE - COMARCA; PROC JUST ATUACAO TRIBUNAIS SUPERIORES-GAB004 0,00 0,00 7.187,72 3.984,20 0,00 0,00 0,00 1.717,00 12.888,92 1.190,26 1.229,92 0,00 0,00 2.420,18 10.468,74 31/12/2021
109 471000 ALICE TITONELI MOREIRA ANALISTA DO MP MIRADOURO - COMARCA; MIRADOURO-PJ-UNPJ 10.069,62 2.013,92 0,00 2.374,70 4.027,85 0,00 0,00 2.486,39 20.972,48 1.745,64 3.029,08 0,00 0,00 4.774,72 16.197,76 31/12/2021
110 622400 ALINE BALBINO PORTUGAL LOPES ANALISTA DO MP TRÊS PONTAS - COMARCA; TRES PONTAS-PJ-03PJ 9.146,93 914,69 0,00 2.406,93 3.353,87 0,00 0,00 2.486,39 18.308,81 1.422,14 2.428,81 0,00 0,00 3.850,95 14.457,86 31/12/2021
111 373000 ALINE BOTELHO RESENDE OFICIAL DO MP JUIZ DE FORA - COMARCA; JUIZ DE FORA-PJ-22PJ 9.444,70 1.888,94 0,00 2.760,19 0,00 0,00 0,00 1.717,00 15.810,83 1.625,66 1.800,33 0,00 0,00 3.425,99 12.384,84 31/12/2021
112 699800 ALINE CRISTINA DE OLIVEIRA AMARAL BARBOSA ASSESSOR PROCURADOR JUSTICA BELO HORIZONTE - COMARCA; GABINETE DE PROCURADOR DE JUSTIÇA - SALA 904 0,00 0,00 7.187,72 3.571,76 0,00 0,00 0,00 1.717,00 12.476,48 1.503,94 1.125,65 0,00 0,00 2.629,59 9.846,89 31/12/2021
113 407700 ALINE CRISTINA RODRIGUES PEREIRA COORDENADOR/ANALISTA BELO HORIZONTE - COMARCA; DIRETORIA DE PROJETOS DE EDIFICACOES 0,00 2.687,03 13.435,16 3.231,26 0,00 0,00 0,00 1.717,00 21.070,45 1.745,64 3.084,19 0,00 0,00 4.829,83 16.240,62 31/12/2021
114 193100 ALINE CRISTINA SENA OLIVEIRA OFICIAL DO MP UBERLÂNDIA - COMARCA; UBERLANDIA-PJ-03PJ 15.272,02 6.108,81 0,00 3.314,65 7.126,94 0,00 0,00 2.486,39 34.308,81 3.233,21 6.029,01 0,00 0,00 9.262,22 25.046,59 31/12/2021
115 554200 ALINE CRISTINA SILVA SOUZA OFICIAL DO MP TIROS - COMARCA; TIROS-PJ-UNPJ 6.123,79 612,38 0,00 2.618,56 0,00 0,00 0,00 1.717,00 11.071,73 890,06 738,32 0,00 0,00 1.628,38 9.443,35 31/12/2021
116 505500 ALINE DA CUNHA MARREIROS OLIVEIRA ANALISTA DO MP EUGENÓPOLIS - COMARCA; EUGENOPOLIS-PJ-UNPJ 10.069,62 2.013,92 0,00 2.878,18 0,00 0,00 0,00 3.255,78 18.217,50 1.745,64 1.921,43 0,00 0,00 3.667,07 14.550,43 31/12/2021
117 433500 ALINE DE MELO QUEIROZ ASSESSOR/OFICIAL BELO HORIZONTE - COMARCA; ASSESSORIA TECNICA DO PROCON-MG 0,00 2.079,50 10.397,52 2.618,58 4.159,01 0,00 0,00 2.486,39 21.741,00 1.513,10 3.289,45 0,00 0,00 4.802,55 16.938,45 31/12/2021
118 691100 ALINE DE MELO SOUZA ASSESSOR PROCURADOR JUSTICA BELO HORIZONTE - COMARCA; GABINETE DE PROCURADOR DE JUSTIÇA - SALA 401 0,00 0,00 7.187,72 2.693,39 0,00 0,00 0,00 1.717,00 11.598,11 1.503,94 1.229,92 0,00 0,00 2.733,86 8.864,25 31/12/2021
119 542700 ALINE DE SOUSA ALBINO ANALISTA DO MP CONTAGEM - COMARCA; CONTAGEM-PJ-09PJ 9.444,70 944,47 0,00 2.301,66 0,00 0,00 0,00 1.717,00 14.407,83 1.474,54 1.582,16 0,00 0,00 3.056,70 11.351,13 31/12/2021
120 330000 ALINE DIORIO MAYRINK OFICIAL DO MP BELO HORIZONTE - COMARCA; BH-15PJ M AMB PAT HIST CULT-GAB 115PJ 7.912,85 1.582,57 0,00 1.945,61 3.165,14 0,00 0,00 1.717,00 16.323,17 1.331,54 2.246,12 0,00 0,00 3.577,66 12.745,51 31/12/2021
121 499000 ALINE FERREIRA LOPES ANALISTA DO MP TEÓFILO OTONI - COMARCA; TEOFILO OTONI-PJ-09PJ 10.069,62 2.013,92 0,00 2.826,05 0,00 0,00 0,00 1.717,00 16.626,59 1.745,64 1.973,56 0,00 0,00 3.719,20 12.907,39 31/12/2021
122 405300 ALINE LAIA CARDOZO DIRETOR/ANALISTA BELO HORIZONTE - COMARCA; SUPERINTENDENCIA LOGISTICA SERVICOS 0,00 3.482,78 17.413,92 3.713,28 0,00 0,00 0,00 1.717,00 26.326,98 2.652,08 4.147,91 0,00 0,00 6.799,99 19.526,99 31/12/2021
123 278200 ALINE MARCIA FARIA BARBOSA FERNANDES OFICIAL DO MP BARBACENA - COMARCA; BARBACENA-PJ-SECRETARIA 7.663,37 2.299,01 0,00 3.518,85 3.320,79 0,00 0,00 1.717,00 18.519,02 1.406,26 2.240,38 0,00 0,00 3.646,64 14.872,38 31/12/2021
124 389000 ALINE NERI NOBRE ANALISTA DO MP MONTES CLAROS - COMARCA; COORD REG PJ DEF EDUC DIR CRIANCA ADOL NORTE 14.790,66 4.437,20 0,00 3.404,48 0,00 0,00 0,00 1.717,00 24.349,34 2.888,73 3.623,90 0,00 0,00 6.512,63 17.836,71 31/12/2021
125 294600 ALINE PATRICIA SILVA VIEIRA OFICIAL DO MP UBERLÂNDIA - COMARCA; UBERLANDIA-PJ-03PJ 11.085,56 3.325,67 0,00 3.389,42 5.285,50 0,00 1.445,27 1.717,00 26.248,42 2.118,07 4.257,95 0,00 0,00 6.376,02 19.872,40 31/12/2021
126 420000 ALINE RODRIGUES CAMOROPIN ANALISTA DO MP SABARÁ - COMARCA; SABARA-PJ-02PJ 14.324,23 2.864,85 0,00 2.707,36 0,00 0,00 0,00 1.717,00 21.613,44 2.562,53 3.152,94 0,00 0,00 5.715,47 15.897,97 31/12/2021
127 699600 ALINE SEPULVEDA ROSA PIRES ASSESSOR PROCURADOR JUSTICA BELO HORIZONTE - COMARCA; GABINETE DE PROCURADOR DE JUSTIÇA - SALA 905 0,00 0,00 7.187,72 2.693,39 0,00 0,00 0,00 1.717,00 11.598,11 1.503,94 1.229,92 0,00 0,00 2.733,86 8.864,25 31/12/2021
128 408300 ALINE SILVA ARAUJO DE PAULA ANALISTA DO MP SÃO SEBASTIÃO DO PARAÍSO - COMARCA; SAO SEBASTIAO DO PARAISO-PJ-02PJ 14.324,23 2.864,85 0,00 5.017,86 5.729,69 0,00 0,00 2.486,39 30.423,02 841,65 5.098,33 0,00 0,00 5.939,98 24.483,04 31/12/2021
129 425400 ALINE TRINDADE DE FREITAS CAMPOS OFICIAL DO MP BELO HORIZONTE - COMARCA; BH-14PJ DEFESA CONSUMIDOR-SECRETARIA 8.858,43 1.771,69 0,00 7.479,20 0,00 0,00 0,00 1.717,00 19.826,32 1.513,10 1.637,82 0,00 0,00 3.150,92 16.675,40 31/12/2021
130 517200 ALISSOM PEREIRA DA SILVA ANALISTA DO MP BORDA DA MATA - COMARCA; BORDA DA MATA-PJ-UNPJ 10.069,62 1.006,96 0,00 2.212,81 0,00 0,00 0,00 2.486,39 15.775,78 1.584,53 1.740,95 0,00 0,00 3.325,48 12.450,30 31/12/2021
131 442400 ALISSON LABRE ANALISTA DO MP VARGINHA - COMARCA; VARGINHA-PJ-03PJ 10.069,62 2.013,92 0,00 2.977,96 0,00 0,00 0,00 1.717,00 16.778,50 841,65 2.222,16 0,00 0,00 3.063,81 13.714,69 31/12/2021
132 643800 ALLAN PAUL FONSECA DE CASTRO OFICIAL DO MP CONTAGEM - COMARCA; CONTAGEM-PJ-SECRETARIA 5.217,34 521,73 0,00 500,50 0,00 0,00 0,00 2.486,39 8.725,96 734,31 506,95 0,00 0,00 1.241,26 7.484,70 31/12/2021
133 612900 ALLAN VINICIUS VIEIRA ARAUJO COORDENADOR/OFICIAL BELO HORIZONTE - COMARCA; DIRETORIA DE GESTAO DOCUMENTAL 0,00 1.343,52 13.435,16 3.573,90 4.926,23 0,00 0,00 1.717,00 24.995,81 856,09 4.314,07 0,00 0,00 5.170,16 19.825,65 31/12/2021
134 349000 ALLEC RODRIGUES VIEIRA OFICIAL DO MP BELO HORIZONTE - COMARCA; EXTINTA-COORD EST DEF DIR FAM PES DEFIC IDOSO 10.069,62 3.020,89 0,00 2.432,32 0,00 0,00 0,00 1.717,00 17.239,83 1.906,76 2.206,17 0,00 0,00 4.112,93 13.126,90 31/12/2021
135 297300 ALLYSON SALIBA MONTEIRO LAIZO ANALISTA DO MP CONSELHEIRO LAFAIETE - COMARCA; CONSELHEIRO LAFAIETE-PJ-03PJ 18.820,14 5.646,04 0,00 3.672,27 8.155,39 0,00 0,00 3.255,78 39.549,62 3.726,87 7.076,68 0,00 0,00 10.803,55 28.746,07 31/12/2021
136 303700 ALMIR LOPES LOURES ANALISTA DO MP BELO HORIZONTE - COMARCA; CENTRAL DE APOIO TECN-SETOR DE MEIO AMBIENTE 18.820,14 5.646,04 0,00 15.905,36 0,00 0,00 0,00 1.717,00 42.088,54 3.726,87 4.833,95 0,00 0,00 8.560,82 33.527,72 31/12/2021
137 696600 ALOIZIO MARTINS JALES JUNIOR ASSESSOR PROMOTOR JUSTICA CAMPESTRE - COMARCA; CAMPESTRE-PJ-SECRETARIA 0,00 0,00 7.187,72 2.693,39 0,00 0,00 0,00 1.717,00 11.598,11 1.503,94 1.229,92 0,00 0,00 2.733,86 8.864,25 31/12/2021
138 515900 ALTAIR NEVES JUNIOR OFICIAL DO MP BELO HORIZONTE - COMARCA; BH-01PJ FAZENDA PUBLICA-SECRETARIA 7.663,37 1.532,67 0,00 6.767,81 3.065,35 0,00 671,73 1.717,00 21.417,93 1.283,64 2.149,52 0,00 0,00 3.433,16 17.984,77 31/12/2021
139 233300 ALVARINDO BATISTA ANALISTA DO MP BELO HORIZONTE - COMARCA; NUCLEO APOIO TECNICO ESP COMUNICACAO 18.820,14 5.646,04 0,00 3.724,41 0,00 0,00 0,00 2.486,39 30.676,98 3.726,87 4.781,81 0,00 0,00 8.508,68 22.168,30 31/12/2021
140 274100 ALYSSON CARVALHO VIDAL DE LACERDA OFICIAL DO MP MANHUAÇU - COMARCA; MANHUACU-PJ-01PJ 10.069,62 3.020,89 0,00 8.977,58 0,00 0,00 0,00 1.717,00 23.785,09 1.906,76 2.206,17 0,00 0,00 4.112,93 19.672,16 31/12/2021
141 621000 AMANDA BASTOS ALVES ANALISTA DO MP BELO HORIZONTE - COMARCA; BH-07PJ 02 TRIBUNAL DO JURI-GAB 066PJ 9.146,93 914,69 0,00 2.406,93 0,00 0,00 0,00 1.717,00 14.185,55 1.422,14 1.506,50 0,00 0,00 2.928,64 11.256,91 31/12/2021
142 521700 AMANDA CRISTINA AGUIAR MACHADO OFICIAL DO MP CONGONHAS - COMARCA; CONGONHAS-PJ-01PJ 5.899,25 612,38 0,00 2.100,48 0,00 0,00 0,00 1.717,00 10.329,11 890,06 624,43 0,00 0,00 1.514,49 8.814,62 31/12/2021
143 713900 AMANDA DE ARAUJO CARVALHO ASSESSOR PROMOTOR JUSTICA ARAÇUAÍ - COMARCA; ARACUAI-PJ-01PJ 0,00 0,00 7.187,72 1.197,95 0,00 0,00 4.552,22 2.943,91 15.881,80 751,97 1.424,60 0,00 55,82 2.232,39 13.649,41 31/12/2021
144 613400 AMANDA DE ASSIS IUNES SANTOS ANALISTA DO MP CONGONHAS - COMARCA; CONGONHAS-PJ-01PJ 9.146,93 914,69 0,00 2.492,89 0,00 0,00 0,00 1.717,00 14.271,51 1.422,14 1.506,50 0,00 0,00 2.928,64 11.342,87 31/12/2021
145 695900 AMANDA DE OLIVEIRA ASSESSOR PROCURADOR JUSTICA BELO HORIZONTE - COMARCA; PROC JUST ATUACAO TRIBUNAIS SUPERIORES-GAB004 0,00 0,00 7.187,72 2.693,39 0,00 0,00 0,00 1.717,00 11.598,11 1.503,94 1.229,92 0,00 0,00 2.733,86 8.864,25 31/12/2021
146 520800 AMANDA DE SOUZA MACHADO ANALISTA DO MP BAEPENDI - COMARCA; BAEPENDI-PJ-UNPJ 10.069,62 1.006,96 0,00 2.317,08 3.692,19 0,00 0,00 1.717,00 18.802,85 1.584,53 2.652,03 0,00 0,00 4.236,56 14.566,29 31/12/2021
147 663900 AMANDA DENISE GONCALVES DA SILVA ASSESSOR BELO HORIZONTE - COMARCA; DIRET DE FORMACAO, APERFEIC. E POS-GRADUACAO 0,00 0,00 3.076,28 1.471,71 0,00 0,00 0,00 1.717,00 6.264,99 736,24 224,40 0,00 0,00 960,64 5.304,35 31/12/2021
148 677000 AMANDA LETICIA MESSIAS PEGO ASSESSOR PROMOTOR JUSTICA CORAÇÃO DE JESUS - COMARCA; CORACAO DE JESUS-PJ-UNPJ 0,00 0,00 7.187,72 2.693,39 0,00 0,00 0,00 1.717,00 11.598,11 1.503,94 1.229,92 0,00 0,00 2.733,86 8.864,25 31/12/2021
149 543100 AMANDA VIEIRA FREITAS BRESSANE ANALISTA DO MP VARGINHA - COMARCA; COORD REG DEF ORDEM ECON TRIB VARGINHA 9.444,70 944,47 0,00 3.765,98 0,00 0,00 0,00 1.717,00 15.872,15 1.474,54 1.582,16 0,00 0,00 3.056,70 12.815,45 31/12/2021
150 434400 AMARILIS ASSIS SIMAO CURCIO ANALISTA DO MP BELO HORIZONTE - COMARCA; NUCLEO DE ACORDOS DE NAO PERSECUCAO PENAL BH 10.069,62 2.013,92 0,00 2.322,57 4.027,85 0,00 0,00 1.717,00 20.150,96 1.745,64 3.081,22 0,00 0,00 4.826,86 15.324,10 31/12/2021
151 652000 AMAURI SILVA ALVES ASSESSOR/OFICIAL BELO HORIZONTE - COMARCA; BH-23PJ INFRACIONAL-SEC EXP 0,00 490,23 8.170,49 2.404,55 0,00 0,00 0,00 1.717,00 12.782,27 639,44 1.336,49 0,00 0,00 1.975,93 10.806,34 31/12/2021
152 58000 AMELIA GUARIZE DE CASTRO OFICIAL DO MP JUIZ DE FORA - COMARCA; JUIZ DE FORA-PJ-SECRETARIA 6.741,63 6.741,63 0,00 3.903,09 0,00 1.969,60 0,00 1.717,00 21.072,95 1.969,60 2.838,54 0,00 0,00 4.808,14 16.264,81 31/12/2021
153 324301 AMERICA SUELI FERREIRA DA SILVA ANALISTA DO MP MONTE CARMELO - COMARCA; MONTE CARMELO-PJ-02PJ 10.069,62 2.013,92 0,00 2.374,70 4.027,85 0,00 0,00 1.717,00 20.203,09 1.745,64 3.029,08 0,00 0,00 4.774,72 15.428,37 31/12/2021
154 273300 AMUJACY DE BRITO ASSIZ OFICIAL DO MP BELO HORIZONTE - COMARCA; BH-12PJ JUIZO CRIMINAL-SECRETARIA 10.069,62 3.020,89 0,00 2.640,87 0,00 0,00 0,00 1.717,00 17.448,38 1.906,76 1.997,62 0,00 0,00 3.904,38 13.544,00 31/12/2021
155 482200 ANA ALICE LOPES ACHTSCHIN ANALISTA DO MP BELO HORIZONTE - COMARCA; PROC JUST ATUACAO TRIBUNAIS SUPERIORES-GAB002 11.085,56 2.217,11 0,00 2.665,14 4.434,22 0,00 0,00 1.717,00 22.119,03 1.940,70 3.474,59 0,00 0,00 5.415,29 16.703,74 31/12/2021
156 490400 ANA AMELIA PAULINO GARCIA OFICIAL DO MP CONTAGEM - COMARCA; CONTAGEM-PJ-SECRETARIA 7.912,85 1.582,57 0,00 3.588,42 0,00 0,00 0,00 2.486,39 15.570,23 1.331,54 1.323,57 0,00 0,00 2.655,11 12.915,12 31/12/2021
157 690400 ANA ANGELICA MOREIRA DA CUNHA ASSESSOR PROMOTOR JUSTICA TIMÓTEO - COMARCA; TIMOTEO-PJ-02PJ 0,00 0,00 7.187,72 2.693,39 4.791,82 0,00 0,00 1.717,00 16.389,93 1.503,94 2.547,67 0,00 0,00 4.051,61 12.338,32 31/12/2021
158 279100 ANA CAROLINA ARAUJO PEREIRA ANALISTA DO MP BELO HORIZONTE - COMARCA; DIRETORIA DE PROJETOS DE EDIFICACOES 18.820,14 5.646,04 0,00 7.978,76 0,00 0,00 0,00 1.717,00 34.161,94 3.726,87 4.781,81 0,00 0,00 8.508,68 25.653,26 31/12/2021
159 653300 ANA CAROLINA CYRNE DINIZ ASSESSOR BELO HORIZONTE - COMARCA; CENTRAL DE APOIO TECNICO-SETOR CONTABIL 0,00 0,00 8.170,49 2.914,51 0,00 0,00 0,00 1.717,00 12.802,00 1.503,94 1.500,18 0,00 0,00 3.004,12 9.797,88 31/12/2021
160 359400 ANA CAROLINA DE ABREU FARIA ASSESSOR BELO HORIZONTE - COMARCA; SUPERINTENDÊNCIA DE ENGENHARIA E ARQUITETURA 0,00 0,00 10.397,52 3.467,73 0,00 0,00 0,00 2.486,39 16.351,64 1.503,94 2.060,48 0,00 0,00 3.564,42 12.787,22 31/12/2021
161 408500 ANA CAROLINA DE CASTRO CARVALHO ANALISTA DO MP BARBACENA - COMARCA; BARBACENA - SECRETARIA DAS PJS CRIMINAIS 14.324,23 2.864,85 0,00 3.666,70 5.729,69 0,00 0,00 1.717,00 28.302,47 2.562,53 4.728,61 0,00 0,00 7.291,14 21.011,33 31/12/2021
162 688000 ANA CAROLINA DE OLIVEIRA PINTO ASSESSOR PROCURADOR JUSTICA BELO HORIZONTE - COMARCA; GABINETE DE PROCURADOR DE JUSTIÇA - SALA 1014 0,00 0,00 7.187,72 2.693,39 0,00 0,00 0,00 1.717,00 11.598,11 1.503,94 1.229,92 0,00 0,00 2.733,86 8.864,25 31/12/2021
163 420200 ANA CAROLINA FERNANDES SILVA ANALISTA DO MP BELO HORIZONTE - COMARCA; GABINETE DE PROCURADOR DE JUSTIÇA - SALA 704 13.011,52 2.602,30 0,00 2.653,71 0,00 0,00 0,00 1.717,00 19.984,53 2.310,49 2.789,06 0,00 0,00 5.099,55 14.884,98 31/12/2021
164 522100 ANA CAROLINA FERNANDINO VIDAL PEREIRA SANTOS OFICIAL DO MP BELO HORIZONTE - COMARCA; SECRETARIA DO PROCON-MG 7.663,37 766,34 0,00 5.977,32 0,00 0,00 0,00 1.717,00 16.124,03 1.161,03 1.129,53 0,00 0,00 2.290,56 13.833,47 31/12/2021
165 502400 ANA CAROLINA GONCALVES FERNANDES ANALISTA DO MP IPATINGA - COMARCA; IPATINGA-PJ-01PJ 10.069,62 2.013,92 0,00 4.488,80 4.027,85 0,00 0,00 3.255,78 23.855,97 1.745,64 3.081,22 0,00 0,00 4.826,86 19.029,11 31/12/2021
166 529900 ANA CAROLINA GONCALVES PECANHA CHEQUER ANALISTA DO MP MANHUAÇU - COMARCA; MANHUACU-PJ-04PJ 9.444,70 944,47 0,00 3.765,98 0,00 0,00 0,00 3.255,78 17.410,93 1.474,54 1.582,16 0,00 0,00 3.056,70 14.354,23 31/12/2021
167 711300 ANA CAROLINA MOREIRA GOMES ASSESSOR PROMOTOR JUSTICA BELO HORIZONTE - COMARCA; COORD ESTADUAL DAS PJS DE HAB. E URBANISMO 0,00 0,00 7.187,72 2.374,38 0,00 0,00 0,00 1.717,00 11.279,10 956,87 1.229,92 0,00 0,00 2.186,79 9.092,31 31/12/2021
168 431900 ANA CAROLINA MOTTA GUATIMOSIM ANALISTA DO MP BELO HORIZONTE - COMARCA; ASSESSORIA JURIDICO-ADMINISTRATIVA 13.011,52 2.602,30 0,00 2.653,71 5.204,61 0,00 0,00 2.486,39 25.958,53 2.310,49 4.220,32 0,00 0,00 6.530,81 19.427,72 31/12/2021
169 490600 ANA CAROLINA XAVIER GODOY ANALISTA DO MP BELO HORIZONTE - COMARCA; BH-18PJ DIREITOS HUMANOS-SECRETARIA 10.069,62 2.013,92 0,00 4.540,93 0,00 0,00 0,00 3.255,78 19.880,25 1.745,64 1.869,29 0,00 0,00 3.614,93 16.265,32 31/12/2021
170 600300 ANA CAROLINE PEREIRA DINIZ ANALISTA DO MP BELO HORIZONTE - COMARCA; PROC JUST ESP ACOES COMP ORIG CRIMINAL-SEC 9.444,70 944,47 0,00 2.265,63 0,00 0,00 0,00 2.486,39 15.141,19 1.474,54 1.582,16 0,00 0,00 3.056,70 12.084,49 31/12/2021
171 615800 ANA CAROLINE PEREIRA OLIVEIRA OFICIAL DO MP ALFENAS - COMARCA; ALFENAS-PJ-06PJ 5.930,75 593,08 0,00 2.015,51 2.174,61 0,00 0,00 1.717,00 12.430,95 856,09 1.287,29 0,00 0,00 2.143,38 10.287,57 31/12/2021
172 324800 ANA CECILIA MENDES DA SILVA OFICIAL DO MP OURO FINO - COMARCA; OURO FINO-PJ-01PJ 10.069,62 3.020,89 0,00 2.484,46 0,00 0,00 0,00 1.717,00 17.291,97 1.906,76 2.154,03 0,00 0,00 4.060,79 13.231,18 31/12/2021
173 704100 ANA CLARA MARTINS ALBUQUERQUE ASSESSOR BELO HORIZONTE - COMARCA; CAO-CRIANCAS E ADOLESCENTES-ASS TECNICA 0,00 0,00 3.076,28 1.538,14 0,00 0,00 0,00 1.717,00 6.331,42 617,77 224,40 0,00 0,00 842,17 5.489,25 31/12/2021
174 698700 ANA CLARA SANTOS ALMEIDA ASSESSOR PROMOTOR JUSTICA SABINÓPOLIS - COMARCA; SABINOPOLIS-PJ-UNPJ 0,00 0,00 7.187,72 2.693,39 2.395,91 0,00 0,00 1.717,00 13.994,02 1.503,94 1.888,80 0,00 0,00 3.392,74 10.601,28 31/12/2021
175 441300 ANA CLAUDIA ALKIMIM MIRANDA BOMTEMPO ANALISTA DO MP MONTES CLAROS - COMARCA; MONTES CLAROS-PJ-11PJ 13.011,52 2.602,30 0,00 2.757,98 0,00 0,00 0,00 1.717,00 20.088,80 2.310,49 2.684,78 0,00 0,00 4.995,27 15.093,53 31/12/2021
176 642500 ANA CLAUDIA DA COSTA NAVES OFICIAL DO MP MONTE CARMELO - COMARCA; MONTE CARMELO-PJ-02PJ 4.817,57 481,76 0,00 1.818,32 0,00 0,00 0,00 2.486,39 9.604,04 668,35 405,84 0,00 0,00 1.074,19 8.529,85 31/12/2021
177 604900 ANA CLAUDIA OLIVEIRA DE MIRANDA OFICIAL DO MP PONTE NOVA - COMARCA; PONTE NOVA-PJ-04PJ 5.562,64 556,26 0,00 1.701,68 0,00 0,00 0,00 1.717,00 9.537,58 792,88 543,16 0,00 0,00 1.336,04 8.201,54 31/12/2021
178 379300 ANA CRISTINA ALVES FLAVIO ANALISTA DO MP SÃO GOTARDO - COMARCA; SAO GOTARDO-PJ-01PJ 14.790,66 2.958,13 0,00 2.931,21 0,00 0,00 0,00 2.486,39 23.166,39 2.652,08 3.230,10 0,00 0,00 5.882,18 17.284,21 31/12/2021
179 461200 ANA CRISTINA ALVES PASCHOAL ANALISTA DO MP BELO HORIZONTE - COMARCA; BH-07PJ 03 TRIBUNAL DO JURI-GAB 064PJ 10.069,62 2.013,92 0,00 2.374,70 0,00 0,00 0,00 1.717,00 16.175,24 1.745,64 1.921,43 0,00 0,00 3.667,07 12.508,17 31/12/2021
180 514100 ANA CRISTINA ARAUJO ASSUNCAO ANALISTA DO MP BELO HORIZONTE - COMARCA; ASSESS JUR DO CONS SUPERIOR DO MINISTERIO PUB 10.069,62 2.013,92 0,00 3.271,90 335,65 0,00 684,72 2.486,39 18.862,20 1.745,64 1.921,43 0,00 0,00 3.667,07 15.195,13 31/12/2021
181 113401 ANA CRISTINA BRAGA ALBUQUERQUE ASSESSOR BELO HORIZONTE - COMARCA; DIRETORIA-GERAL 0,00 0,00 17.413,92 4.113,75 0,00 0,00 0,00 1.198,00 22.725,67 1.212,74 4.042,13 0,00 0,00 5.254,87 17.470,80 31/12/2021
182 233800 ANA CRISTINA BRAGA SOARES OFICIAL DO MP CONTAGEM - COMARCA; CONTAGEM-PJ-SECRETARIA 11.819,15 3.545,75 0,00 3.488,51 0,00 0,00 0,00 1.717,00 20.570,41 2.270,66 2.627,28 0,00 0,00 4.897,94 15.672,47 31/12/2021
183 186400 ANA CRISTINA DE AZEVEDO LOPES OFICIAL DO MP UBÁ - COMARCA; UBA-PJ-01PJ 15.272,02 6.108,81 0,00 7.218,39 7.126,94 0,00 0,00 1.717,00 37.443,16 3.233,21 6.081,14 0,00 0,00 9.314,35 28.128,81 31/12/2021
184 693000 ANA CRISTINA DE MELO SILVEIRA ASSESSOR PROCURADOR JUSTICA BELO HORIZONTE - COMARCA; COORD DE CONTROLE CONSTITUCIONALIDADE 0,00 0,00 7.187,72 6.287,25 2.395,91 0,00 0,00 2.486,39 18.357,27 1.503,94 1.888,80 0,00 0,00 3.392,74 14.964,53 31/12/2021
185 465100 ANA CRISTINA DE OLIVEIRA GUIMARAES ANALISTA DO MP ITAJUBA - COMARCA; ITAJUBA-PJ-05PJ 10.069,62 2.013,92 0,00 2.426,84 4.027,85 0,00 0,00 2.486,39 21.024,62 1.745,64 2.976,95 0,00 0,00 4.722,59 16.302,03 31/12/2021
186 500600 ANA CRISTINA LATADO SUDARIO ANALISTA DO MP UBERLÂNDIA - COMARCA; UBERLANDIA-PJ-09PJ 10.069,62 2.013,92 0,00 2.826,05 0,00 0,00 0,00 1.717,00 16.626,59 1.745,64 1.973,56 0,00 0,00 3.719,20 12.907,39 31/12/2021
187 331400 ANA CRISTINA RIBEIRO ALVES OFICIAL DO MP BAMBUÍ - COMARCA; BAMBUI-PJ-UNPJ 10.069,62 3.020,89 0,00 3.084,21 4.363,50 0,00 0,00 1.717,00 22.255,22 1.906,76 3.354,00 0,00 0,00 5.260,76 16.994,46 31/12/2021
188 249300 ANA ELOINA MARTINS OFICIAL DO MP BETIM - COMARCA; BETIM-PJ-02PJ 13.011,52 5.204,61 0,00 5.874,67 6.072,04 0,00 0,00 1.717,00 31.879,84 2.726,86 5.060,00 0,00 0,00 7.786,86 24.092,98 31/12/2021
189 257400 ANA FLAVIA CAMBRAIA ANALISTA DO MP BELO HORIZONTE - COMARCA; BH-19PJ SAUDE-SECRETARIA 150PJ 18.820,14 5.646,04 0,00 4.087,81 0,00 0,00 0,00 1.717,00 30.270,99 3.726,87 4.781,81 0,00 0,00 8.508,68 21.762,31 31/12/2021
190 248201 ANA FLAVIA DE MORAIS SOUZA ANALISTA DO MP DIVINÓPOLIS - COMARCA; DIVINOPOLIS-PJ-01PJ 11.085,56 3.325,67 0,00 3.064,23 0,00 0,00 0,00 2.486,39 19.961,85 2.118,07 2.406,98 0,00 0,00 4.525,05 15.436,80 31/12/2021
191 621100 ANA FLAVIA DINIZ TEODORO OFICIAL DO MP SANTA LUZIA - COMARCA; SANTA LUZIA-PJ-06PJ 5.930,75 593,08 0,00 4.912,70 0,00 0,00 0,00 1.717,00 13.153,53 856,09 689,27 0,00 0,00 1.545,36 11.608,17 31/12/2021
192 238600 ANA FLAVIA FRANCO OFICIAL DO MP BELO HORIZONTE - COMARCA; DIRETORIA DE PESSOAL ADMINISTRATIVO - DPAD 14.324,23 4.297,27 0,00 5.653,35 6.207,17 0,00 0,00 1.717,00 32.199,02 2.791,72 5.190,80 0,00 0,00 7.982,52 24.216,50 31/12/2021
193 690000 ANA FLAVIA LURIAN DE PAIVA ASSESSOR PROCURADOR JUSTICA BELO HORIZONTE - COMARCA; GABINETE DE PROCURADOR DE JUSTIÇA - SALA 609 0,00 0,00 7.187,72 2.693,39 0,00 0,00 0,00 1.717,00 11.598,11 1.503,94 1.229,92 0,00 0,00 2.733,86 8.864,25 31/12/2021
194 402900 ANA FLAVIA PORTES DE CARVALHO ANALISTA DO MP BELO HORIZONTE - COMARCA; DIRET DE PLANOS PROJETOS E PROGRAMAS INST 14.790,66 2.958,13 0,00 2.931,21 0,00 0,00 0,00 1.717,00 22.397,00 2.652,08 3.230,10 0,00 0,00 5.882,18 16.514,82 31/12/2021
195 382700 ANA KARENINA SALDANHA GONTIJO ANALISTA DO MP BELO HORIZONTE - COMARCA; ASSESS TECNICO-JUR JUNTO AS PROC. DE JUST 14.324,23 2.864,85 0,00 2.819,99 0,00 0,00 0,00 2.486,39 22.495,46 2.562,53 3.152,94 0,00 0,00 5.715,47 16.779,99 31/12/2021
196 620500 ANA KARINE DE ANDRADE OLIVEIRA ANALISTA DO MP RIBEIRÃO DAS NEVES - COMARCA; RIBEIRAO NEVES-SEC PJ EXECUCAO PENAL 8.436,53 843,65 0,00 2.348,68 6.186,78 0,00 306,25 5.057,86 23.179,75 1.297,11 3.027,35 0,00 0,00 4.324,46 18.855,29 31/12/2021
197 462200 ANA LUCIA ANDRADE TOMICH OTTONI ANALISTA DO MP TEÓFILO OTONI - COMARCA; TEOFILO OTONI-PJ-07PJ 10.069,62 2.013,92 0,00 2.374,70 0,00 0,00 0,00 1.717,00 16.175,24 1.745,64 1.921,43 0,00 0,00 3.667,07 12.508,17 31/12/2021
198 504100 ANA LUCIA CATAO DE CARVALHO OFICIAL DO MP BELO HORIZONTE - COMARCA; DIR RELACOES INSTITUCIONAIS 7.912,85 1.582,57 0,00 2.443,13 0,00 0,00 0,00 1.717,00 13.655,55 1.331,54 1.323,57 0,00 0,00 2.655,11 11.000,44 31/12/2021
199 274700 ANA LUCIA DE ALENCAR BRAGATO OFICIAL DO MP UBERABA - COMARCA; UBERABA-PJ-07PJ 10.069,62 3.020,89 0,00 4.488,79 4.363,50 0,00 0,00 1.717,00 23.659,80 1.906,76 3.406,13 0,00 0,00 5.312,89 18.346,91 31/12/2021
200 509400 ANA LUCIA DORNELAS MALLOSTO ANALISTA DO MP JUIZ DE FORA - COMARCA; JUIZ DE FORA-PJ-25PJ 10.069,62 2.013,92 0,00 2.878,18 0,00 0,00 0,00 1.717,00 16.678,72 1.745,64 1.921,43 0,00 0,00 3.667,07 13.011,65 31/12/2021
201 302600 ANA LUCIA LOPES SANTOS OFICIAL DO MP BELO HORIZONTE - COMARCA; DIVISÃO DE FISCALIZAÇÃO DAS RELAÇÕES DE CONSU 10.069,62 3.020,89 0,00 2.809,65 4.845,26 0,00 1.445,27 1.717,00 23.907,69 1.906,76 3.883,93 0,00 0,00 5.790,69 18.117,00 31/12/2021
202 702000 ANA LUISA DE OLIVEIRA RIBEIRO ASSESSOR PROCURADOR JUSTICA BELO HORIZONTE - COMARCA; ASSESS TECNICO-JUR JUNTO AS PROC. DE JUST 0,00 0,00 7.187,72 3.005,74 0,00 0,00 0,00 1.717,00 11.910,46 1.441,83 1.229,92 0,00 0,00 2.671,75 9.238,71 31/12/2021
203 493400 ANA LUISA NOGUEIRA MOREIRA ANALISTA DO MP BELO HORIZONTE - COMARCA; BH-19PJ SAUDE-SECRETARIA 130PJ 10.069,62 2.013,92 0,00 2.826,05 0,00 0,00 0,00 1.717,00 16.626,59 1.745,64 1.973,56 0,00 0,00 3.719,20 12.907,39 31/12/2021
204 389300 ANA LUISA REUTER LIMA ASSESSOR/ANALISTA BELO HORIZONTE - COMARCA; DIRETORIA DE SISTEMAS DE INFORMACAO 12.204,02 2.440,80 2.687,03 3.155,98 0,00 0,00 0,00 1.717,00 22.204,83 2.155,45 3.304,15 0,00 0,00 5.459,60 16.745,23 31/12/2021
205 480600 ANA LUIZA FERNANDES FRAGA E GRECO COORDENADOR/OFICIAL BELO HORIZONTE - COMARCA; OUVIDORIA DO MPMG 0,00 2.363,83 11.819,15 3.163,52 4.727,66 0,00 0,00 1.717,00 23.791,16 1.283,64 3.978,07 0,00 0,00 5.261,71 18.529,45 31/12/2021
206 517800 ANA LUIZA MAGALHAES CIRINO PIOTO DE MELO OFICIAL DO MP BELO HORIZONTE - COMARCA; SUPER DE GESTAO DE PESSOAS-LOTACAO TEMPORARIA 5.387,19 538,72 0,00 3.309,93 0,00 0,00 0,00 3.255,78 12.491,62 762,96 550,45 0,00 0,00 1.313,41 11.178,21 31/12/2021
207 481400 ANA MARCIA CANDIDA FERREIRA OFICIAL DO MP BRUMADINHO - COMARCA; BRUMADINHO-PJ-02PJ 6.123,79 1.224,76 0,00 1.806,44 2.449,52 0,00 0,00 1.717,00 13.321,51 988,05 1.553,40 0,00 0,00 2.541,45 10.780,06 31/12/2021
208 643100 ANA MARIA LOPES MIRANDA ANALISTA DO MP BELO HORIZONTE - COMARCA; CAO-FUNDACOES 8.170,49 817,05 0,00 2.798,49 2.995,85 0,00 0,00 2.486,39 17.268,27 841,65 2.089,27 0,00 0,00 2.930,92 14.337,35 31/12/2021
209 556400 ANA MARIA OLIVEIRA SOUZA OFICIAL DO MP ITAPECERICA - COMARCA; ITAPECERICA-PJ-UNPJ 6.123,79 612,38 0,00 1.845,87 0,00 0,00 0,00 1.717,00 10.299,04 890,06 738,32 0,00 0,00 1.628,38 8.670,66 31/12/2021
210 409600 ANA OLIVIA FARIA ROSENBURG ANALISTA DO MP BELO HORIZONTE - COMARCA; DIRETORIA DO COLEGIO E DA CAMARA DE PJ 14.324,23 4.297,27 0,00 3.888,46 6.207,17 0,00 0,00 1.717,00 30.434,13 2.791,72 5.190,80 0,00 0,00 7.982,52 22.451,61 31/12/2021
211 461500 ANA PAULA ALVES CARVALHO ANALISTA DO MP UBERLÂNDIA - COMARCA; UBERLANDIA-PJ-25PJ 10.069,62 2.013,92 0,00 2.426,84 4.027,85 0,00 0,00 1.717,00 20.255,23 1.745,64 2.976,95 0,00 0,00 4.722,59 15.532,64 31/12/2021
212 523200 ANA PAULA ALVES DA SILVA OFICIAL DO MP GOVERNADOR VALADARES - COMARCA; GOVERNADOR VALADARES-PJ-10PJ 7.663,37 766,34 0,00 1.999,60 0,00 0,00 0,00 4.793,47 15.222,78 1.161,03 1.025,25 0,00 0,00 2.186,28 13.036,50 31/12/2021
213 381200 ANA PAULA BARROS PEREIRA RIGHI ANALISTA DO MP BELO HORIZONTE - COMARCA; PROC JUST ATUACAO TRIBUNAIS SUPERIORES-GAB003 14.790,66 2.958,13 0,00 4.178,85 0,00 0,00 0,00 2.486,39 24.414,03 670,90 3.541,55 0,00 0,00 4.212,45 20.201,58 31/12/2021
214 696400 ANA PAULA CARVALHO SILVA ASSESSOR PROMOTOR JUSTICA PERDÕES - COMARCA; PERDOES-PJ-UNPJ 0,00 0,00 7.187,72 2.745,53 0,00 0,00 0,00 1.717,00 11.650,25 1.503,94 1.177,78 0,00 0,00 2.681,72 8.968,53 31/12/2021
215 700900 ANA PAULA CRAVO SALOME ASSESSOR BELO HORIZONTE - COMARCA; PROCURADOR-GERAL DE JUSTIÇA 0,00 0,00 3.076,28 1.488,63 0,00 0,00 0,00 1.717,00 6.281,91 705,47 224,40 0,00 0,00 929,87 5.352,04 31/12/2021
216 227200 ANA PAULA DA SILVA CAMPOLINA ANALISTA DO MP BELO HORIZONTE - COMARCA; DIRETORIA DE ORCAMENTO-DIOR/SPC 18.820,14 9.410,07 0,00 4.082,55 9.410,07 0,00 0,00 1.717,00 43.439,83 4.329,11 8.291,21 0,00 0,00 12.620,32 30.819,51 31/12/2021
217 278500 ANA PAULA DIAS CAPANEMA OFICIAL DO MP BELO HORIZONTE - COMARCA; DIRETORIA DE SEGURANCA 10.069,62 3.020,89 0,00 2.432,32 4.363,50 0,00 0,00 1.717,00 21.603,33 1.906,76 3.406,13 0,00 0,00 5.312,89 16.290,44 31/12/2021
218 327300 ANA PAULA GARCIA MAXIMO OFICIAL DO MP UNAÍ - COMARCA; UNAI-PJ-01PJ 12.204,02 4.881,61 0,00 2.853,53 5.695,21 0,00 0,00 1.717,00 27.351,37 2.545,98 4.538,81 0,00 0,00 7.084,79 20.266,58 31/12/2021
219 270000 ANA PAULA GOULART CRUZ DE MAGALHAES ANALISTA DO MP BELO HORIZONTE - COMARCA; ASSESSORIA ESPECIAL DO PGJ 15.272,02 4.581,61 0,00 2.971,20 6.617,88 0,00 0,00 1.717,00 31.159,71 2.988,86 5.588,37 0,00 0,00 8.577,23 22.582,48 31/12/2021
220 262100 ANA PAULA KOMATSUZAKI ABIJAUDI ANALISTA DO MP BELO HORIZONTE - COMARCA; BH-17PJ PATRIMONIO PUBLICO-SECRETARIA 18.820,14 7.528,06 0,00 4.373,05 8.782,73 0,00 0,00 1.717,00 41.220,98 4.027,99 7.579,67 0,00 0,00 11.607,66 29.613,32 31/12/2021
221 278900 ANA PAULA MOREIRA GURGEL COORDENADOR/ANALISTA BELO HORIZONTE - COMARCA; ASSESSORIA JURIDICO-ADMINISTRATIVA 18.820,14 7.528,06 3.482,78 4.661,04 9.943,66 0,00 0,00 1.717,00 46.152,68 4.027,99 8.960,97 0,00 0,00 12.988,96 33.163,72 31/12/2021
222 425701 ANA PAULA ROCHA ANALISTA DO MP BELO HORIZONTE - COMARCA; ASSESSORIA DE COMUNICACAO INTEGRADA 9.146,93 914,69 0,00 3.663,12 0,00 0,00 0,00 2.486,39 16.211,13 1.422,14 1.506,50 0,00 0,00 2.928,64 13.282,49 31/12/2021
223 692700 ANA PAULA RODRIGUES GOMES GONCALVES ASSESSOR PROCURADOR JUSTICA BELO HORIZONTE - COMARCA; GABINETE DE PROCURADOR DE JUSTIÇA - SALA 1012 0,00 0,00 7.187,72 2.745,53 0,00 0,00 0,00 2.486,39 12.419,64 1.503,94 1.177,78 0,00 0,00 2.681,72 9.737,92 31/12/2021
224 395601 ANA PAULA SALGE OLIVEIRA ANALISTA DO MP UBERABA - COMARCA; UBERABA-PJ-15PJ 10.069,62 3.020,89 0,00 2.432,32 4.363,50 0,00 0,00 1.717,00 21.603,33 1.906,76 3.406,13 0,00 0,00 5.312,89 16.290,44 31/12/2021
225 473200 ANA PAULA SCOTTON BRASIL ANALISTA DO MP JUIZ DE FORA - COMARCA; JUIZ DE FORA-PJ-07PJ 10.069,62 2.013,92 0,00 2.322,57 4.027,85 0,00 0,00 2.486,39 20.920,35 1.745,64 3.081,22 0,00 0,00 4.826,86 16.093,49 31/12/2021
226 633600 ANA PAULA SILVA FERNANDES OFICIAL DO MP CATAGUASES - COMARCA; CATAGUASES-PJ-04PJ 5.387,19 538,72 0,00 1.742,96 0,00 0,00 0,00 1.728,72 9.397,59 762,96 550,45 0,00 0,00 1.313,41 8.084,18 31/12/2021
227 470900 ANA PAULA VALADARES ANALISTA DO MP PITANGUI - COMARCA; PITANGUI-PJ-01PJ 10.069,62 2.013,92 0,00 4.234,31 0,00 0,00 0,00 1.717,00 18.034,85 1.745,64 1.869,29 0,00 0,00 3.614,93 14.419,92 31/12/2021
228 447000 ANA PAULA VALENTIM DE ARAUJO ANALISTA DO MP BELO HORIZONTE - COMARCA; PROC JUST ESP ACOES COMP ORIG CRIMINAL-ASSESS 10.736,08 2.147,22 0,00 2.063,35 0,00 0,00 0,00 1.717,00 16.663,65 1.873,61 2.158,30 0,00 0,00 4.031,91 12.631,74 31/12/2021
229 604200 ANA PAULA VIANA E SILVA OFICIAL DO MP BELO HORIZONTE - COMARCA; BH-17PJ PATRIMONIO PUBLICO-SECRETARIA 6.123,79 612,38 0,00 2.489,24 2.245,39 0,00 0,00 1.717,00 13.187,80 890,06 1.355,80 0,00 0,00 2.245,86 10.941,94 31/12/2021
230 505400 ANA PAULA VIEIRA SOUTO OFICIAL DO MP ALMENARA - COMARCA; ALMENARA-PJ-01PJ 6.123,79 1.837,14 0,00 5.905,80 0,00 0,00 0,00 1.717,00 15.583,73 1.086,03 969,10 0,00 0,00 2.055,13 13.528,60 31/12/2021
231 280200 ANA RACHEL BRANDAO LADEIRA ROLAND DIRETOR/ANALISTA BELO HORIZONTE - COMARCA; SUPERINTENDENCIA GESTÃO DE PESSOAS 18.103,37 5.431,01 3.482,78 4.703,88 9.005,72 0,00 0,00 1.717,00 42.443,76 3.577,78 8.053,04 0,00 0,00 11.630,82 30.812,94 31/12/2021
232 691000 ANA RACHEL DOS REIS E SENA COSTA ASSESSOR PROMOTOR JUSTICA BELO HORIZONTE - COMARCA; GABINETE DE PROCURADOR DE JUSTIÇA - SALA 601 0,00 0,00 7.187,72 2.693,39 0,00 0,00 0,00 1.717,00 11.598,11 1.503,94 1.229,92 0,00 0,00 2.733,86 8.864,25 31/12/2021
233 601200 ANA REGINA RIBEIRO COORDENADOR/ANALISTA BELO HORIZONTE - COMARCA; DIV FISCAL ADM CONT TERCEIRIZACAO 0,00 1.181,92 11.819,15 2.689,52 4.333,69 0,00 0,00 1.717,00 21.741,28 1.474,54 3.297,99 0,00 706,22 5.478,75 16.262,53 31/12/2021
234 384700 ANA RODRIGUES PEREIRA MARRA ANALISTA DO MP COROMANDEL - COMARCA; COROMANDEL-PJ-01PJ 10.069,62 2.013,92 0,00 2.426,84 4.027,85 0,00 0,00 2.486,39 21.024,62 1.745,64 2.976,95 0,00 0,00 4.722,59 16.302,03 31/12/2021
235 232700 ANA SILVIA SEMBLANO NAKAMURA ASSESSOR/OFICIAL BELO HORIZONTE - COMARCA; CENT DE APOIO TEC-SETOR DEF,IDOSO E INFANC 0,00 3.119,26 10.397,52 2.528,23 4.505,59 0,00 0,00 1.717,00 22.267,60 1.906,76 3.562,43 0,00 0,00 5.469,19 16.798,41 31/12/2021
236 602100 ANACLETO FRANCISCO MARCIER PIMENTA OFICIAL DO MP SÃO JOÃO DEL REI - COMARCA; SAO JOAO DEL REI-PJ-03PJ 5.562,64 556,26 0,00 1.992,89 0,00 0,00 0,00 1.717,00 9.828,79 792,88 348,94 0,00 0,00 1.141,82 8.686,97 31/12/2021
237 310400 ANADEJE DO CARMO DINIZ ARAUJO OFICIAL DO MP BELO HORIZONTE - COMARCA; DIRETORIA DE PESSOAL ADMINISTRATIVO - DPAD 10.069,62 3.020,89 0,00 2.432,32 0,00 0,00 0,00 1.717,00 17.239,83 1.906,76 2.206,17 0,00 0,00 4.112,93 13.126,90 31/12/2021
238 337000 ANAILDES MARIA MENDES OFICIAL DO MP JANAÚBA - COMARCA; JANAUBA-PJ-02PJ 10.069,62 3.020,89 0,00 2.838,52 4.363,50 0,00 0,00 2.486,39 22.778,92 1.906,76 3.406,13 0,00 0,00 5.312,89 17.466,03 31/12/2021
239 192900 ANATALIA CERQUEIRA LIMA PERES OFICIAL DO MP UBERABA - COMARCA; COORD REG SAUDE MACROR SANIT TRIANGULO SUL 11.446,46 4.578,58 0,00 3.004,82 0,00 0,00 0,00 1.717,00 20.746,86 2.376,28 2.884,05 0,00 0,00 5.260,33 15.486,53 31/12/2021
240 377400 ANDEIRSON DA MATTA BARBOSA ANALISTA DO MP POUSO ALEGRE - COMARCA; POUSO ALEGRE-PJ-01PJ 10.069,62 2.013,92 0,00 2.322,57 4.027,85 0,00 0,00 2.486,39 20.920,35 1.745,64 3.081,22 0,00 0,00 4.826,86 16.093,49 31/12/2021
241 317400 ANDERSON DA SILVA BICALHO OFICIAL DO MP CONTAGEM - COMARCA; CONTAGEM-PJ-SECRETARIA 9.444,70 2.833,41 0,00 4.437,49 4.092,70 0,00 0,00 1.717,00 22.525,30 1.776,77 2.987,59 0,00 0,00 4.764,36 17.760,94 31/12/2021
242 506900 ANDERSON DE SOUZA DAMIANI ANALISTA DO MP BELO HORIZONTE - COMARCA; DIRETORIA DE PAGAMENTO DE PESSOAL-DPAG 10.069,62 3.020,89 0,00 2.536,59 0,00 0,00 0,00 1.717,00 17.344,10 1.906,76 2.101,90 0,00 0,00 4.008,66 13.335,44 31/12/2021
243 410000 ANDERSON DE SOUZA NETO ASSESSOR BELO HORIZONTE - COMARCA; DIRETORIA DE ADMINISTRACAO FINANCEIRA 0,00 0,00 5.136,32 2.176,95 0,00 0,00 0,00 1.717,00 9.030,27 1.308,46 669,60 0,00 0,00 1.978,06 7.052,21 31/12/2021
244 181900 ANDERSON FLAVIO DE OLIVEIRA OFICIAL DO MP ITAGUARA - COMARCA; ITAGUARA-PJ-SECRETARIA 14.324,23 5.729,69 0,00 7.168,76 0,00 0,00 0,00 1.717,00 28.939,68 3.020,90 3.814,72 0,00 0,00 6.835,62 22.104,06 31/12/2021
245 333200 ANDERSON JOSE DE FREITAS OFICIAL DO MP IPATINGA - COMARCA; IPATINGA-PJ-04PJ 10.069,62 3.020,89 0,00 3.320,12 4.845,26 0,00 1.445,27 2.486,39 25.187,55 1.906,76 3.779,66 0,00 0,00 5.686,42 19.501,13 31/12/2021
246 699400 ANDERSON LUIZ CABRAL ASSESSOR PROMOTOR JUSTICA ALÉM PARAÍBA - COMARCA; ALEM PARAIBA-PJ-03PJ 0,00 0,00 7.187,72 3.519,63 0,00 0,00 0,00 1.717,00 12.424,35 1.503,94 1.229,92 0,00 0,00 2.733,86 9.690,49 31/12/2021
247 462100 ANDERSON LUIZ GUIMARAES CARDOSO ANALISTA DO MP BARBACENA - COMARCA; BARBACENA-PJ-02PJ 11.085,56 2.217,11 0,00 4.681,10 4.434,22 0,00 0,00 1.717,00 24.134,99 1.940,70 3.474,59 0,00 0,00 5.415,29 18.719,70 31/12/2021
248 429700 ANDERSON MELO DE SOUZA ASSESSOR/OFICIAL BELO HORIZONTE - COMARCA; DIRET DE ESTAGIOS E CONVENIOS ACADEMICOS 0,00 2.079,50 10.397,52 2.960,35 4.159,01 0,00 0,00 1.717,00 21.313,38 988,05 3.433,83 0,00 0,00 4.421,88 16.891,50 31/12/2021
249 545600 ANDERSON MENDES PROCOPIO FERREIRA ANALISTA DO MP BELO HORIZONTE - COMARCA; BH-12PJ JUIZO CRIMINAL-GAB 089PJ 9.444,70 944,47 0,00 2.301,66 0,00 0,00 0,00 1.717,00 14.407,83 1.474,54 1.582,16 0,00 0,00 3.056,70 11.351,13 31/12/2021
250 519900 ANDERSON MOREIRA DOEHLER ANALISTA DO MP TEÓFILO OTONI - COMARCA; COORD REG SAUDE MACRORREGIAO SANIT NORDESTE 10.069,62 3.020,89 0,00 2.432,32 0,00 0,00 0,00 1.717,00 17.239,83 1.906,76 2.206,17 0,00 0,00 4.112,93 13.126,90 31/12/2021
251 103000 ANDERSON TADEU DE DEUS ASSESSOR BELO HORIZONTE - COMARCA; BH-26 CRIME CONT CRIAN ADOL-SECRETARIA 0,00 2.153,40 3.076,28 3.310,76 0,00 0,00 0,00 1.717,00 10.257,44 1.503,13 691,68 0,00 0,00 2.194,81 8.062,63 31/12/2021
252 309200 ANDITYAS SOARES DE MOURA COSTA MATOS ANALISTA DO MP BELO HORIZONTE - COMARCA; GABINETE DE PROCURADOR DE JUSTIÇA - SALA 909 15.272,02 4.581,61 0,00 3.101,30 6.617,88 0,00 0,00 1.717,00 31.289,81 2.988,86 5.588,37 0,00 0,00 8.577,23 22.712,58 31/12/2021
253 519200 ANDRE BORJA LANA ANALISTA DO MP BELO HORIZONTE - COMARCA; DIR CONTEUDO JORNALISTICO 10.069,62 1.006,96 0,00 2.212,81 0,00 0,00 1.110,63 1.717,00 16.117,02 1.584,53 2.046,38 0,00 0,00 3.630,91 12.486,11 31/12/2021
254 637200 ANDRE FERNANDES DA CUNHA OFICIAL DO MP MORADA NOVA DE MINAS - COMARCA; MORADA NOVA DE MINAS-PJ-UNPJ 5.387,19 538,72 0,00 1.996,44 0,00 0,00 0,00 1.717,00 9.639,35 395,80 550,45 0,00 0,00 946,25 8.693,10 31/12/2021
255 651500 ANDRE GONCALVES MARANHAO OFICIAL DO MP JACINTO - COMARCA; JACINTO-PJ-SECRETARIA 4.817,57 289,05 0,00 3.789,05 0,00 0,00 0,00 1.717,00 10.612,67 639,44 368,99 0,00 0,00 1.008,43 9.604,24 31/12/2021
256 521900 ANDRE LUIS GOMES SILVA ANALISTA DO MP FORMIGA - COMARCA; FORMIGA-PJ-02PJ 10.069,62 1.006,96 0,00 2.264,94 0,00 0,00 0,00 3.255,78 16.597,30 1.584,53 1.259,64 0,00 0,00 2.844,17 13.753,13 31/12/2021
257 304300 ANDRE LUIZ AVELAR ANALISTA DO MP BELO HORIZONTE - COMARCA; DIRETORIA DE REDES E BANCOS DE DADOS 8.436,53 2.530,96 0,00 3.868,39 0,00 0,00 0,00 1.717,00 16.552,88 1.567,08 1.663,62 0,00 0,00 3.230,70 13.322,18 31/12/2021
258 397400 ANDRE PATARO MYRRHA DE PAULA E SILVA ANALISTA DO MP BELO HORIZONTE - COMARCA; ASSESSORIA JURIDICO-ADMINISTRATIVA 14.790,66 2.958,13 0,00 2.879,07 0,00 0,00 0,00 2.486,39 23.114,25 2.652,08 3.282,24 0,00 0,00 5.934,32 17.179,93 31/12/2021
259 650100 ANDRE THOME VARGAS OFICIAL DO MP LEOPOLDINA - COMARCA; LEOPOLDINA-PJ-04PJ 5.217,34 521,73 0,00 1.856,33 1.913,02 0,00 0,00 1.717,00 11.225,42 414,59 1.033,03 0,00 0,00 1.447,62 9.777,80 31/12/2021
260 548500 ANDRE VINICIUS CARVALHO MEIRA ANALISTA DO MP JUIZ DE FORA - COMARCA; JUIZ DE FORA-PJ-24PJ 9.444,70 944,47 0,00 2.842,09 0,00 0,00 0,00 1.717,00 14.948,26 841,65 1.674,62 0,00 0,00 2.516,27 12.431,99 31/12/2021
261 297200 ANDRE WILLE ROSARIO ANALISTA DO MP BELO HORIZONTE - COMARCA; ASSESSORIA ESPECIAL DO PGJ 18.103,37 5.431,01 0,00 4.024,53 7.844,79 0,00 0,00 1.717,00 37.120,70 3.577,78 6.671,75 0,00 0,00 10.249,53 26.871,17 31/12/2021
262 423600 ANDREA COSTA GUALBERTO ALVES ANALISTA DO MP GOVERNADOR VALADARES - COMARCA; COORD REG PJ DEF EDU DIR CRIANCA ADOL RIODOCE 13.011,52 9.108,06 0,00 14.528,42 0,00 0,00 0,00 1.717,00 38.365,00 3.351,41 4.239,75 0,00 0,00 7.591,16 30.773,84 31/12/2021
263 467300 ANDREA DE CASSIA PENNA ALVERNAZ ANALISTA DO MP PONTE NOVA - COMARCA; PONTE NOVA-PJ-01PJ 10.069,62 2.013,92 0,00 2.374,70 4.027,85 0,00 0,00 1.717,00 20.203,09 1.745,64 3.029,08 0,00 0,00 4.774,72 15.428,37 31/12/2021
264 308000 ANDREA DE CASSIA SANTOS OLIVEIRA ANALISTA DO MP BELO HORIZONTE - COMARCA; COORD DE GABINETE DO PGJ 17.413,92 5.224,18 0,00 3.956,16 7.546,03 0,00 0,00 1.717,00 35.857,29 3.434,37 6.434,69 0,00 0,00 9.869,06 25.988,23 31/12/2021
265 349500 ANDREA DE OLIVEIRA LOIOLA REGIS OFICIAL DO MP IGUATAMA - COMARCA; IGUATAMA-PJ-UNPJ 10.069,62 3.020,89 0,00 2.927,08 0,00 0,00 0,00 1.717,00 17.734,59 1.906,76 2.154,03 0,00 0,00 4.060,79 13.673,80 31/12/2021
266 287900 ANDREA FERNANDES PENA MARTINS OFICIAL DO MP MONTES CLAROS - COMARCA; MONTES CLAROS-PJ-09PJ 10.069,62 3.020,89 0,00 2.536,59 4.363,50 0,00 0,00 1.717,00 21.707,60 1.906,76 3.301,86 0,00 0,00 5.208,62 16.498,98 31/12/2021
267 300800 ANDREA FERREIRA ANALISTA DO MP LAVRAS - COMARCA; LAVRAS-PJ-04PJ 16.750,82 5.025,25 0,00 14.267,08 0,00 0,00 0,00 1.717,00 37.760,15 3.296,45 4.212,54 0,00 0,00 7.508,99 30.251,16 31/12/2021
268 395100 ANDREA LANNA MENDES NOVAIS ANALISTA DO MP BELO HORIZONTE - COMARCA; PROMOT ESTADUAL DE DEF PATRI CULT E TUR DE MG 14.790,66 2.958,13 0,00 11.918,75 5.916,26 0,00 0,00 1.717,00 37.300,80 2.652,08 4.804,93 0,00 0,00 7.457,01 29.843,79 31/12/2021
269 67300 ANDREA LEAO MAGALHAES ROQUE ASSESSOR BELO HORIZONTE - COMARCA; COORD ESTADUAL COMBATE CRIMES CIBERNETICOS 0,00 7.278,26 10.397,52 5.105,34 5.891,93 0,00 0,00 1.717,00 30.390,05 1.503,94 5.682,28 0,00 0,00 7.186,22 23.203,83 31/12/2021
270 335700 ANDREA LOPES PEREIRA ANALISTA DO MP GOVERNADOR VALADARES - COMARCA; COORD REG DO MA DA BACIA DO RIO DOCE 17.413,92 5.224,18 0,00 3.379,04 0,00 0,00 0,00 1.717,00 27.734,14 3.434,37 4.411,67 0,00 0,00 7.846,04 19.888,10 31/12/2021
271 389200 ANDREA TUPINI DOS SANTOS TRISTAO DA ROCHA COORDENADOR/OFICIAL BELO HORIZONTE - COMARCA; BH-13ª PJ JUÍZO DE TÓXICOS-SECRETARIA 0,00 2.363,83 11.819,15 4.060,53 4.727,66 2.081,55 0,00 1.717,00 26.769,72 2.081,55 4.331,07 0,00 0,00 6.412,62 20.357,10 31/12/2021
272 419000 ANDREIA BARBOSA DE ALMEIDA ANALISTA DO MP BELO HORIZONTE - COMARCA; GABINETE DE PROCURADOR DE JUSTIÇA - SALA 705 13.011,52 2.602,30 0,00 2.953,49 5.204,61 0,00 0,00 1.717,00 25.488,92 2.310,49 4.220,32 0,00 0,00 6.530,81 18.958,11 31/12/2021
273 281501 ANDREIA CARLA COSTA ANALISTA DO MP UBÁ - COMARCA; UBA-PJ-02PJ 14.324,23 2.864,85 0,00 3.666,70 5.729,69 0,00 0,00 1.717,00 28.302,47 2.562,53 4.728,61 0,00 0,00 7.291,14 21.011,33 31/12/2021
274 477100 ANDREIA DE ALMEIDA RIBEIRO MELO OFICIAL DO MP CONTAGEM - COMARCA; CONTAGEM-PJ-SECRETARIA 7.912,85 1.582,57 0,00 2.007,83 3.165,14 0,00 0,00 1.717,00 16.385,39 1.331,54 2.246,12 0,00 0,00 3.577,66 12.807,73 31/12/2021
275 619000 ANDREIA FERREIRA NORONHA COORDENADOR/OFICIAL BELO HORIZONTE - COMARCA; DIRETORIA DE SERVICO CRIMINAL 0,00 1.343,52 13.435,16 3.573,90 4.926,23 0,00 0,00 1.717,00 24.995,81 856,09 4.314,07 0,00 0,00 5.170,16 19.825,65 31/12/2021
276 424000 ANDREIA LUCIA COUTO ANALISTA DO MP BELO HORIZONTE - COMARCA; BH-18PJ DIREITOS HUMANOS-SECRETARIA 14.324,23 2.864,85 0,00 3.666,70 0,00 0,00 0,00 1.717,00 22.572,78 2.562,53 3.152,94 0,00 0,00 5.715,47 16.857,31 31/12/2021
277 370100 ANDREIA MARIA SILVA PINTO OFICIAL DO MP CORONEL FABRICIANO - COMARCA; CORONEL FABRICIANO-PJ-01PJ 10.069,62 2.013,92 0,00 2.201,88 0,00 0,00 0,00 2.486,39 16.771,81 1.745,64 1.973,56 0,00 0,00 3.719,20 13.052,61 31/12/2021
278 382100 ANDREIA NATALI PEREIRA DE OLIVEIRA OFICIAL DO MP PRADOS - COMARCA; PRADOS-PJ-UNPJ 9.146,93 1.829,39 0,00 2.374,98 0,00 0,00 0,00 1.717,00 15.068,30 1.568,49 1.717,79 0,00 0,00 3.286,28 11.782,02 31/12/2021
279 275200 ANDREIA RIBEIRO FREITAS OFICIAL DO MP VIÇOSA - COMARCA; VICOSA-PJ-04PJ 10.069,62 3.020,89 0,00 2.484,46 4.363,50 0,00 0,00 1.717,00 21.655,47 1.906,76 3.354,00 0,00 0,00 5.260,76 16.394,71 31/12/2021
280 352200 ANDREIA XAVIER PEREIRA OFICIAL DO MP CLÁUDIO - COMARCA; CLAUDIO-PJ-UNPJ 10.069,62 3.020,89 0,00 4.660,07 4.363,50 0,00 0,00 1.717,00 23.831,08 1.906,76 3.406,13 0,00 0,00 5.312,89 18.518,19 31/12/2021
281 638500 ANDRESA ALVES FEITOSA CASAGRANDE ANALISTA DO MP LAVRAS - COMARCA; COORD REG DO MA DA BACIA DO RIO GRANDE 8.436,53 843,65 0,00 2.493,52 0,00 0,00 0,00 1.717,00 13.490,70 841,65 1.451,24 0,00 0,00 2.292,89 11.197,81 31/12/2021
282 383700 ANDRESSA EDUARDO SOUZA ANALISTA DO MP OURO BRANCO - COMARCA; OURO BRANCO-PJ-SECRETARIA 14.790,66 2.958,13 0,00 5.736,81 0,00 0,00 0,00 2.486,39 25.971,99 2.652,08 3.282,24 0,00 0,00 5.934,32 20.037,67 31/12/2021
283 678400 ANDRESSA LUIZA SILVA LOPES ASSESSOR PROMOTOR JUSTICA CARMO DO PARANAÍBA - COMARCA; CARMO DO PARANAIBA-PJ-02PJ 0,00 0,00 7.187,72 2.693,39 0,00 0,00 0,00 1.717,00 11.598,11 1.503,94 1.229,92 0,00 0,00 2.733,86 8.864,25 31/12/2021
284 426200 ANDRESSA MENDES CASAL OFICIAL DO MP BELO HORIZONTE - COMARCA; DIR ESTRUTURA E PROCESSOS ORGANIZACIONAIS 7.663,37 1.532,67 0,00 2.204,91 0,00 0,00 0,00 2.486,39 13.887,34 1.283,64 1.254,41 0,00 0,00 2.538,05 11.349,29 31/12/2021
285 390100 ANDRESSA RIBEIRO PUCCI OFICIAL DO MP UBERABA - COMARCA; UBERABA-PJ-14PJ 6.961,05 1.392,21 0,00 3.126,47 0,00 0,00 0,00 1.717,00 13.196,73 1.148,80 1.111,87 0,00 0,00 2.260,67 10.936,06 31/12/2021
286 462500 ANDREZA APARECIDA COSTA E SILVA ANALISTA DO MP CONSELHEIRO LAFAIETE - COMARCA; CONSELHEIRO LAFAIETE-PJ-02PJ 10.069,62 2.013,92 0,00 2.322,57 4.027,85 0,00 0,00 1.717,00 20.150,96 1.745,64 3.081,22 0,00 0,00 4.826,86 15.324,10 31/12/2021
287 677700 ANDREZA DE LOURDES FERREIRA DE PAIVA ASSESSOR PROMOTOR JUSTICA ABRE CAMPO - COMARCA; ABRE CAMPO-PJ-01PJ 0,00 0,00 7.187,72 6.287,25 0,00 0,00 0,00 1.717,00 15.191,97 1.503,94 1.229,92 0,00 0,00 2.733,86 12.458,11 31/12/2021
288 537800 ANDREZZA LUZIA DE OLIVEIRA ALVES ANALISTA DO MP PATOS DE MINAS - COMARCA; COORD REG PJ DEF EDU DIR CRI ADO AL PAR NOROE 9.444,70 944,47 0,00 2.353,79 3.463,06 0,00 0,00 1.717,00 17.923,02 1.474,54 2.482,37 0,00 0,00 3.956,91 13.966,11 31/12/2021
289 491600 ANE PATRICIA RIBEIRO DUARTE ANALISTA DO MP SETE LAGOAS - COMARCA; SETE LAGOAS-PJ-11PJ 10.069,62 2.013,92 0,00 4.514,86 4.027,85 0,00 0,00 1.717,00 22.343,25 1.745,64 3.029,08 0,00 0,00 4.774,72 17.568,53 31/12/2021
290 465800 ANELISE GAMA ASSESSOR BELO HORIZONTE - COMARCA; BH-18PJ VIOLENCIA DOMESTICA-SECRETARIA 0,00 0,00 8.170,49 3.875,88 0,00 0,00 0,00 1.717,00 13.763,37 1.503,94 1.500,18 0,00 0,00 3.004,12 10.759,25 31/12/2021
291 535200 ANELIZE FERNANDA ALVES VILARINHO OFICIAL DO MP CAPINÓPOLIS - COMARCA; CAPINOPOLIS-PJ-UNPJ 6.123,79 612,38 0,00 2.076,93 0,00 0,00 0,00 3.255,78 12.068,88 890,06 738,32 0,00 0,00 1.628,38 10.440,50 31/12/2021
292 197200 ANGELA COELHO SALDANHA OFICIAL DO MP PARÁ DE MINAS - COMARCA; PARA DE MINAS-PJ-03PJ 16.750,82 6.700,33 0,00 4.596,79 0,00 0,00 0,00 1.717,00 29.764,94 3.564,46 4.599,48 0,00 0,00 8.163,94 21.601,00 31/12/2021
293 307400 ANGELA CRISTINA GONCALVES MUNIZ ANALISTA DO MP UBERLÂNDIA - COMARCA; UBERLANDIA-PJ-SEC FAMILIA 18.103,37 7.241,35 0,00 4.196,60 0,00 0,00 0,00 1.717,00 31.258,32 3.867,43 4.984,76 0,00 0,00 8.852,19 22.406,13 31/12/2021
294 191800 ANGELA MARIA DE OLIVEIRA OFICIAL DO MP GUARANÉSIA - COMARCA; GUARANESIA-PJ-SECRETARIA 16.750,82 11.725,57 0,00 8.533,52 0,00 434,18 0,00 1.717,00 39.161,09 4.368,50 5.879,71 0,00 0,00 10.248,21 28.912,88 31/12/2021
295 497400 ANGELA MARIA HENRIQUES ANALISTA DO MP BELO HORIZONTE - COMARCA; COORD REG BACIAS RIO VELHAS E PARAOPEBA 10.069,62 2.013,92 0,00 2.826,05 4.027,85 0,00 0,00 1.717,00 20.654,44 1.745,64 3.081,22 0,00 0,00 4.826,86 15.827,58 31/12/2021
296 260700 ANGELICA CRISTINA AZEVEDO MOREIRA MOUCO OFICIAL DO MP UBÁ - COMARCA; UBA-PJ-05PJ 13.011,52 3.903,46 0,00 2.791,06 5.638,33 0,00 0,00 1.717,00 27.061,37 2.518,67 4.640,17 0,00 0,00 7.158,84 19.902,53 31/12/2021
297 708300 ANGELICA NUNES VIEIRA DA SILVA ASSESSOR PROMOTOR JUSTICA IBIRITÉ - COMARCA; IBIRITE-PJ-02PJ 0,00 0,00 7.187,72 3.462,75 0,00 0,00 0,00 1.717,00 12.367,47 1.106,40 1.229,92 0,00 0,00 2.336,32 10.031,15 31/12/2021
298 334600 ANGELICA PANISSA DE FREITAS GALLATI OFICIAL DO MP GUAXUPÉ - COMARCA; GUAXUPE-PJ-02PJ 10.069,62 3.020,89 0,00 2.484,46 4.363,50 0,00 0,00 2.486,39 22.424,86 1.906,76 3.354,00 0,00 0,00 5.260,76 17.164,10 31/12/2021
299 521100 ANGELICA SALES MOREIRA OFICIAL DO MP BELO HORIZONTE - COMARCA; BH-02PJ FAMILIA-SECRETARIA 7.663,37 766,34 0,00 1.895,33 0,00 0,00 0,00 1.717,00 12.042,04 1.161,03 1.129,53 0,00 0,00 2.290,56 9.751,48 31/12/2021
300 466500 ANGELLO MARQUES AGRELLI ANALISTA DO MP MAR DE ESPANHA - COMARCA; MAR DE ESPANHA-PJ-UNPJ 10.069,62 2.013,92 0,00 2.322,57 0,00 0,00 0,00 1.717,00 16.123,11 1.745,64 1.973,56 0,00 0,00 3.719,20 12.403,91 31/12/2021
301 363300 ANGELO VERDOLIN HENRIQUES ANALISTA DO MP SETE LAGOAS - COMARCA; SETE LAGOAS-PJ-04PJ 16.750,82 6.700,33 0,00 7.013,19 7.817,05 0,00 0,00 1.717,00 39.998,39 3.564,46 6.749,17 0,00 0,00 10.313,63 29.684,76 31/12/2021
302 250900 ANISIO APARECIDO SANTOS OFICIAL DO MP BETIM - COMARCA; BETIM - SECRETARIA DAS PJS CRIMINAIS 6.123,79 2.449,52 0,00 2.566,51 2.857,77 0,00 0,00 1.717,00 15.714,59 1.184,01 1.151,08 0,00 0,00 2.335,09 13.379,50 31/12/2021
303 651200 ANITA MARIA SANT ANA DE MATTOS FONTES OFICIAL DO MP ERVÁLIA - COMARCA; ERVALIA-PJ-UNPJ 5.217,34 3.652,13 0,00 6.045,22 0,00 0,00 0,00 1.717,00 16.631,69 1.231,39 1.178,97 0,00 0,00 2.410,36 14.221,33 31/12/2021
304 698100 ANNA CAROLINA POLICARIO BERTOLIN ASSESSOR PROCURADOR JUSTICA BELO HORIZONTE - COMARCA; PROC. JUSTICA DIR. DIFUSOS E COLETIVOS-SEC 0,00 0,00 7.187,72 2.693,39 0,00 0,00 0,00 1.717,00 11.598,11 1.503,94 1.229,92 0,00 0,00 2.733,86 8.864,25 31/12/2021
305 253400 ANNA FLAVIA LEHMAN DIRETOR/ANALISTA BELO HORIZONTE - COMARCA; SUPRIN DE PLANEJAMENTO E COORDENACAO 18.820,14 5.646,04 3.482,78 4.975,71 9.316,32 0,00 0,00 1.717,00 43.957,99 3.726,87 8.197,29 0,00 0,00 11.924,16 32.033,83 31/12/2021
306 688800 ANNA LUIZA MATTOS DUARTE ASSESSOR PROCURADOR JUSTICA BELO HORIZONTE - COMARCA; GABINETE DE PROCURADOR DE JUSTIÇA - SALA 305 0,00 0,00 7.187,72 2.693,39 0,00 0,00 0,00 1.717,00 11.598,11 1.503,94 1.229,92 0,00 0,00 2.733,86 8.864,25 31/12/2021
307 447600 ANNGELUCE ALCANTARA DE CAMPOS OFICIAL DO MP DIVINÓPOLIS - COMARCA; DIVINOPOLIS-PJ-SECRETARIA 8.170,49 1.634,10 0,00 1.976,23 3.268,20 0,00 0,00 1.717,00 16.766,02 1.381,01 2.345,88 0,00 0,00 3.726,89 13.039,13 31/12/2021
308 119600 ANSELMO BORGES PARREIRAS OFICIAL DO MP BONFIM - COMARCA; BONFIM-PJ-UNPJ 8.170,49 6.536,40 0,00 4.462,42 4.902,30 1.442,39 0,00 1.717,00 27.231,00 2.165,38 4.272,21 0,00 0,00 6.437,59 20.793,41 31/12/2021
309 630300 ANTONIA GOMES RAMALHO OFICIAL DO MP NOVO CRUZEIRO - COMARCA; NOVO CRUZEIRO-PJ-UNPJ 5.930,75 593,08 0,00 4.612,50 0,00 0,00 0,00 3.255,78 14.392,11 856,09 689,27 0,00 0,00 1.545,36 12.846,75 31/12/2021
310 401600 ANTONIO CARLOS GUEDES AROUCA ANALISTA DO MP BELO HORIZONTE - COMARCA; ASSESSORIA JURIDICO-ADMINISTRATIVA 13.011,52 2.602,30 0,00 3.422,78 0,00 0,00 0,00 1.717,00 20.753,60 2.310,49 2.789,06 0,00 0,00 5.099,55 15.654,05 31/12/2021
311 333900 ANTONIO GONCALVES DE SOUZA FILHO OFICIAL DO MP BELO HORIZONTE - COMARCA; DIRETORIA DE CONTABILIDADE 10.069,62 3.020,89 0,00 2.387,34 0,00 0,00 0,00 1.717,00 17.194,85 1.906,76 2.206,17 0,00 0,00 4.112,93 13.081,92 31/12/2021
312 176100 ANTONIO MARCELO CAMPOS CAMPANELLA OFICIAL DO MP BELO HORIZONTE - COMARCA; COORD DE GABINETE DO PGJ 16.750,82 8.375,41 0,00 4.853,32 0,00 0,00 0,00 1.717,00 31.696,55 3.832,47 4.986,42 0,00 0,00 8.818,89 22.877,66 31/12/2021
313 321001 ANTONIO OLINTO VIEIRA MACHADO ANALISTA DO MP BELO HORIZONTE - COMARCA; CENTRAL DE APOIO TECN-SETOR DE MEIO AMBIENTE 14.790,66 2.958,13 0,00 3.324,21 5.916,26 0,00 0,00 1.717,00 28.706,26 2.652,08 4.804,93 0,00 0,00 7.457,01 21.249,25 31/12/2021
314 356200 ANTONIO PAULA DA SILVA OFICIAL DO MP JUIZ DE FORA - COMARCA; JUIZ DE FORA-PJ-20PJ 9.444,70 2.833,41 0,00 2.906,41 4.092,70 0,00 0,00 1.717,00 20.994,22 1.776,77 3.144,00 0,00 0,00 4.920,77 16.073,45 31/12/2021
315 119900 ANTONIO RODRIGUES DE PINHO OFICIAL DO MP GUANHÃES - COMARCA; GUANHAES-PJ-01PJ 15.272,02 10.690,41 0,00 16.920,85 0,00 0,00 0,00 1.717,00 44.600,28 3.966,27 5.075,31 0,00 0,00 9.041,58 35.558,70 31/12/2021
316 373300 ANTONIO SERGIO ANANIAS OFICIAL DO MP SÃO JOÃO NEPOMUCENO - COMARCA; SAO JOAO NEPOMUCENO-PJ-01PJ 8.858,43 1.771,69 0,00 2.627,66 0,00 0,00 0,00 1.717,00 14.974,78 841,65 1.770,33 0,00 0,00 2.611,98 12.362,80 31/12/2021
317 608100 ANTONIO SIDINEY VIEIRA LEMOS ANALISTA DO MP PIRAPORA - COMARCA; PIRAPORA-PJ-01PJ 9.146,93 3.658,77 0,00 2.950,70 4.268,57 0,00 0,00 1.717,00 21.741,97 1.861,19 3.262,10 0,00 0,00 5.123,29 16.618,68 31/12/2021
318 374700 ANTONIO SILVA NETO OFICIAL DO MP BELO HORIZONTE - COMARCA; GAECO - SECRETARIA 9.146,93 1.829,39 0,00 2.164,14 0,00 0,00 0,00 2.486,39 15.626,85 1.568,49 1.717,79 0,00 0,00 3.286,28 12.340,57 31/12/2021
319 636700 ANTONIUS VITORIANO FERNANDES OFICIAL DO MP BELO HORIZONTE - COMARCA; ASSESSORIA JURIDICA DO PROCON-MG 4.974,42 497,44 0,00 4.333,14 0,00 0,00 0,00 1.717,00 11.522,00 694,23 444,49 0,00 0,00 1.138,72 10.383,28 31/12/2021
320 413200 ANY PEREIRA SILVA ANALISTA DO MP TRÊS PONTAS - COMARCA; TRES PONTAS-PJ-01PJ 13.011,52 2.602,30 0,00 2.653,71 5.204,61 0,00 0,00 1.717,00 25.189,14 2.310,49 4.220,32 0,00 0,00 6.530,81 18.658,33 31/12/2021
321 151401 APARECIDA DE FATIMA MENDES DE ALMEIDA ASSESSOR JUIZ DE FORA - COMARCA; JUIZ DE FORA-PJ-SECRETARIA 0,00 0,00 5.136,32 2.176,95 1.712,11 0,00 0,00 1.717,00 10.742,38 1.308,46 1.140,43 0,00 0,00 2.448,89 8.293,49 31/12/2021
322 329300 APARECIDA MARIA MELO DE ASSIS OFICIAL DO MP BELO HORIZONTE - COMARCA; BH-18PJ DIREITOS HUMANOS-SECRETARIA 10.069,62 3.020,89 0,00 2.432,32 0,00 0,00 0,00 1.717,00 17.239,83 1.906,76 2.206,17 0,00 0,00 4.112,93 13.126,90 31/12/2021
323 475300 APARECIDA MARLENE FREIRE ROSA ANALISTA DO MP BELO HORIZONTE - COMARCA; BH-02PJ FAMILIA-SECRETARIA 12.601,30 11.341,17 0,00 6.633,83 0,00 2.461,79 0,00 1.717,00 34.755,09 3.643,07 5.389,97 0,00 0,00 9.033,04 25.722,05 31/12/2021
324 653000 APARECIDA ROSA DE LIMA ASSESSOR BELO HORIZONTE - COMARCA; SECRETARIA PROCESSOS DISCIPES ADMINISTRATIVOS 0,00 0,00 8.170,49 2.914,51 0,00 0,00 0,00 1.717,00 12.802,00 1.503,94 1.500,18 0,00 0,00 3.004,12 9.797,88 31/12/2021
325 354500 APARECIDA VIEIRA DE CARVALHO OFICIAL DO MP BELO HORIZONTE - COMARCA; DIVISÃO DE EDUCAÇÃO PARA O CONSUMO 7.912,85 2.373,86 0,00 2.672,05 3.428,90 0,00 0,00 1.717,00 18.104,66 1.458,15 2.501,44 0,00 0,00 3.959,59 14.145,07 31/12/2021
326 551000 ARACELES BICALHO FELIX ANALISTA DO MP MANHUAÇU - COMARCA; MANHUACU-PJ-02PJ 9.444,70 944,47 0,00 2.301,66 0,00 0,00 0,00 1.717,00 14.407,83 1.474,54 1.582,16 0,00 0,00 3.056,70 11.351,13 31/12/2021
327 286200 ARACELI MEDRADO DOS SANTOS LIMA OFICIAL DO MP PARACATU - COMARCA; PARACATU-PJ-03PJ 6.123,79 1.837,14 0,00 1.873,19 2.653,64 0,00 0,00 1.717,00 14.204,76 1.086,03 1.750,99 0,00 0,00 2.837,02 11.367,74 31/12/2021
328 112200 ARAQUEM AUGUSTO DE MATOS AGENTE DO MP BELO HORIZONTE - COMARCA; BH-23PJ CIVEL-SEC EXP CIVEIS 9.146,93 7.317,54 0,00 4.613,43 0,00 2.446,59 0,00 1.717,00 25.241,49 2.446,59 3.501,96 0,00 0,00 5.948,55 19.292,94 31/12/2021
329 280600 ARDUINO FRATTEZI ANALISTA DO MP BELO HORIZONTE - COMARCA; CENTRAL DE APOIO TECNICO-SETOR CONTABIL 18.103,37 5.431,01 0,00 3.920,25 7.844,79 0,00 0,00 1.717,00 37.016,42 3.577,78 6.776,02 0,00 0,00 10.353,80 26.662,62 31/12/2021
330 520201 ARIANE DE FATIMA CARVALHO ALMEIDA RODRIGUES ANALISTA DO MP VESPASIANO - COMARCA; VESPASIANO-PJ-SECRETARIA 9.146,93 914,69 0,00 3.882,65 3.353,87 0,00 0,00 2.870,54 20.168,68 1.422,14 2.272,40 0,00 0,00 3.694,54 16.474,14 31/12/2021
331 537600 ARIELA FREIRE MONTIJO ANALISTA DO MP ARCOS - COMARCA; ARCOS-PJ-01PJ 9.444,70 944,47 0,00 2.405,93 0,00 0,00 0,00 2.486,39 15.281,49 1.474,54 1.477,89 0,00 0,00 2.952,43 12.329,06 31/12/2021
332 182000 ARILSON ALEXANDRE MARTINS MAGALHAES OFICIAL DO MP JOÃO MONLEVADE - COMARCA; JOAO MONLEVADE-PJ-01PJ 15.272,02 7.636,01 0,00 3.632,27 7.636,01 0,00 0,00 3.255,78 37.432,09 3.477,56 6.365,37 0,00 0,00 9.842,93 27.589,16 31/12/2021
333 511000 ARISLANE CAROLINA DA SILVA ANALISTA DO MP MONTE CARMELO - COMARCA; MONTE CARMELO-PJ-02PJ 10.069,62 2.013,92 0,00 2.826,05 0,00 0,00 0,00 3.255,78 18.165,37 1.745,64 1.973,56 0,00 0,00 3.719,20 14.446,17 31/12/2021
334 170000 ARLEY BRITES DA SILVA ASSESSOR BELO HORIZONTE - COMARCA; BH-14PJ DEFESA CONSUMIDOR-SECRETARIA 0,00 2.054,53 5.136,32 2.850,50 2.396,95 0,00 0,00 1.717,00 14.155,30 1.503,94 1.263,78 0,00 0,00 2.767,72 11.387,58 31/12/2021
335 120400 ARLINDO CASSIO DA CRUZ OFICIAL DO MP SÃO GONÇALO DO SAPUCAÍ - COMARCA; SAO GONCALO DO SAPUCAI-PJ-01PJ 18.820,14 15.056,11 0,00 8.595,79 0,00 5.232,48 0,00 1.717,00 49.421,52 5.232,48 8.342,33 0,00 0,00 13.574,81 35.846,71 31/12/2021
336 243700 ARLINDO MARCIO LACERDA OFICIAL DO MP CONTAGEM - COMARCA; CONTAGEM-PJ-SECRETARIA 13.011,52 5.204,61 0,00 3.603,35 0,00 0,00 1.445,27 1.717,00 24.981,75 2.726,86 3.787,64 0,00 0,00 6.514,50 18.467,25 31/12/2021
337 392100 ARNALDO DE ANDRADE OFICIAL DO MP DIVINÓPOLIS - COMARCA; DIVINOPOLIS-PJ-02PJ 9.146,93 1.829,39 0,00 2.752,29 0,00 0,00 1.445,27 2.486,39 17.660,27 1.568,49 2.063,11 0,00 0,00 3.631,60 14.028,67 31/12/2021
338 642400 ARTANE INARDE DE SIQUEIRA DAMASCENO ANALISTA DO MP BELO HORIZONTE - COMARCA; SECRETARIA DE ASSUNTOS INTERNACIONAIS 8.170,49 817,05 0,00 2.497,45 0,00 0,00 0,00 2.486,39 13.971,38 841,65 1.318,08 0,00 0,00 2.159,73 11.811,65 31/12/2021
339 712100 ARTUR FONTE BOA TEOFILO ASSESSOR BELO HORIZONTE - COMARCA; DIRET DE ESTAGIOS E CONVENIOS ACADEMICOS 0,00 0,00 3.076,28 769,07 0,00 0,00 0,00 1.717,00 5.562,35 507,37 224,40 0,00 0,00 731,77 4.830,58 31/12/2021
340 302100 AUGUSTO ROUSSEAU DE CASTRO ANALISTA DO MP CATAGUASES - COMARCA; CATAGUASES-PJ-02PJ 18.820,14 5.646,04 0,00 3.672,27 0,00 0,00 0,00 1.717,00 29.855,45 3.726,87 4.833,95 0,00 0,00 8.560,82 21.294,63 31/12/2021
341 540200 AUREA AVELAR BITTENCOURT OFICIAL DO MP BELO HORIZONTE - COMARCA; GRUPO ESP PROM JUST DEF PROB ADM PAT PUB 5.562,64 556,26 0,00 1.872,04 0,00 0,00 0,00 1.717,00 9.707,94 719,06 514,35 0,00 0,00 1.233,41 8.474,53 31/12/2021
342 633501 AUREA GONTIJO BIRCHAL ASSESSOR BELO HORIZONTE - COMARCA; PROCURADOR-GERAL DE JUSTIÇA 0,00 0,00 8.170,49 3.464,47 0,00 0,00 0,00 1.717,00 13.351,96 1.461,16 1.500,18 0,00 0,00 2.961,34 10.390,62 31/12/2021
343 183200 AURELIANO MAGELA DE REZENDE COORDENADOR/OFICIAL BELO HORIZONTE - COMARCA; COORD DE GABINETE DO PGJ 16.112,82 6.445,13 2.687,03 3.975,21 0,00 0,00 0,00 1.717,00 30.937,19 3.421,55 5.132,08 0,00 0,00 8.553,63 22.383,56 31/12/2021
344 629400 AYESKA DA COSTA VAL MOURA DABIEN OFICIAL DO MP BELO HORIZONTE - COMARCA; BH-09PJ AUDITORIA MILITAR-SECRETARIA 5.387,19 538,72 0,00 1.649,54 0,00 0,00 0,00 1.717,00 9.292,45 762,96 550,45 0,00 0,00 1.313,41 7.979,04 31/12/2021
345 707400 AYMEE JOHANSSENN TYNEE CORREIA ALVES ASSESSOR PROMOTOR JUSTICA NOVA LIMA - COMARCA; NOVA LIMA-PJ-01PJ 0,00 0,00 7.187,72 3.462,75 0,00 0,00 0,00 1.717,00 12.367,47 1.106,40 1.229,92 0,00 0,00 2.336,32 10.031,15 31/12/2021
346 701600 BARBARA CHAVES OLIVEIRA ASSESSOR PROCURADOR JUSTICA BELO HORIZONTE - COMARCA; PROC. JUSTICA DIR. DIFUSOS E COLETIVOS-SEC 0,00 0,00 7.187,72 2.858,11 0,00 0,00 0,00 1.717,00 11.762,83 1.503,94 1.229,92 0,00 0,00 2.733,86 9.028,97 31/12/2021
347 691900 BARBARA COUTINHO REIS ASSESSOR PROCURADOR JUSTICA BELO HORIZONTE - COMARCA; GABINETE DE PROCURADOR DE JUSTIÇA - SALA 912 0,00 0,00 7.187,72 2.693,39 0,00 0,00 0,00 1.717,00 11.598,11 1.503,94 1.229,92 0,00 0,00 2.733,86 8.864,25 31/12/2021
348 692200 BARBARA CRISTINA MENDES BANDEIRA DE MELO DUTRA ASSESSOR PROCURADOR JUSTICA BELO HORIZONTE - COMARCA; GABINETE DE PROCURADOR DE JUSTIÇA - SALA 1009 0,00 0,00 7.187,72 2.693,39 0,00 0,00 0,00 1.717,00 11.598,11 1.503,94 1.229,92 0,00 0,00 2.733,86 8.864,25 31/12/2021
349 652800 BARBARA JULIANNE MOREIRA CASTRO ASSESSOR PROCURADOR JUSTICA BELO HORIZONTE - COMARCA; ASSESS TECNICO-JUR JUNTO AS PROC. DE JUST 0,00 0,00 7.187,72 2.748,66 0,00 0,00 0,00 1.717,00 11.653,38 1.503,94 1.229,92 0,00 0,00 2.733,86 8.919,52 31/12/2021
350 707700 BARBARA LOUISE PUFF DE OLIVEIRA ASSESSOR PROMOTOR JUSTICA RIBEIRÃO DAS NEVES - COMARCA; RIBEIRAO DAS NEVES-PJ-02PJ 0,00 0,00 7.187,72 3.462,75 0,00 0,00 0,00 1.717,00 12.367,47 1.106,40 1.229,92 0,00 0,00 2.336,32 10.031,15 31/12/2021
351 663600 BARBARA REGINA PEREIRA DE PINHO MAGALHAES ASSESSOR PROMOTOR JUSTICA BELO HORIZONTE - COMARCA; CAO-DH CONT EXT ATIV POLIC E AP COMUNIT 0,00 0,00 7.187,72 6.584,13 0,00 0,00 0,00 1.717,00 15.488,85 1.503,94 1.229,92 0,00 0,00 2.733,86 12.754,99 31/12/2021
352 692400 BARBARA SOUZA OLIVEIRA ASSESSOR PROMOTOR JUSTICA DIVINO - COMARCA; DIVINO-PJ-UNPJ 0,00 0,00 7.187,72 2.693,39 0,00 0,00 0,00 1.717,00 11.598,11 1.503,94 1.229,92 0,00 0,00 2.733,86 8.864,25 31/12/2021
353 546500 BARBARA ZACARONI GOULART OFICIAL DO MP BETIM - COMARCA; BETIM-PJ-08PJ 6.123,79 612,38 0,00 2.801,54 0,00 0,00 0,00 1.717,00 11.254,71 890,06 738,32 0,00 0,00 1.628,38 9.626,33 31/12/2021
354 316500 BEATRIZ ABILVIA DA SILVA ANALISTA DO MP GOVERNADOR VALADARES - COMARCA; GOVERNADOR VALADARES-PJ-07PJ 17.413,92 5.224,18 0,00 3.904,02 7.546,03 0,00 0,00 1.717,00 35.805,15 3.434,37 6.486,82 0,00 0,00 9.921,19 25.883,96 31/12/2021
355 311800 BEATRIZ APARECIDA SOARES GANEM OFICIAL DO MP ITAMBACURI - COMARCA; ITAMBACURI-PJ-02PJ 10.736,08 3.220,82 0,00 2.307,91 0,00 0,00 0,00 1.717,00 17.981,81 2.045,38 2.249,90 0,00 0,00 4.295,28 13.686,53 31/12/2021
356 266800 BEATRIZ AUGUSTA VILACA GOMES DE HUBER OFICIAL DO MP BELO HORIZONTE - COMARCA; BH-05PJ-JUÍZO SUCESSÕES-SEC 10.069,62 3.020,89 0,00 8.247,08 0,00 0,00 0,00 1.717,00 23.054,59 1.906,76 2.206,17 0,00 0,00 4.112,93 18.941,66 31/12/2021
357 235200 BEATRIZ BOTELHO BATISTA OFICIAL DO MP BELO HORIZONTE - COMARCA; BH-21PJ TUTELA FUNDACOES-SECRETARIA 10.069,62 4.027,85 0,00 2.542,08 0,00 0,00 0,00 1.717,00 18.356,55 2.067,87 2.438,78 0,00 0,00 4.506,65 13.849,90 31/12/2021
358 182300 BEATRIZ PAULA SOUSA RAMOS OFICIAL DO MP MARIANA - COMARCA; MARIANA-PJ-01PJ 15.272,02 7.636,01 0,00 14.516,72 0,00 0,00 0,00 1.717,00 39.141,75 3.477,56 4.474,02 0,00 0,00 7.951,58 31.190,17 31/12/2021
359 507000 BELCHIOR FRANKLIN AMARAL LEITE ANALISTA DO MP BELO HORIZONTE - COMARCA; CENTRAL DE APOIO TECNICO 10.069,62 2.013,92 0,00 4.567,00 0,00 0,00 0,00 2.486,39 19.136,93 1.745,64 1.817,15 0,00 0,00 3.562,79 15.574,14 31/12/2021
360 345100 BENITO ELIAS RODRIGUES ANALISTA DO MP BARBACENA - COMARCA; BARBACENA - SECRETARIA DAS PJS CRIMINAIS 16.750,82 5.025,25 0,00 4.340,26 7.258,69 0,00 0,00 1.717,00 35.092,02 3.296,45 6.156,54 0,00 0,00 9.452,99 25.639,03 31/12/2021
361 207300 BENITO VIEIRA DOS SANTOS ANALISTA DO MP BELO HORIZONTE - COMARCA; PROC JUST ESP ACOES COMP ORIG CRIMINAL-ASSESS 18.820,14 7.528,06 0,00 8.006,16 8.782,73 4.027,99 0,00 1.717,00 48.882,08 4.027,99 7.232,98 0,00 0,00 11.260,97 37.621,11 31/12/2021
362 480200 BERNADETE NUNES DOS SANTOS ANALISTA DO MP GUANHÃES - COMARCA; GUANHAES-PJ-02PJ 10.069,62 3.020,89 0,00 4.488,79 4.363,50 0,00 0,00 1.717,00 23.659,80 1.906,76 3.406,13 0,00 0,00 5.312,89 18.346,91 31/12/2021
363 378400 BETANIA FARNESI DE SOUZA E SILVA OFICIAL DO MP CURVELO - COMARCA; CURVELO-PJ-01PJ 9.146,93 3.658,77 0,00 2.409,39 0,00 0,00 0,00 1.717,00 16.932,09 1.861,19 2.088,24 0,00 0,00 3.949,43 12.982,66 31/12/2021
364 387400 BETANIA MENDONCA DE ASSIS CARVALHO ANALISTA DO MP JUIZ DE FORA - COMARCA; JUIZ DE FORA-PJ-03PJ 14.790,66 2.958,13 0,00 2.931,21 0,00 0,00 0,00 1.717,00 22.397,00 2.652,08 3.230,10 0,00 0,00 5.882,18 16.514,82 31/12/2021
365 712700 BIANCA DE JESUS SOUZA ASSESSOR GOVERNADOR VALADARES - COMARCA; COOR REG APOIO COM INC MOB VALE DO RIO DOCE 0,00 0,00 3.076,28 769,07 0,00 0,00 0,00 1.717,00 5.562,35 507,37 224,40 0,00 0,00 731,77 4.830,58 31/12/2021
366 450300 BIANCA OLIVEIRA DE ALBUQUERQUE ANALISTA DO MP BELO HORIZONTE - COMARCA; BH-10PJ EXECUÇÃO PENAL-SECRETARIA 10.069,62 2.013,92 0,00 2.322,57 0,00 0,00 0,00 2.486,39 16.892,50 1.745,64 1.973,56 0,00 0,00 3.719,20 13.173,30 31/12/2021
367 535400 BIANCA SALOTO ROSSI ANALISTA DO MP SANTOS DUMONT - COMARCA; SANTOS DUMONT-PJ-01PJ 9.444,70 944,47 0,00 2.301,66 0,00 0,00 0,00 2.486,39 15.177,22 1.474,54 1.582,16 0,00 0,00 3.056,70 12.120,52 31/12/2021
368 120800 BRAS MARQUES DE SOUZA ANALISTA DO MP BELO HORIZONTE - COMARCA; SUPERINTENDENCIA DE GESTAO ADMINISTRATIVA 23.757,25 19.005,81 0,00 8.952,63 11.820,74 5.486,23 0,00 1.717,00 70.739,66 5.486,23 12.029,18 7.300,84 0,00 24.816,25 45.923,41 31/12/2021
369 710500 BRENNO VINICIUS MAGESTE ROSA ASSESSOR PROMOTOR JUSTICA MANHUAÇU - COMARCA; MANHUACU-PJ-02PJ 0,00 0,00 7.187,72 2.933,82 0,00 0,00 0,00 1.717,00 11.838,54 1.028,75 1.229,92 0,00 0,00 2.258,67 9.579,87 31/12/2021
370 460900 BRENO CRISTIANO DE SOUZA REZENDE ANALISTA DO MP ITAÚNA - COMARCA; ITAUNA-PJ-02PJ 10.069,62 2.013,92 0,00 2.281,03 0,00 0,00 0,00 1.717,00 16.081,57 1.745,64 1.973,56 0,00 0,00 3.719,20 12.362,37 31/12/2021
371 239000 BRENO VENANCIO ROMANINI OFICIAL DO MP BELO HORIZONTE - COMARCA; BH-20PJ ORD ECON TRIBUTARIA-SECRETARIA 10.069,62 3.020,89 0,00 8.977,58 4.363,50 0,00 0,00 1.717,00 28.148,59 1.906,76 3.406,13 0,00 0,00 5.312,89 22.835,70 31/12/2021
372 642300 BRUNA IZABELITA DE FATIMA OLIVEIRA COSTA OFICIAL DO MP BELO HORIZONTE - COMARCA; BH-02PJ FAMILIA-SECRETARIA 5.387,19 538,72 0,00 4.591,95 0,00 0,00 0,00 1.717,00 12.234,86 762,96 550,45 0,00 0,00 1.313,41 10.921,45 31/12/2021
373 513600 BRUNA KARLA MARTINS CARVALHO ANALISTA DO MP GOVERNADOR VALADARES - COMARCA; GOVERNADOR VALADARES-PJ-14PJ 10.069,62 2.013,92 0,00 3.481,44 4.027,85 0,00 0,00 1.717,00 21.309,83 707,85 3.250,08 0,00 0,00 3.957,93 17.351,90 31/12/2021
374 415100 BRUNA MARIA SOARES OLIVEIRA COSTA RAMOS ANALISTA DO MP UBÁ - COMARCA; COORD REG BACIA DO RIO PARAIBA DO SUL 14.324,23 2.864,85 0,00 6.216,48 5.729,69 0,00 0,00 1.717,00 30.852,25 2.562,53 4.728,61 0,00 0,00 7.291,14 23.561,11 31/12/2021
375 692900 BRUNA MENDES COELHO ASSESSOR PROCURADOR JUSTICA BELO HORIZONTE - COMARCA; GABINETE DE PROCURADOR DE JUSTIÇA - SALA 801 0,00 0,00 7.187,72 3.519,63 0,00 0,00 0,00 1.717,00 12.424,35 1.503,94 1.229,92 0,00 0,00 2.733,86 9.690,49 31/12/2021
376 470000 BRUNA MORAES ANALISTA DO MP TOMBOS - COMARCA; TOMBOS-PJ-UNPJ 12.601,30 2.520,26 0,00 3.048,49 0,00 0,00 0,00 1.717,00 19.887,05 2.231,73 2.518,93 0,00 0,00 4.750,66 15.136,39 31/12/2021
377 614700 BRUNA NATTANY DE LIMA OFICIAL DO MP MANTENA - COMARCA; MANTENA-PJ-01PJ 5.930,75 593,08 0,00 2.015,51 2.174,61 0,00 0,00 2.512,04 13.225,99 856,09 1.287,29 0,00 0,00 2.143,38 11.082,61 31/12/2021
378 693300 BRUNA RAMONY ROCHA DA CRUZ ASSESSOR PROMOTOR JUSTICA JAIBA - COMARCA; JAIBA-PJ-UNPJ 0,00 0,00 7.187,72 6.287,25 0,00 0,00 0,00 1.717,00 15.191,97 1.503,94 1.229,92 0,00 0,00 2.733,86 12.458,11 31/12/2021
379 631800 BRUNA RAPOSO JORGE OFICIAL DO MP JUIZ DE FORA - COMARCA; JUIZ DE FORA-PJ-06PJ 5.930,75 593,08 0,00 1.649,54 2.174,61 0,00 0,00 1.717,00 12.064,98 856,09 1.287,29 0,00 0,00 2.143,38 9.921,60 31/12/2021
380 707800 BRUNA ROMIE WERDINE ASSESSOR PROMOTOR JUSTICA IBIRITÉ - COMARCA; IBIRITE-PJ-06PJ 0,00 0,00 7.187,72 3.462,75 0,00 0,00 0,00 1.717,00 12.367,47 1.106,40 1.229,92 0,00 0,00 2.336,32 10.031,15 31/12/2021
381 697400 BRUNA SILVA SANTOS ASSESSOR PROMOTOR JUSTICA TIMÓTEO - COMARCA; TIMOTEO-PJ-04PJ 0,00 0,00 7.187,72 2.693,39 0,00 0,00 0,00 1.717,00 11.598,11 1.503,94 1.229,92 0,00 0,00 2.733,86 8.864,25 31/12/2021
382 699300 BRUNA URSINE TIMO ASSESSOR PROCURADOR JUSTICA BELO HORIZONTE - COMARCA; PROC JUST ESP ACOES COMP ORIG CRIMINAL-ASSESS 0,00 0,00 7.187,72 2.693,39 0,00 0,00 0,00 1.717,00 11.598,11 1.503,94 1.229,92 0,00 0,00 2.733,86 8.864,25 31/12/2021
383 463800 BRUNO ALVES TEIXEIRA ANALISTA DO MP UBERLÂNDIA - COMARCA; UBERLANDIA-PJ-04PJ 10.069,62 2.013,92 0,00 2.322,57 4.027,85 0,00 0,00 1.717,00 20.150,96 1.745,64 3.081,22 0,00 0,00 4.826,86 15.324,10 31/12/2021
384 538500 BRUNO AUGUSTO DA SILVA OFICIAL DO MP SANTA LUZIA - COMARCA; SANTA LUZIA-PJ-03PJ 6.123,79 612,38 0,00 5.107,79 0,00 0,00 0,00 1.717,00 13.560,96 890,06 738,32 0,00 0,00 1.628,38 11.932,58 31/12/2021
385 318200 BRUNO BARROS DE SOUZA OFICIAL DO MP UBÁ - COMARCA; UBA-PJ-04PJ 10.069,62 3.020,89 0,00 2.811,32 0,00 0,00 0,00 1.717,00 17.618,83 1.906,76 1.827,17 0,00 0,00 3.733,93 13.884,90 31/12/2021
386 459600 BRUNO CASTELAR LUGAO MENDES OFICIAL DO MP BELO HORIZONTE - COMARCA; PROC JUST ATUACAO TRIBUNAIS SUPERIORES-GAB001 8.579,10 1.715,82 0,00 7.143,34 3.431,64 0,00 0,00 1.717,00 22.586,90 841,65 2.594,35 0,00 0,00 3.436,00 19.150,90 31/12/2021
387 427400 BRUNO CESAR RIBEIRO DE PAIVA ANALISTA DO MP BELO HORIZONTE - COMARCA; ASSESS JUR DO CONS SUPERIOR DO MINISTERIO PUB 14.324,23 2.864,85 0,00 3.666,70 0,00 0,00 0,00 1.717,00 22.572,78 2.562,53 3.152,94 0,00 0,00 5.715,47 16.857,31 31/12/2021
388 380900 BRUNO CIRILO ANTUNES OFICIAL DO MP VARGINHA - COMARCA; VARGINHA-PJ-05PJ 9.444,70 1.888,94 0,00 2.127,61 3.777,88 0,00 0,00 1.717,00 18.956,13 1.625,66 2.839,25 0,00 0,00 4.464,91 14.491,22 31/12/2021
389 329000 BRUNO DE MELO REIS ANALISTA DO MP PATROCÍNIO - COMARCA; PATROCINIO-PJ-02PJ 17.413,92 5.224,18 0,00 3.483,32 7.546,03 0,00 0,00 3.255,78 36.923,23 3.434,37 6.382,55 0,00 0,00 9.816,92 27.106,31 31/12/2021
390 697800 BRUNO GAZZOLA BEZERRA FALCAO ASSESSOR PROCURADOR JUSTICA BELO HORIZONTE - COMARCA; PROCURADOR-GERAL ADJUNTO JURIDICO- GABINETE 0,00 0,00 7.187,72 2.693,39 0,00 0,00 0,00 1.717,00 11.598,11 1.503,94 1.229,92 0,00 0,00 2.733,86 8.864,25 31/12/2021
391 378300 BRUNO HERDY LOPES DE OLIVEIRA ANALISTA DO MP GOVERNADOR VALADARES - COMARCA; GOVERNADOR VALADARES-PJ-03PJ 14.790,66 2.958,13 0,00 2.879,07 0,00 0,00 0,00 1.717,00 22.344,86 2.652,08 3.282,24 0,00 0,00 5.934,32 16.410,54 31/12/2021
392 529700 BRUNO JOSE BUENO DIAS OFICIAL DO MP SÃO SEBASTIÃO DO PARAÍSO - COMARCA; SAO SEBASTIAO DO PARAISO-PJ-02PJ 6.123,79 612,38 0,00 1.898,01 0,00 0,00 0,00 1.717,00 10.351,18 890,06 686,18 0,00 0,00 1.576,24 8.774,94 31/12/2021
393 691600 BRUNO JOSE RIBEIRO ASSESSOR PROMOTOR JUSTICA CLÁUDIO - COMARCA; CLAUDIO-PJ-UNPJ 0,00 0,00 7.187,72 2.693,39 0,00 0,00 0,00 1.717,00 11.598,11 1.503,94 1.229,92 0,00 0,00 2.733,86 8.864,25 31/12/2021
394 350100 BRUNO LAUD SERRANO DOS REIS OFICIAL DO MP UBÁ - COMARCA; UBA-PJ-02PJ 9.752,14 2.925,64 0,00 2.639,31 4.225,93 0,00 0,00 1.717,00 21.260,02 1.840,72 3.220,83 0,00 0,00 5.061,55 16.198,47 31/12/2021
395 373800 BRUNO MARTINO DE ALBUQUERQUE ANALISTA DO MP PONTE NOVA - COMARCA; PONTE NOVA-PJ-03PJ 14.790,66 2.958,13 0,00 2.983,34 5.916,26 0,00 0,00 1.717,00 28.365,39 2.652,08 4.804,93 0,00 0,00 7.457,01 20.908,38 31/12/2021
396 470400 BRUNO NOVAIS CABRAL ANALISTA DO MP MUTUM - COMARCA; MUTUM-PJ-UNPJ 10.069,62 2.013,92 0,00 2.426,84 0,00 0,00 0,00 2.486,39 16.996,77 1.745,64 1.869,29 0,00 0,00 3.614,93 13.381,84 31/12/2021
397 648600 BRUNO RIBEIRO E MELO ASSESSOR BELO HORIZONTE - COMARCA; DIR RELACOES INSTITUCIONAIS 0,00 0,00 8.170,49 2.914,51 0,00 0,00 0,00 1.717,00 12.802,00 1.503,94 1.500,18 0,00 0,00 3.004,12 9.797,88 31/12/2021
398 369200 BRUNO ROBERTO DIAS DE OLIVEIRA OFICIAL DO MP BELO HORIZONTE - COMARCA; BH-22PJ PES COM DEF E IDOSOS-SECRETARIA 10.069,62 2.013,92 0,00 2.876,18 4.027,85 0,00 0,00 1.717,00 20.704,57 1.745,64 3.081,22 0,00 0,00 4.826,86 15.877,71 31/12/2021
399 547700 BRUNO ROBERTO SOUZA GONCALVES ANALISTA DO MP PARACATU - COMARCA; PARACATU-PJ-03PJ 9.444,70 944,47 0,00 2.301,66 0,00 0,00 0,00 3.255,78 15.946,61 1.474,54 1.582,16 0,00 0,00 3.056,70 12.889,91 31/12/2021
400 546100 BRUNO SA VIEIRA ANALISTA DO MP BARBACENA - COMARCA; BARBACENA-PJ-SECRETARIA 9.444,70 944,47 0,00 2.353,79 0,00 0,00 0,00 2.486,39 15.229,35 1.474,54 1.530,03 0,00 0,00 3.004,57 12.224,78 31/12/2021
401 438200 BRUNO SALES PEREIRA ANALISTA DO MP BELO HORIZONTE - COMARCA; CENTRAL DE APOIO TECNICO-SETOR CONTABIL 12.601,30 2.520,26 0,00 2.653,88 0,00 0,00 0,00 2.486,39 20.261,83 2.231,73 2.623,21 0,00 0,00 4.854,94 15.406,89 31/12/2021
402 537400 BRUNO SANT'ANA CESAR ANALISTA DO MP CONTAGEM - COMARCA; CONTAGEM-PJ-21PJ 9.444,70 944,47 0,00 2.301,66 0,00 0,00 0,00 1.717,00 14.407,83 1.474,54 1.582,16 0,00 0,00 3.056,70 11.351,13 31/12/2021
403 405800 CAIO FERNANDO RODRIGUES DE OLIVEIRA ANALISTA DO MP BELO HORIZONTE - COMARCA; GABINETE DE PROCURADOR DE JUSTIÇA - SALA 805 14.324,23 2.864,85 0,00 5.017,86 0,00 0,00 0,00 1.717,00 23.923,94 841,65 3.522,66 0,00 0,00 4.364,31 19.559,63 31/12/2021
404 530000 CAIO GUEDES DE OLIVEIRA ANALISTA DO MP DIAMANTINA - COMARCA; DIAMANTINA-PJ-02PJ 10.069,62 1.006,96 0,00 3.901,62 0,00 0,00 0,00 2.486,39 17.464,59 1.584,53 1.688,82 0,00 0,00 3.273,35 14.191,24 31/12/2021
405 491400 CAIO MIRANDA JUNQUEIRA ANALISTA DO MP BUENO BRANDAO - COMARCA; BUENO BRANDAO-PJ-UNPJ 10.069,62 2.013,92 0,00 2.930,32 0,00 0,00 0,00 1.717,00 16.730,86 1.745,64 1.869,29 0,00 0,00 3.614,93 13.115,93 31/12/2021
406 415800 CAMILA ALVES DA SILVA ANALISTA DO MP CAETÉ - COMARCA; CAETE-PJ-01PJ 14.324,23 2.864,85 0,00 2.707,36 0,00 0,00 0,00 1.717,00 21.613,44 2.562,53 3.152,94 0,00 0,00 5.715,47 15.897,97 31/12/2021
407 555800 CAMILA CAROLINE ROCHA CHAVES OFICIAL DO MP SALINAS - COMARCA; SALINAS-PJ-01PJ 6.123,79 612,38 0,00 2.618,56 0,00 0,00 0,00 1.717,00 11.071,73 890,06 738,32 0,00 0,00 1.628,38 9.443,35 31/12/2021
408 445200 CAMILA CONDE ROCHA ANALISTA DO MP CONTAGEM - COMARCA; CONTAGEM-PJ-08PJ 10.069,62 2.013,92 0,00 2.322,57 4.027,85 0,00 0,00 1.717,00 20.150,96 1.745,64 3.081,22 0,00 0,00 4.826,86 15.324,10 31/12/2021
409 419900 CAMILA CUNNINGHAM PIMENTA DE PADUA ANALISTA DO MP BELO HORIZONTE - COMARCA; ASSESSORIA PSICOSSOCIAL 14.324,23 2.864,85 0,00 3.666,70 0,00 0,00 0,00 1.717,00 22.572,78 2.562,53 3.152,94 0,00 0,00 5.715,47 16.857,31 31/12/2021
410 714200 CAMILA DE SOUSA CUNHA ASSESSOR PROMOTOR JUSTICA PRADOS - COMARCA; PRADOS-PJ-UNPJ 0,00 0,00 7.187,72 598,98 0,00 0,00 0,00 1.717,00 9.503,70 751,97 1.229,92 0,00 0,00 1.981,89 7.521,81 31/12/2021
411 507700 CAMILA ELIZABETH RODRIGUES ANALISTA DO MP BELO HORIZONTE - COMARCA; BH-02PJ FAMILIA-SECRETARIA 11.085,56 2.217,11 0,00 3.201,94 4.434,22 0,00 0,00 1.717,00 22.655,83 1.940,70 3.474,59 0,00 0,00 5.415,29 17.240,54 31/12/2021
412 372700 CAMILA FONSECA LIMONGE ANALISTA DO MP BETIM - COMARCA; BETIM-PJ-01PJ 14.790,66 2.958,13 0,00 2.879,07 5.916,26 0,00 0,00 2.024,76 28.568,88 2.652,08 4.909,21 0,00 0,00 7.561,29 21.007,59 31/12/2021
413 621300 CAMILA GOLFETO DE SOUSA VALENTE OFICIAL DO MP CARANGOLA - COMARCA; CARANGOLA-PJ-SECRETARIA 5.930,75 593,08 0,00 2.054,02 2.174,61 0,00 0,00 2.870,54 13.623,00 856,09 1.183,01 0,00 0,00 2.039,10 11.583,90 31/12/2021
414 409800 CAMILA GONCALVES COSTA RIBEIRO ANALISTA DO MP INHAPIM - COMARCA; INHAPIM-PJ-02PJ 10.069,62 2.013,92 0,00 2.374,70 4.027,85 0,00 0,00 2.486,39 20.972,48 1.745,64 3.029,08 0,00 0,00 4.774,72 16.197,76 31/12/2021
415 335000 CAMILA GONTIJO DE PAIVA ANALISTA DO MP BELO HORIZONTE - COMARCA; COORD DE CONTROLE CONSTITUCIONALIDADE 16.750,82 5.025,25 0,00 6.907,06 0,00 0,00 0,00 1.717,00 30.400,13 3.296,45 4.160,40 0,00 0,00 7.456,85 22.943,28 31/12/2021
416 693400 CAMILA HECKSHER MONTEIRO ASSESSOR PROCURADOR JUSTICA BELO HORIZONTE - COMARCA; GABINETE DE PROCURADOR DE JUSTIÇA - SALA 613 0,00 0,00 7.187,72 2.693,39 0,00 0,00 0,00 1.717,00 11.598,11 1.503,94 1.229,92 0,00 0,00 2.733,86 8.864,25 31/12/2021
417 696000 CAMILA IMACULADA OLIVEIRA ASSESSOR PROCURADOR JUSTICA BELO HORIZONTE - COMARCA; GABINETE DE PROCURADOR DE JUSTIÇA - SALA 816 0,00 0,00 7.187,72 6.287,25 0,00 0,00 0,00 1.717,00 15.191,97 1.503,94 1.229,92 0,00 0,00 2.733,86 12.458,11 31/12/2021
418 547800 CAMILA MATTARELLI DE ABREU E SILVA ANALISTA DO MP BELO HORIZONTE - COMARCA; CAO-VIOLENCIA DOMESTICA E FAMILIAR 9.444,70 944,47 0,00 2.301,66 0,00 0,00 0,00 1.717,00 14.407,83 1.474,54 1.582,16 0,00 0,00 3.056,70 11.351,13 31/12/2021
419 430000 CANDIDA MARINA COSTA ANALISTA DO MP BELO HORIZONTE - COMARCA; DIVISAO DE DOCUMENTACAO JURIDICA 14.324,23 2.864,85 0,00 2.707,36 0,00 0,00 0,00 1.717,00 21.613,44 2.562,53 3.152,94 0,00 0,00 5.715,47 15.897,97 31/12/2021
420 614300 CARINA CORTIELHA OFICIAL DO MP BELO HORIZONTE - COMARCA; BH-23PJ CIVEL-SEC EXP CIVEIS 5.387,19 538,72 0,00 2.445,94 0,00 0,00 0,00 1.717,00 10.088,85 762,96 550,45 0,00 0,00 1.313,41 8.775,44 31/12/2021
421 380400 CARINA DIAS FACANHA DE SOUZA ANALISTA DO MP SANTA RITA DO SAPUCAÍ - COMARCA; SANTA RITA DO SAPUCAI-PJ-SECRETARIA 14.790,66 2.958,13 0,00 2.879,07 0,00 0,00 0,00 1.717,00 22.344,86 2.652,08 3.282,24 0,00 0,00 5.934,32 16.410,54 31/12/2021
422 698300 CARINA ESTEPHANY FAVATO FERREIRA JUSTE ASSESSOR PROCURADOR JUSTICA BELO HORIZONTE - COMARCA; PROC. JUSTICA DIR. DIFUSOS E COLETIVOS-SEC 0,00 0,00 7.187,72 2.693,39 0,00 0,00 0,00 1.717,00 11.598,11 1.503,94 1.229,92 0,00 0,00 2.733,86 8.864,25 31/12/2021
423 255000 CARLA ADRIANA DE MENEZES OFICIAL DO MP BELO HORIZONTE - COMARCA; CENT DE APOIO TEC-SETOR DEF,IDOSO E INFANC 10.069,62 3.020,89 0,00 2.432,32 4.363,50 0,00 0,00 1.717,00 21.603,33 1.906,76 3.406,13 0,00 0,00 5.312,89 16.290,44 31/12/2021
424 425100 CARLA ADRIANA DINIZ AMARAL OFICIAL DO MP CONTAGEM - COMARCA; CONTAGEM-PJ-SECRETARIA 8.858,43 1.771,69 0,00 2.331,74 3.543,37 0,00 0,00 1.717,00 18.222,23 1.513,10 2.612,25 0,00 0,00 4.125,35 14.096,88 31/12/2021
425 508100 CARLA ALESSANDRA FONSECA ANALISTA DO MP BELO HORIZONTE - COMARCA; CAO-ORDEM ECONOMICA E TRIBUTARIA-SECRETARIA 10.069,62 2.013,92 0,00 8.364,34 0,00 0,00 0,00 1.717,00 22.164,88 1.745,64 1.973,56 0,00 0,00 3.719,20 18.445,68 31/12/2021
426 607100 CARLA ANGELICA DIAS MIRANDA OFICIAL DO MP JABOTICATUBAS - COMARCA; JABOTICATUBAS-PJ-UNPJ 6.123,79 612,38 0,00 2.567,44 0,00 0,00 0,00 1.717,00 11.020,61 890,06 581,91 0,00 0,00 1.471,97 9.548,64 31/12/2021
427 351500 CARLA APARECIDA MENDES RAMIRIO OFICIAL DO MP PASSOS - COMARCA; PASSOS-PJ-01PJ 10.069,62 3.020,89 0,00 2.811,06 0,00 0,00 0,00 1.717,00 17.618,57 1.906,76 2.154,03 0,00 0,00 4.060,79 13.557,78 31/12/2021
428 713100 CARLA DOS SANTOS SOUZA ASSESSOR PROMOTOR JUSTICA ESPERA FELIZ - COMARCA; ESPERA FELIZ-PJ-UNPJ 0,00 0,00 7.187,72 1.197,95 0,00 0,00 0,00 1.717,00 10.102,67 843,28 1.229,92 0,00 0,00 2.073,20 8.029,47 31/12/2021
429 442800 CARLA GONCALVES COSTA SOALHEIRO ANALISTA DO MP GOVERNADOR VALADARES - COMARCA; GOVERNADOR VALADARES-PJ-11PJ 10.069,62 2.013,92 0,00 2.374,70 0,00 0,00 0,00 1.717,00 16.175,24 1.745,64 1.921,43 0,00 0,00 3.667,07 12.508,17 31/12/2021
430 321500 CARLA GONCALVES MASSOTE OFICIAL DO MP CAMPO BELO - COMARCA; CAMPO BELO-PJ-02PJ 10.069,62 3.020,89 0,00 2.432,32 0,00 0,00 0,00 1.717,00 17.239,83 1.906,76 2.206,17 0,00 0,00 4.112,93 13.126,90 31/12/2021
431 429200 CARLA HAUTEQUESTT BECHARA COORDENADOR/ANALISTA BELO HORIZONTE - COMARCA; DIRET DE INFORMACAO E CONHECIMENTO-DINC/CEAF 14.324,23 2.864,85 2.687,03 3.311,94 6.625,37 0,00 0,00 1.717,00 31.530,42 2.562,53 5.713,85 0,00 0,00 8.276,38 23.254,04 31/12/2021
432 247500 CARLA MATILDE GUIMARAES DE OLIVEIRA OFICIAL DO MP ITAJUBA - COMARCA; ITAJUBA-PJ-SECRETARIA 10.069,62 4.027,85 0,00 2.594,22 0,00 0,00 0,00 1.717,00 18.408,69 2.067,87 2.386,64 0,00 0,00 4.454,51 13.954,18 31/12/2021
433 226100 CARLA MERLI DA CONCEICAO ANALISTA DO MP BELO HORIZONTE - COMARCA; CENTRAL DE APOIO TECNICO-SETOR CONTABIL 18.820,14 5.646,04 0,00 3.724,41 8.155,39 0,00 0,00 1.717,00 38.062,98 3.726,87 7.024,55 0,00 0,00 10.751,42 27.311,56 31/12/2021
434 181401 CARLO MICHEL GAUDENSI COELHO ANALISTA DO MP BELO HORIZONTE - COMARCA; BH-08PJ JUIZADO ESPECIAL-SECRETARIA 13.011,52 5.204,61 0,00 3.278,17 0,00 0,00 0,00 1.717,00 23.211,30 2.726,86 3.390,19 0,00 0,00 6.117,05 17.094,25 31/12/2021
435 634000 CARLOS ALBERTO AMORMINO TRIGUEIRO ANALISTA DO MP BELO HORIZONTE - COMARCA; DIRET DE APOIO AS PROCURADORIAS DE JUSTICA 8.436,53 843,65 0,00 2.215,45 0,00 0,00 0,00 2.486,39 13.982,02 1.297,11 1.273,85 0,00 0,00 2.570,96 11.411,06 31/12/2021
436 637900 CARLOS ALBERTO DE MOURA OFICIAL DO MP SETE LAGOAS - COMARCA; SETE LAGOAS-PJ-07PJ 5.387,19 538,72 0,00 4.664,64 0,00 0,00 0,00 1.717,00 12.307,55 762,96 498,31 0,00 0,00 1.261,27 11.046,28 31/12/2021
437 638700 CARLOS ALBERTO FERREIRA BRAGA ANALISTA DO MP VESPASIANO - COMARCA; VESPASIANO-PJ-06PJ 8.436,53 843,65 0,00 2.597,80 0,00 0,00 0,00 1.717,00 13.594,98 841,65 1.346,96 0,00 0,00 2.188,61 11.406,37 31/12/2021
438 375801 CARLOS ALBERTO ROCHA ANALISTA DO MP VARGINHA - COMARCA; GAECO REGIONAL DE VARGINHA 10.069,62 1.006,96 0,00 7.751,10 0,00 0,00 0,00 2.358,16 21.185,84 1.584,53 1.740,95 0,00 0,00 3.325,48 17.860,36 31/12/2021
439 462800 CARLOS ANDREI SOARES FAGUNDES ANALISTA DO MP MONTES CLAROS - COMARCA; MONTES CLAROS-PJ-09PJ 10.069,62 2.013,92 0,00 8.416,47 4.027,85 0,00 0,00 1.717,00 26.244,86 1.745,64 3.029,08 0,00 0,00 4.774,72 21.470,14 31/12/2021
440 370300 CARLOS AUGUSTO BUENO DIAS ASSESSOR BELO HORIZONTE - COMARCA; SUPERINTENDÊNCIA DE ENGENHARIA E ARQUITETURA 0,00 0,00 10.397,52 4.064,24 0,00 0,00 0,00 1.717,00 16.178,76 1.503,94 1.463,97 0,00 0,00 2.967,91 13.210,85 31/12/2021
441 701800 CARLOS AUGUSTO GOMES DE MORAES SALLES ASSESSOR PROCURADOR JUSTICA BELO HORIZONTE - COMARCA; PROC JUST ATUACAO TRIBUNAIS SUPERIORES-GAB004 0,00 0,00 7.187,72 3.005,74 0,00 0,00 0,00 1.717,00 11.910,46 1.441,83 1.229,92 0,00 0,00 2.671,75 9.238,71 31/12/2021
442 505100 CARLOS CEZAR CARVALHO ANALISTA DO MP CONTAGEM - COMARCA; CONTAGEM-PJ-02PJ 10.069,62 4.027,85 0,00 4.847,55 0,00 0,00 0,00 1.717,00 20.662,02 2.067,87 2.334,51 0,00 0,00 4.402,38 16.259,64 31/12/2021
443 195900 CARLOS DE SOUZA FERREIRA OFICIAL DO MP COROMANDEL - COMARCA; COROMANDEL-PJ-01PJ 10.069,62 8.055,69 0,00 14.010,21 0,00 2.712,33 0,00 1.717,00 36.564,85 2.712,33 4.115,10 0,00 0,00 6.827,43 29.737,42 31/12/2021
444 196800 CARLOS EDUARDO DE OLIVEIRA MARINHO OFICIAL DO MP ALPINÓPOLIS - COMARCA; ALPINOPOLIS-PJ-UNPJ 16.750,82 11.725,57 0,00 3.887,49 9.492,13 0,00 0,00 1.717,00 43.573,01 4.368,50 8.318,51 0,00 0,00 12.687,01 30.886,00 31/12/2021
445 650800 CARLOS EDUARDO NIZA DA SILVA OFICIAL DO MP IGARAPÉ - COMARCA; IGARAPE-PJ-01PJ 4.817,57 481,76 0,00 1.769,61 220,24 0,00 219,20 2.486,39 9.994,77 668,35 320,53 0,00 25,19 1.014,07 8.980,70 31/12/2021
446 491800 CARLOS EDUARDO ROMAN OFICIAL DO MP BARBACENA - COMARCA; BARBACENA-PJ-09PJ 7.912,85 1.582,57 0,00 2.007,83 0,00 0,00 0,00 1.717,00 13.220,25 1.331,54 1.375,71 0,00 0,00 2.707,25 10.513,00 31/12/2021
447 299300 CARLOS HENRIQUE BICALHO ANALISTA DO MP BELO HORIZONTE - COMARCA; BH-17PJ PATRIMONIO PUBLICO-SECRETARIA 18.103,37 7.241,35 0,00 4.144,47 8.448,24 0,00 0,00 2.486,39 40.423,82 3.867,43 7.360,16 0,00 0,00 11.227,59 29.196,23 31/12/2021
448 205100 CARLOS HENRIQUE ESTEVES OFICIAL DO MP ITAMBACURI - COMARCA; ITAMBACURI-PJ-01PJ 16.750,82 6.700,33 0,00 4.648,93 7.817,05 0,00 0,00 1.717,00 37.634,13 3.564,46 6.697,03 0,00 0,00 10.261,49 27.372,64 31/12/2021
449 351600 CARLOS HENRIQUE FELICIO DA FONSECA OFICIAL DO MP JUIZ DE FORA - COMARCA; JUIZ DE FORA-PJ-21PJ 10.069,62 3.020,89 0,00 2.439,48 0,00 0,00 0,00 1.717,00 17.246,99 1.906,76 2.154,03 0,00 0,00 4.060,79 13.186,20 31/12/2021
450 85400 CARLOS JOSE VIEIRA OFICIAL DO MP BELO HORIZONTE - COMARCA; DIRETORIA DO COLEGIO E DA CAMARA DE PJ 23.757,25 19.005,81 0,00 4.870,84 11.820,74 0,00 0,00 1.717,00 61.171,64 5.486,23 10.624,74 7.300,84 0,00 23.411,81 37.759,83 31/12/2021
451 229100 CARLOS MERCES DE OLIVEIRA ANALISTA DO MP BELO HORIZONTE - COMARCA; CENTRAL DE APOIO TECN-SETOR DE MEIO AMBIENTE 18.820,14 7.528,06 0,00 5.021,57 0,00 0,00 0,00 1.717,00 33.086,77 4.027,99 4.124,54 0,00 0,00 8.152,53 24.934,24 31/12/2021
452 538300 CARLOS RANGEL SILVA DE MELO ANALISTA DO MP BELO HORIZONTE - COMARCA; DIVISAO DE CONTROLE IMOBILIARIO 9.444,70 2.833,41 0,00 4.359,29 0,00 0,00 0,00 2.486,39 19.123,79 1.776,77 2.018,51 0,00 0,00 3.795,28 15.328,51 31/12/2021
453 265100 CARLOS REIFF MIRANDA ANALISTA DO MP BELO HORIZONTE - COMARCA; BH-19PJ SAUDE-SECRETARIA 150PJ 18.820,14 5.646,04 0,00 3.672,27 0,00 0,00 0,00 1.717,00 29.855,45 3.726,87 4.833,95 0,00 0,00 8.560,82 21.294,63 31/12/2021
454 305400 CARLOS ROCHA DE SOUZA OFICIAL DO MP MONTALVÂNIA - COMARCA; MONTALVANIA-PJ-SECRETARIA 6.123,79 1.837,14 0,00 2.081,74 0,00 0,00 0,00 2.079,31 12.121,98 1.086,03 812,69 0,00 0,00 1.898,72 10.223,26 31/12/2021
455 399900 CARMELITA EVANGELISTA DE SOUZA OFICIAL DO MP JOÃO PINHEIRO - COMARCA; JOAO PINHEIRO-PJ-01PJ 8.579,10 1.715,82 0,00 6.788,17 3.431,64 0,00 0,00 1.717,00 22.231,73 1.459,46 2.504,09 0,00 0,00 3.963,55 18.268,18 31/12/2021
456 202000 CARMEN LUCIA MARIZ DE MACEDO OFICIAL DO MP BELO HORIZONTE - COMARCA; DIRETORIA GESTAO COMPRAS LICITACOES 15.272,02 10.690,41 0,00 4.348,78 8.654,14 0,00 0,00 1.717,00 40.682,35 3.966,27 7.455,20 0,00 0,00 11.421,47 29.260,88 31/12/2021
457 701900 CAROLINA CARVALHO COSTA ASSESSOR PROCURADOR JUSTICA BELO HORIZONTE - COMARCA; GABINETE DE PROCURADOR DE JUSTIÇA - SALA 811 0,00 0,00 7.187,72 3.005,74 0,00 0,00 0,00 1.717,00 11.910,46 1.441,83 1.229,92 0,00 0,00 2.671,75 9.238,71 31/12/2021
458 228500 CAROLINA CHIARELLA DOS SANTOS RIBEIRO COORDENADOR/OFICIAL BELO HORIZONTE - COMARCA; DIVISAO TRANSPORTES 0,00 3.545,75 11.819,15 3.294,60 5.121,63 0,00 0,00 1.717,00 25.498,13 1.567,08 4.229,21 0,00 0,00 5.796,29 19.701,84 31/12/2021
459 446500 CAROLINA COSTA VAL RODRIGUES COORDENADOR/ANALISTA BELO HORIZONTE - COMARCA; SUPERINTENDENCIA LOGISTICA SERVICOS 13.011,52 2.602,30 2.363,83 5.282,83 5.992,55 0,00 0,00 1.717,00 30.970,03 2.310,49 5.087,06 0,00 0,00 7.397,55 23.572,48 31/12/2021
460 603501 CAROLINA DOMINGOS BRANDAO RABELLO ANALISTA DO MP BARROSO - COMARCA; BARROSO-PJ-01PJ 9.444,70 944,47 0,00 3.566,49 0,00 0,00 0,00 1.717,00 15.672,66 1.474,54 1.582,16 0,00 0,00 3.056,70 12.615,96 31/12/2021
461 404300 CAROLINA DOS SANTOS VIEIRA ANALISTA DO MP BELO HORIZONTE - COMARCA; BH-08PJ JUIZADO ESPECIAL-SECRETARIA 14.790,66 2.958,13 0,00 2.983,34 5.916,26 0,00 0,00 1.717,00 28.365,39 2.652,08 4.804,93 0,00 0,00 7.457,01 20.908,38 31/12/2021
462 551200 CAROLINA LOPES ARANTES MASCARENHAS ANALISTA DO MP BELO HORIZONTE - COMARCA; EXTINTA-COORD EST DEF DIR FAM PES DEFIC IDOSO 9.444,70 944,47 0,00 7.436,74 3.463,06 0,00 0,00 2.486,39 23.775,36 1.474,54 2.430,23 0,00 0,00 3.904,77 19.870,59 31/12/2021
463 622600 CAROLINA LOREDO LOPES CATIZANI OFICIAL DO MP RIBEIRÃO DAS NEVES - COMARCA; RIBEIRAO DAS NEVES-PJ-12PJ 5.387,19 538,72 0,00 1.826,62 1.975,30 0,00 0,00 1.717,00 11.444,83 762,96 1.093,66 0,00 0,00 1.856,62 9.588,21 31/12/2021
464 382200 CAROLINA MENDES CHAVES LIN ANALISTA DO MP BELO HORIZONTE - COMARCA; BH-12PJ JUIZO CRIMINAL-GAB 088PJ 10.069,62 2.013,92 0,00 2.374,70 0,00 0,00 0,00 2.486,39 16.944,63 1.745,64 1.921,43 0,00 0,00 3.667,07 13.277,56 31/12/2021
465 461900 CAROLINA MURTA TEIXEIRA DIAS ANALISTA DO MP BELO HORIZONTE - COMARCA; CENTRO AUTOCOMPOSICAO DE CONFLITOS 10.069,62 2.013,92 0,00 2.493,45 0,00 0,00 0,00 698,55 15.275,54 1.745,64 1.973,56 0,00 0,00 3.719,20 11.556,34 31/12/2021
466 509600 CAROLINA PINTO DE OLIVEIRA SOUZA ANALISTA DO MP MURIAÉ - COMARCA; MURIAE-PJ-01PJ 10.069,62 2.013,92 0,00 4.540,93 0,00 0,00 0,00 2.486,39 19.110,86 1.745,64 1.869,29 0,00 0,00 3.614,93 15.495,93 31/12/2021
467 629100 CAROLINA RODRIGUES AMARAL ANALISTA DO MP BELO HORIZONTE - COMARCA; PROC. JUSTICA DIR. DIFUSOS E COLETIVOS-SEC 9.146,93 914,69 0,00 2.406,93 0,00 0,00 0,00 1.717,00 14.185,55 1.422,14 1.506,50 0,00 0,00 2.928,64 11.256,91 31/12/2021
468 502600 CAROLINA RODRIGUES RUBEN ANALISTA DO MP BELO HORIZONTE - COMARCA; BH-18PJ VIOLENCIA DOMESTICA-GAB 007PJ 10.069,62 2.013,92 0,00 2.930,32 0,00 0,00 0,00 3.255,78 18.269,64 1.745,64 1.869,29 0,00 0,00 3.614,93 14.654,71 31/12/2021
469 529600 CAROLINA VAZ DE MELO MAMBRINI ANALISTA DO MP BELO HORIZONTE - COMARCA; BH-14PJ DEFESA CONSUMIDOR-GAB 005PJ 9.444,70 944,47 0,00 2.301,66 0,00 0,00 0,00 1.717,00 14.407,83 1.474,54 1.582,16 0,00 0,00 3.056,70 11.351,13 31/12/2021
470 619100 CAROLINA ZAKHIA NARDELLI RODRIGUES ANALISTA DO MP NEPOMUCENO - COMARCA; NEPOMUCENO-PJ-UNPJ 9.146,93 914,69 0,00 2.492,89 0,00 0,00 0,00 2.486,39 15.040,90 1.422,14 1.506,50 0,00 0,00 2.928,64 12.112,26 31/12/2021
471 517600 CAROLINE ALVES DE OLIVEIRA MULLER ANALISTA DO MP VISCONDE DO RIO BRANCO - COMARCA; VISCONDE DO RIO BRANCO-PJ-01PJ 10.069,62 1.006,96 0,00 2.264,94 3.692,19 0,00 0,00 1.717,00 18.750,71 1.584,53 2.704,17 0,00 0,00 4.288,70 14.462,01 31/12/2021
472 373200 CAROLINE ANTUNES RIBEIRO OFICIAL DO MP JACUI - COMARCA; JACUI-PJ-UNPJ 9.146,93 1.829,39 0,00 2.479,25 3.658,77 0,00 0,00 1.717,00 18.831,34 1.568,49 2.619,68 0,00 0,00 4.188,17 14.643,17 31/12/2021
473 556800 CAROLINE DE SOUZA CARDOSO DOMINGUES OFICIAL DO MP BRASÍLIA DE MINAS - COMARCA; BRASILIA DE MINAS-PJ-02PJ 6.123,79 612,38 0,00 1.845,87 0,00 0,00 0,00 1.717,00 10.299,04 890,06 738,32 0,00 0,00 1.628,38 8.670,66 31/12/2021
474 499400 CAROLINE MARQUES DE LOURDES MARZULLO OFICIAL DO MP JUIZ DE FORA - COMARCA; JUIZ DE FORA-PJ-08PJ 7.912,85 1.582,57 0,00 2.390,99 0,00 0,00 0,00 2.870,54 14.756,95 1.331,54 1.375,71 0,00 0,00 2.707,25 12.049,70 31/12/2021
475 616800 CAROLINE MONTEIRO DE BARROS ANALISTA DO MP CONTAGEM - COMARCA; CONTAGEM-PJ-11PJ 9.146,93 914,69 0,00 2.492,89 0,00 0,00 0,00 1.717,00 14.271,51 1.422,14 1.506,50 0,00 0,00 2.928,64 11.342,87 31/12/2021
476 618100 CAROLINE VASCONCELOS COSTA LANZA ANALISTA DO MP PARAOPEBA - COMARCA; PARAOPEBA-PJ-UNPJ 9.146,93 914,69 0,00 3.804,44 0,00 0,00 0,00 4.025,17 17.891,23 1.422,14 1.506,50 0,00 0,00 2.928,64 14.962,59 31/12/2021
477 699000 CAROLLINA RODRIGUES SOUTO AMARAL ASSESSOR PROCURADOR JUSTICA BELO HORIZONTE - COMARCA; GABINETE DE PROCURADOR DE JUSTIÇA - SALA 405 0,00 0,00 7.187,72 2.693,39 0,00 0,00 0,00 1.717,00 11.598,11 1.503,94 1.229,92 0,00 0,00 2.733,86 8.864,25 31/12/2021
478 604000 CASSIA APARECIDA DA SILVA OFICIAL DO MP PARACATU - COMARCA; PARACATU-PJ-01PJ 6.123,79 612,38 0,00 1.716,55 0,00 0,00 0,00 1.717,00 10.169,72 890,06 738,32 0,00 0,00 1.628,38 8.541,34 31/12/2021
479 268800 CASSIA BEATRIZ TEIXEIRA OFICIAL DO MP BELO HORIZONTE - COMARCA; PROC JUST ESP ACOES COMP ORIG CRIMINAL-SEC 13.011,52 3.903,46 0,00 2.791,06 0,00 0,00 0,00 1.717,00 21.423,04 2.518,67 3.089,63 0,00 0,00 5.608,30 15.814,74 31/12/2021
480 500000 CASSIA DE OLIVEIRA COSTA VIANA ANALISTA DO MP SETE LAGOAS - COMARCA; SETE LAGOAS-PJ-09PJ 10.069,62 5.034,81 0,00 10.204,05 0,00 0,00 0,00 1.717,00 27.025,48 2.228,99 2.671,39 0,00 0,00 4.900,38 22.125,10 31/12/2021
481 368800 CASSIA LUISA BATISTA MENDONCA WEBER OFICIAL DO MP BELO HORIZONTE - COMARCA; DIVISÃO DE EDUCAÇÃO PARA O CONSUMO 8.436,53 1.687,31 0,00 2.572,86 3.374,61 0,00 0,00 1.717,00 17.788,31 1.432,09 2.448,89 0,00 0,00 3.880,98 13.907,33 31/12/2021
482 622200 CASSIA VAZ DE AZEVEDO LISBOA MARZANO ASSESSOR BELO HORIZONTE - COMARCA; CGMP-SECRETARIA DA CORREGEDORIA-GERAL DO MP 0,00 0,00 3.076,28 1.514,37 1.025,43 0,00 0,00 2.486,39 8.102,47 736,24 327,15 0,00 0,00 1.063,39 7.039,08 31/12/2021
483 121000 CASSIO HENRIQUE AFONSO DA SILVA OFICIAL DO MP BELO HORIZONTE - COMARCA; CGMP-ASSESSORIA JURIDICA 18.820,14 13.174,10 0,00 4.597,10 10.664,75 0,00 0,00 1.717,00 48.973,09 4.931,36 9.401,46 0,00 0,00 14.332,82 34.640,27 31/12/2021
484 512001 CATARINA NATALINO CALIXTO COORDENADOR/ANALISTA BELO HORIZONTE - COMARCA; DIRETORIA GESTAO TRANSPORTES 0,00 1.343,52 13.435,16 3.254,16 0,00 0,00 0,00 1.717,00 19.749,84 1.422,14 2.803,69 0,00 0,00 4.225,83 15.524,01 31/12/2021
485 606200 CATARINE DE SIQUEIRA DE QUADROS ANALISTA DO MP CONTAGEM - COMARCA; CONTAGEM-PJ-07PJ 9.444,70 944,47 0,00 3.618,63 3.463,06 0,00 0,00 2.486,39 19.957,25 1.474,54 2.430,23 0,00 0,00 3.904,77 16.052,48 31/12/2021
486 622300 CECILIA APARECIDA PEREIRA ASSUNCAO OFICIAL DO MP TRÊS PONTAS - COMARCA; TRES PONTAS-PJ-SECRETARIA 5.930,75 593,08 0,00 2.001,88 0,00 0,00 0,00 2.512,04 11.037,75 856,09 637,13 0,00 0,00 1.493,22 9.544,53 31/12/2021
487 538000 CECILIA FONTES DE MATOS PIMENTEL ANALISTA DO MP PALMA - COMARCA; PALMA-PJ-UNPJ 9.444,70 944,47 0,00 2.301,66 3.463,06 0,00 0,00 2.486,39 18.640,28 1.474,54 2.534,50 0,00 0,00 4.009,04 14.631,24 31/12/2021
488 261300 CECILIO ANTONIO CAMPOS DOS REIS ANALISTA DO MP BELO HORIZONTE - COMARCA; AUDITORIA INTERNA 18.820,14 5.646,04 0,00 4.035,67 8.155,39 0,00 0,00 1.717,00 38.374,24 3.726,87 7.076,68 0,00 0,00 10.803,55 27.570,69 31/12/2021
489 386400 CEFAS AMORELI DE FIGUEIREDO OFICIAL DO MP CABO VERDE - COMARCA; CABO VERDE-PJ-SECRETARIA 6.123,79 1.224,76 0,00 1.806,44 0,00 0,00 0,00 1.717,00 10.871,99 988,05 879,78 0,00 0,00 1.867,83 9.004,16 31/12/2021
490 149000 CELIA MAGALHAES CLAROS SOSSI OFICIAL DO MP GOVERNADOR VALADARES - COMARCA; GAECO REGIONAL DE GOVERNADOR VALADARES 17.413,92 12.189,74 0,00 8.093,81 9.867,89 2.784,71 0,00 1.717,00 52.067,07 4.548,86 9.500,18 0,00 0,00 14.049,04 38.018,03 31/12/2021
491 421000 CELINA BENEDITA DE SOUZA ALMEIDA OFICIAL DO MP CAMBUÍ - COMARCA; CAMBUI-PJ-01PJ 8.858,43 4.429,21 0,00 2.715,44 4.429,21 0,00 0,00 1.717,00 22.149,29 1.938,30 3.417,60 0,00 0,00 5.355,90 16.793,39 31/12/2021
492 252900 CELIO DE MELO CASTOR ANALISTA DO MP BELO HORIZONTE - COMARCA; SUPER DE GESTAO DE PESSOAS-LOTACAO TEMPORARIA 18.820,14 5.646,04 0,00 4.035,67 0,00 0,00 0,00 1.717,00 30.218,85 3.726,87 4.833,95 0,00 0,00 8.560,82 21.658,03 31/12/2021
493 395700 CELIO FERREIRA LIMA OFICIAL DO MP CONTAGEM - COMARCA; CONTAGEM-PJ-SECRETARIA 9.444,70 1.888,94 0,00 2.179,75 0,00 0,00 0,00 1.717,00 15.230,39 1.625,66 1.748,20 0,00 0,00 3.373,86 11.856,53 31/12/2021
494 281300 CELMA REGINA PEREIRA SANTOS ANALISTA DO MP BELO HORIZONTE - COMARCA; PROMOT ESTADUAL DE DEF PATRI CULT E TUR DE MG 18.820,14 5.646,04 0,00 3.672,27 0,00 0,00 0,00 1.717,00 29.855,45 3.726,87 4.833,95 0,00 0,00 8.560,82 21.294,63 31/12/2021
495 535600 CELSO MEDEIROS DE PAIVA OFICIAL DO MP RIO PRETO - COMARCA; RIO PRETO-PJ-SECRETARIA 5.562,64 556,26 0,00 1.819,90 0,00 0,00 0,00 1.717,00 9.655,80 792,88 543,16 0,00 0,00 1.336,04 8.319,76 31/12/2021
496 367000 CESAR NARVAES DE AVELAR OFICIAL DO MP BELO HORIZONTE - COMARCA; DIVISAO DE MEMORIA INSTITUCIONAL 10.069,62 3.020,89 0,00 5.061,22 4.363,50 0,00 0,00 1.717,00 24.232,23 1.906,76 3.406,13 0,00 0,00 5.312,89 18.919,34 31/12/2021
497 226500 CESAR SILVEIRA BARROUIN OFICIAL DO MP BELO HORIZONTE - COMARCA; DIRETORIA DE ADMINISTRACAO FINANCEIRA 13.011,52 5.204,61 0,00 3.278,17 6.072,04 0,00 0,00 1.717,00 29.283,34 2.726,86 5.060,00 0,00 0,00 7.786,86 21.496,48 31/12/2021
498 121400 CEZAR MORENO CONCEICAO TAVARES OFICIAL DO MP BELO HORIZONTE - COMARCA; COORD DE INCLUSAO E MOBILIZACAO SOCIAIS 17.413,92 12.189,74 0,00 4.213,65 9.867,89 0,00 0,00 2.486,39 46.171,59 4.548,86 8.630,11 0,00 0,00 13.178,97 32.992,62 31/12/2021
499 243800 CHARLES MARTINS MUNIZ OFICIAL DO MP BELO HORIZONTE - COMARCA; LAB TECNOLOGIA CONTRA LAVAGEM DINHEIRO 13.011,52 5.204,61 0,00 3.278,17 0,00 0,00 0,00 1.198,00 22.692,30 2.726,86 3.390,19 0,00 0,00 6.117,05 16.575,25 31/12/2021
500 193500 CHARLIN CESAR KOURLY OFICIAL DO MP ARAGUARI - COMARCA; ARAGUARI-PJ-07PJ 16.750,82 6.700,33 0,00 3.335,96 7.817,05 0,00 0,00 1.717,00 36.321,16 3.564,46 6.749,17 0,00 0,00 10.313,63 26.007,53 31/12/2021
501 385500 CHILLEN PEIXOTO DE MOURA OFICIAL DO MP BELO HORIZONTE - COMARCA; DIVISAO DE MATERIAIS 9.444,70 1.888,94 0,00 3.637,54 3.777,88 0,00 0,00 2.486,39 21.235,45 1.625,66 2.839,25 0,00 0,00 4.464,91 16.770,54 31/12/2021
502 534500 CHRISTIAN DOUGLAS BRITO RUAS OFICIAL DO MP SÃO JOÃO DA PONTE - COMARCA; SAO JOAO DA PONTE-PJ-SECRETARIA 6.123,79 612,38 0,00 2.618,56 0,00 0,00 0,00 1.717,00 11.071,73 890,06 738,32 0,00 0,00 1.628,38 9.443,35 31/12/2021
503 370600 CHRISTIAN KARINE FELIX PRATES ASSESSOR BELO HORIZONTE - COMARCA; SUPRIN DE PLANEJAMENTO E COORDENACAO 0,00 0,00 10.397,52 3.415,59 0,00 0,00 0,00 1.717,00 15.530,11 1.503,94 2.112,62 0,00 0,00 3.616,56 11.913,55 31/12/2021
504 435800 CHRISTIANA BAHIA ANDRADE PINA ANALISTA DO MP BELO HORIZONTE - COMARCA; LABORATORIO TECNOLOGIA INTELIGENCIA 14.324,23 2.864,85 0,00 2.707,36 0,00 0,00 0,00 2.486,39 22.382,83 2.562,53 3.152,94 0,00 0,00 5.715,47 16.667,36 31/12/2021
505 516800 CHRISTIANE FERREIRA DO NASCIMENTO ANALISTA DO MP POUSO ALEGRE - COMARCA; POUSO ALEGRE-PJ-08PJ 10.069,62 1.006,96 0,00 3.875,56 0,00 0,00 0,00 1.717,00 16.669,14 1.584,53 1.740,95 0,00 0,00 3.325,48 13.343,66 31/12/2021
506 176000 CHRISTIANE JUNQUEIRA PULITI ANDRADE DE BARROS ASSESSOR BELO HORIZONTE - COMARCA; PROCURADORIA-GERAL ADJUNTA INSTITUCIONAL 0,00 13.931,13 17.413,92 11.502,87 0,00 4.827,49 0,00 1.717,00 49.392,41 4.827,49 7.750,53 0,00 0,00 12.578,02 36.814,39 31/12/2021
507 319200 CHRISTIANE MARIA DE ASSIS RUSSO OFICIAL DO MP BELO HORIZONTE - COMARCA; CAO-ORDEM ECONOMICA E TRIBUTARIA-SECRETARIA 12.204,02 3.661,21 0,00 9.834,04 0,00 0,00 0,00 2.486,39 28.185,66 2.350,71 2.795,00 0,00 0,00 5.145,71 23.039,95 31/12/2021
508 510300 CHRISTIANE MARY DE CARVALHO FERREIRA ANALISTA DO MP BELO HORIZONTE - COMARCA; DIRETORIA DE SISTEMAS DE INFORMACAO 10.069,62 2.013,92 0,00 2.878,18 0,00 0,00 0,00 1.717,00 16.678,72 1.745,64 1.921,43 0,00 0,00 3.667,07 13.011,65 31/12/2021
509 424900 CHRISTIANE PEREIRA TURNER DE ARAUJO OFICIAL DO MP BELO HORIZONTE - COMARCA; CAO-PATRIMONIO PUBLICO 8.858,43 1.771,69 0,00 2.231,88 0,00 0,00 0,00 2.486,39 15.348,39 1.513,10 1.533,55 0,00 0,00 3.046,65 12.301,74 31/12/2021
510 513700 CHRISTIANE VIEIRA SOARES PEDERSOLI COORDENADOR/ANALISTA BELO HORIZONTE - COMARCA; ASSESSORIA JURIDICA DO PROCON-MG 10.069,62 2.013,92 2.363,83 4.176,27 0,00 0,00 684,72 1.717,00 21.025,36 1.745,64 2.623,62 0,00 0,00 4.369,26 16.656,10 31/12/2021
511 412300 CHRYSTIAN MACHADO RIBEIRO ANALISTA DO MP VARGINHA - COMARCA; VARGINHA-PJ-04PJ 14.324,23 2.864,85 0,00 6.216,48 5.729,69 0,00 0,00 1.717,00 30.852,25 2.562,53 4.728,61 0,00 0,00 7.291,14 23.561,11 31/12/2021
512 513800 CHRYSTIANE DO NASCIMENTO DE MAGALHAES OFICIAL DO MP UBERLÂNDIA - COMARCA; UBERLANDIA-PJ-10PJ 7.663,37 1.532,67 0,00 2.927,78 0,00 0,00 521,10 1.717,00 14.361,92 1.283,64 1.202,28 0,00 0,00 2.485,92 11.876,00 31/12/2021
513 497900 CIBELE DE FREITAS SANCHES DIAS ANALISTA DO MP SABARÁ - COMARCA; SABARA-PJ-03PJ 10.069,62 2.013,92 0,00 4.514,86 4.027,85 0,00 0,00 1.717,00 22.343,25 1.745,64 3.029,08 0,00 0,00 4.774,72 17.568,53 31/12/2021
514 500900 CIBELLE SILVA PRADO ALVARENGA ANALISTA DO MP ITANHANDU - COMARCA; ITANHANDU-PJ-UNPJ 10.069,62 2.013,92 0,00 8.364,34 4.027,85 0,00 0,00 3.255,78 27.731,51 1.745,64 3.081,22 0,00 0,00 4.826,86 22.904,65 31/12/2021
515 705300 CICERO HELENO PEREIRA SILVA ASSESSOR PROMOTOR JUSTICA CORINTO - COMARCA; CORINTO-PJ-UNPJ 0,00 0,00 7.187,72 3.385,22 0,00 0,00 0,00 1.717,00 12.289,94 1.190,26 1.229,92 0,00 0,00 2.420,18 9.869,76 31/12/2021
516 296400 CINTIA APARECIDA MOREIRA NAVES E RODRIGUES ANALISTA DO MP CAMPO BELO - COMARCA; CAMPO BELO-PJ-01PJ 18.103,37 5.431,01 0,00 3.920,25 7.844,79 0,00 0,00 1.717,00 37.016,42 3.577,78 6.776,02 0,00 0,00 10.353,80 26.662,62 31/12/2021
517 407900 CINTIA NETO COMELLI ANALISTA DO MP BELO HORIZONTE - COMARCA; CENTRAL DE APOIO TECNICO-SETOR CONTABIL 14.324,23 2.864,85 0,00 3.718,84 0,00 0,00 0,00 1.717,00 22.624,92 2.562,53 3.100,80 0,00 0,00 5.663,33 16.961,59 31/12/2021
518 304700 CINTIA QUEIROZ OFICIAL DO MP BELO HORIZONTE - COMARCA; OUVIDORIA DO MPMG 10.069,62 3.020,89 0,00 2.432,32 4.363,50 0,00 0,00 1.717,00 21.603,33 1.906,76 3.406,13 0,00 0,00 5.312,89 16.290,44 31/12/2021
519 286100 CIRO CANGUSSU CORDEIRO OFICIAL DO MP IPATINGA - COMARCA; IPATINGA-PJ-09PJ 7.912,85 2.373,86 0,00 2.195,63 0,00 0,00 0,00 1.717,00 14.199,34 1.458,15 1.454,22 0,00 0,00 2.912,37 11.286,97 31/12/2021
520 689900 CISSA NOGUEIRA NUNES ASSESSOR PROCURADOR JUSTICA BELO HORIZONTE - COMARCA; GABINETE DE PROCURADOR DE JUSTIÇA - SALA 608 0,00 0,00 7.187,72 6.287,25 2.395,91 0,00 0,00 1.717,00 17.587,88 1.503,94 1.888,80 0,00 0,00 3.392,74 14.195,14 31/12/2021
521 681700 CLARA FERREIRA ALKIMIM ASSESSOR PROMOTOR JUSTICA PEDRA AZUL - COMARCA; PEDRA AZUL-PJ-02PJ 0,00 0,00 7.187,72 2.693,39 0,00 0,00 0,00 1.717,00 11.598,11 1.503,94 1.229,92 0,00 0,00 2.733,86 8.864,25 31/12/2021
522 695500 CLARA RODRIGUES BLACH ASSESSOR PROCURADOR JUSTICA BELO HORIZONTE - COMARCA; GABINETE DE PROCURADOR DE JUSTIÇA - SALA 1003 0,00 0,00 7.187,72 3.519,63 0,00 0,00 0,00 1.717,00 12.424,35 1.503,94 1.229,92 0,00 0,00 2.733,86 9.690,49 31/12/2021
523 412500 CLARICE GOMES MAROTTA ANALISTA DO MP BELO HORIZONTE - COMARCA; COORD ESTADUAL DE DEFESA DOS ANIMAIS 14.324,23 4.297,27 0,00 2.849,19 12.414,34 0,00 0,00 1.717,00 35.602,03 2.791,72 6.897,77 0,00 0,00 9.689,49 25.912,54 31/12/2021
524 605300 CLARISSA AZEVEDO ROCHA OFICIAL DO MP BELO HORIZONTE - COMARCA; BH-17PJ PATRIMONIO PUBLICO-SECRETARIA 6.123,79 612,38 0,00 1.716,55 0,00 0,00 0,00 1.717,00 10.169,72 890,06 738,32 0,00 0,00 1.628,38 8.541,34 31/12/2021
525 308100 CLARISSA DUARTE BELLONI DIRETOR/ANALISTA BELO HORIZONTE - COMARCA; DIRETORIA-GERAL 0,00 7.409,35 24.697,83 5.505,27 10.702,39 0,00 0,00 4.024,08 52.338,92 3.577,78 9.308,58 0,00 1.841,91 14.728,27 37.610,65 31/12/2021
526 497100 CLARISSA ROCHA GUIDI ANALISTA DO MP BELO HORIZONTE - COMARCA; BH-02PJ FAMILIA-SECRETARIA 11.085,56 2.217,11 0,00 3.254,08 0,00 0,00 0,00 3.255,78 19.812,53 1.940,70 2.203,04 0,00 0,00 4.143,74 15.668,79 31/12/2021
527 641800 CLARISSE TAVARES GONCALVES OFICIAL DO MP BELO HORIZONTE - COMARCA; BH-07PJ 01 TRIBUNAL JURI-SECRETARIA 5.387,19 538,72 0,00 1.742,96 0,00 0,00 0,00 1.717,00 9.385,87 783,51 550,45 0,00 0,00 1.333,96 8.051,91 31/12/2021
528 463700 CLAUDIA ADRIANA FERRAO DIAS ANALISTA DO MP SETE LAGOAS - COMARCA; SETE LAGOAS-PJ-06PJ 10.069,62 2.013,92 0,00 8.364,34 0,00 0,00 0,00 1.717,00 22.164,88 1.745,64 1.973,56 0,00 0,00 3.719,20 18.445,68 31/12/2021
529 415400 CLAUDIA ALMEIDA DE VASCONCELLOS BARROS ASSESSOR/OFICIAL BELO HORIZONTE - COMARCA; DIVISAO DE SERVICOS 0,00 2.079,50 10.397,52 2.453,40 4.159,01 0,00 0,00 1.717,00 20.806,43 -139,02 3.743,78 0,00 0,00 3.604,76 17.201,67 31/12/2021
530 207000 CLAUDIA APARECIDA VILELA MACHADO ANALISTA DO MP BELO HORIZONTE - COMARCA; CENTRAL DE APOIO TECNICO-SETOR CONTABIL 18.820,14 7.528,06 0,00 4.033,82 0,00 0,00 0,00 1.717,00 32.099,02 4.027,99 5.112,29 0,00 0,00 9.140,28 22.958,74 31/12/2021
531 365700 CLAUDIA BREGUEZ CUNHA ANALISTA DO MP VARGINHA - COMARCA; VARGINHA-PJ-07PJ 15.272,02 4.581,61 0,00 4.819,05 0,00 0,00 1.038,48 1.717,00 27.428,16 2.988,86 3.768,45 0,00 0,00 6.757,31 20.670,85 31/12/2021
532 430500 CLAUDIA CECILIA SANTANA VENCESLAU OFICIAL DO MP BELO HORIZONTE - COMARCA; DIRETORIA DE INTELIGENCIA 8.858,43 1.771,69 0,00 2.179,75 0,00 0,00 0,00 1.717,00 14.526,87 1.513,10 1.585,68 0,00 0,00 3.098,78 11.428,09 31/12/2021
533 480400 CLAUDIA GOULART DE SOUZA OFICIAL DO MP PASSOS - COMARCA; PASSOS-PJ-06PJ 7.912,85 1.582,57 0,00 2.190,15 3.165,14 0,00 0,00 1.717,00 16.567,71 1.331,54 2.246,12 0,00 0,00 3.577,66 12.990,05 31/12/2021
534 519800 CLAUDIA HELENA CORREA DE ALMEIDA ANALISTA DO MP BELO HORIZONTE - COMARCA; BH-12PJ JUIZO CRIMINAL-GAB 096PJ 10.069,62 1.006,96 0,00 3.875,56 0,00 0,00 0,00 1.717,00 16.669,14 1.584,53 1.740,95 0,00 0,00 3.325,48 13.343,66 31/12/2021
535 422100 CLAUDIA IACOMINI CABRAL ANALISTA DO MP BELO HORIZONTE - COMARCA; CENT DE APOIO TEC-SETOR DEF,IDOSO E INFANC 14.324,23 10.026,96 0,00 3.416,49 0,00 0,00 0,00 1.717,00 29.484,68 3.708,47 4.807,39 0,00 0,00 8.515,86 20.968,82 31/12/2021
536 258200 CLAUDIA LAGE MICHALAROS ANALISTA DO MP BELO HORIZONTE - COMARCA; CENTRAL DE APOIO TECN-SETOR DE MEIO AMBIENTE 18.820,14 13.174,10 0,00 12.500,37 10.664,75 7.425,69 0,00 1.717,00 64.302,05 4.931,36 10.809,73 0,00 0,00 15.741,09 48.560,96 31/12/2021
537 284600 CLAUDIA LENI DE FREITAS OFICIAL DO MP CONTAGEM - COMARCA; CONTAGEM-PJ-SECRETARIA 6.123,79 2.449,52 0,00 1.939,94 0,00 0,00 0,00 1.717,00 12.230,25 1.184,01 1.162,70 0,00 0,00 2.346,71 9.883,54 31/12/2021
538 433600 CLAUDIA LUIZA SANTIAGO FELICIO ANALISTA DO MP BELO HORIZONTE - COMARCA; CENT DE APOIO TEC-SETOR DEF,IDOSO E INFANC 14.324,23 2.864,85 0,00 10.618,55 0,00 0,00 0,00 1.717,00 29.524,63 2.562,53 3.048,67 0,00 0,00 5.611,20 23.913,43 31/12/2021
539 317000 CLAUDIA MACHADO ALVES ASSESSOR/OFICIAL BELO HORIZONTE - COMARCA; DIR GOVERNANCA TECNOLOGIA INFORMACAO 0,00 3.119,26 10.397,52 2.753,01 4.505,59 0,00 0,00 1.717,00 22.492,38 1.654,83 3.631,71 0,00 0,00 5.286,54 17.205,84 31/12/2021
540 155300 CLAUDIA MACIEL MIRANDA OFICIAL DO MP CONGONHAS - COMARCA; CONGONHAS-PJ-02PJ 17.413,92 8.706,96 0,00 8.205,81 8.706,96 0,00 0,00 1.717,00 44.750,65 3.991,62 7.506,33 0,00 0,00 11.497,95 33.252,70 31/12/2021
541 242200 CLAUDIA MICHELLE DIAS MUNIZ BALEEIRO OFICIAL DO MP MONTE AZUL - COMARCA; MONTE AZUL-PJ-SECRETARIA 13.011,52 5.204,61 0,00 2.980,55 0,00 0,00 0,00 1.717,00 22.913,68 2.726,86 3.338,05 0,00 0,00 6.064,91 16.848,77 31/12/2021
542 623000 CLAUDIA PATRICIA SILVA RODRIGUES RAPOSEIRAS OFICIAL DO MP PARÁ DE MINAS - COMARCA; PARA DE MINAS-PJ-02PJ 5.930,75 593,08 0,00 2.001,88 0,00 0,00 0,00 2.486,39 11.012,10 856,09 637,13 0,00 0,00 1.493,22 9.518,88 31/12/2021
543 418400 CLAUDIA REGINA MARTINS BONIFACIO OFICIAL DO MP ITUIUTABA - COMARCA; ITUIUTABA-PJ-06PJ 8.858,43 1.771,69 0,00 2.436,01 0,00 0,00 0,00 1.717,00 14.783,13 1.513,10 1.533,55 0,00 0,00 3.046,65 11.736,48 31/12/2021
544 498300 CLAUDIA SOUTO FARIAS BRAUN OFICIAL DO MP TEÓFILO OTONI - COMARCA; TEOFILO OTONI-PJ-SECRETARIA 6.123,79 1.224,76 0,00 2.978,97 2.449,52 0,00 0,00 1.717,00 14.494,04 988,05 1.449,12 0,00 0,00 2.437,17 12.056,87 31/12/2021
545 206500 CLAUDIA VALERIA FONSECA ANDRADE ANALISTA DO MP BELO HORIZONTE - COMARCA; BH-23PJ INF-FISC MED SOC FEC 18.820,14 9.410,07 0,00 7.221,15 0,00 4.329,11 0,00 1.717,00 41.497,47 4.329,11 6.893,95 0,00 0,00 11.223,06 30.274,41 31/12/2021
546 277500 CLAUDIO ANTONIO BORGES BRUNSWICK ALVARES OFICIAL DO MP BELO HORIZONTE - COMARCA; BH-15PJ M AMB 16PJ HAB URB-SECRETARIA 10.069,62 3.020,89 0,00 2.432,32 0,00 0,00 0,00 1.717,00 17.239,83 1.906,76 2.206,17 0,00 0,00 4.112,93 13.126,90 31/12/2021
547 444800 CLAUDIO ARESIO DO CARMO ANALISTA DO MP SETE LAGOAS - COMARCA; SETE LAGOAS-PJ-01PJ 11.085,56 4.434,22 0,00 3.162,44 5.173,26 0,00 0,00 1.717,00 25.572,48 2.295,44 4.137,84 0,00 0,00 6.433,28 19.139,20 31/12/2021
548 545100 CLAUDIO HENRIQUE MACEDO DE SOUZA FRANSOZO ANALISTA DO MP OURO PRETO - COMARCA; OURO PRETO-PJ-03PJ 9.444,70 944,47 0,00 7.332,47 0,00 0,00 0,00 2.486,39 20.208,03 1.474,54 1.582,16 0,00 0,00 3.056,70 17.151,33 31/12/2021
549 353500 CLAUDIO HENRIQUE PEDRO DA ROCHA OFICIAL DO MP BELO HORIZONTE - COMARCA; DIVISAO TRANSPORTES 10.069,62 3.020,89 0,00 2.979,21 0,00 0,00 0,00 1.717,00 17.786,72 1.906,76 2.101,90 0,00 0,00 4.008,66 13.778,06 31/12/2021
550 265800 CLAUDIO KUPIDLOWSKY FERNANDES OFICIAL DO MP BELO HORIZONTE - COMARCA; SECRETARIA DO PROCON-MG 10.069,62 3.020,89 0,00 3.229,41 0,00 0,00 0,00 1.717,00 18.036,92 1.906,76 1.409,08 0,00 0,00 3.315,84 14.721,08 31/12/2021
551 193600 CLAUDIO LEITE FONTES OFICIAL DO MP ITUIUTABA - COMARCA; ITUIUTABA-PJ-02PJ 10.069,62 4.027,85 0,00 2.401,28 0,00 0,00 0,00 1.717,00 18.215,75 2.067,87 2.136,28 0,00 0,00 4.204,15 14.011,60 31/12/2021
552 329400 CLAUDIO MARCIO BERNARDES OFICIAL DO MP ITAÚNA - COMARCA; ITAUNA-PJ-03PJ 10.069,62 7.048,73 0,00 5.741,34 5.706,12 0,00 0,00 1.717,00 30.282,81 2.551,21 4.653,65 0,00 0,00 7.204,86 23.077,95 31/12/2021
553 270200 CLAUDIO RABELO ALVES OFICIAL DO MP FORMIGA - COMARCA; FORMIGA-PJ-03PJ 11.085,56 3.325,67 0,00 3.012,00 0,00 0,00 0,00 1.751,02 19.174,25 2.118,07 2.302,71 0,00 0,00 4.420,78 14.753,47 31/12/2021
554 264700 CLAUDIO ROBERTO KFURI DE ARAUJO ANALISTA DO MP BELO HORIZONTE - COMARCA; CENTRAL DE APOIO TECNICO-SETOR DE INFORMATICA 18.820,14 5.646,04 0,00 4.139,94 0,00 0,00 0,00 1.717,00 30.323,12 3.726,87 4.729,68 0,00 0,00 8.456,55 21.866,57 31/12/2021
555 188600 CLAUDIO SALES OFICIAL DO MP NEPOMUCENO - COMARCA; NEPOMUCENO-PJ-SECRETARIA 15.272,02 12.217,62 0,00 3.907,38 9.163,21 0,00 0,00 1.717,00 42.277,23 4.210,62 8.052,25 0,00 0,00 12.262,87 30.014,36 31/12/2021
556 543300 CLAUDIO SILVA DE CARVALHO ANALISTA DO MP CAMPO BELO - COMARCA; CAMPO BELO-PJ-03PJ 8.579,10 857,91 0,00 2.164,64 3.145,67 0,00 0,00 1.717,00 16.464,32 1.322,20 2.175,13 0,00 0,00 3.497,33 12.966,99 31/12/2021
557 160700 CLAUDIO VICENTE HESS ASSESSOR BELO HORIZONTE - COMARCA; CENTRAL DE APOIO TECNICO-SETOR DE INFORMATICA 0,00 6.717,58 13.435,16 5.714,79 0,00 0,00 0,00 1.717,00 27.584,53 1.503,94 4.691,03 0,00 0,00 6.194,97 21.389,56 31/12/2021
558 312900 CLAUDIO VIEIRA FIRPE OFICIAL DO MP BELO HORIZONTE - COMARCA; DIR RELACOES INSTITUCIONAIS 10.069,62 3.020,89 0,00 2.432,32 4.363,50 0,00 0,00 1.717,00 21.603,33 1.906,76 3.406,13 0,00 0,00 5.312,89 16.290,44 31/12/2021
559 634100 CLEA CRISTINA GUERRA DE FREITAS COSTA OFICIAL DO MP BELO HORIZONTE - COMARCA; BH-18PJ VIOLENCIA DOMESTICA-SECRETARIA 5.387,19 538,72 0,00 4.664,64 0,00 0,00 0,00 2.486,39 13.076,94 762,96 498,31 0,00 0,00 1.261,27 11.815,67 31/12/2021
560 459200 CLEIA ZILLE PEREIRA ANALISTA DO MP BELO HORIZONTE - COMARCA; BH-07PJ 01 TRIBUNAL JURI-SECRETARIA 10.069,62 2.013,92 0,00 2.322,57 4.027,85 0,00 0,00 1.717,00 20.150,96 1.745,64 3.081,22 0,00 0,00 4.826,86 15.324,10 31/12/2021
561 481800 CLEIDE CARDOSO DA SILVA ANALISTA DO MP MANHUAÇU - COMARCA; MANHUACU-PJ-04PJ 10.069,62 2.013,92 0,00 2.426,84 4.027,85 0,00 0,00 1.717,00 20.255,23 1.745,64 2.976,95 0,00 0,00 4.722,59 15.532,64 31/12/2021
562 347600 CLEIDIMAR DE OLIVEIRA SILVA OFICIAL DO MP PATOS DE MINAS - COMARCA; PATOS DE MINAS-PJ-03PJ 9.752,14 2.925,64 0,00 2.552,32 4.225,93 0,00 0,00 1.717,00 21.173,03 1.840,72 3.064,41 0,00 0,00 4.905,13 16.267,90 31/12/2021
563 396500 CLEIDISON BATISTA DE ANDRADE OFICIAL DO MP RESPLENDOR - COMARCA; RESPLENDOR-PJ-UNPJ 8.858,43 1.771,69 0,00 2.178,43 0,00 0,00 0,00 1.717,00 14.525,55 1.513,10 1.533,55 0,00 0,00 3.046,65 11.478,90 31/12/2021
564 535100 CLEISON ALVES DA SILVA ANALISTA DO MP BOA ESPERANÇA - COMARCA; BOA ESPERANCA-PJ-01PJ 9.444,70 944,47 0,00 2.405,93 3.463,06 0,00 0,00 1.717,00 17.975,16 1.474,54 2.430,23 0,00 0,00 3.904,77 14.070,39 31/12/2021
565 298100 CLEONICE AUGUSTA BARROS DE OLIVEIRA ANALISTA DO MP JUIZ DE FORA - COMARCA; JUIZ DE FORA-PJ-08PJ 18.820,14 5.646,04 0,00 3.672,27 0,00 0,00 0,00 1.717,00 29.855,45 3.726,87 4.833,95 0,00 0,00 8.560,82 21.294,63 31/12/2021
566 264100 CLETO HENRIQUE ANDRADE SILVA ANALISTA DO MP BELO HORIZONTE - COMARCA; DIRETORIA DE SISTEMAS DE INFORMACAO 18.820,14 5.646,04 0,00 4.139,94 0,00 0,00 0,00 1.717,00 30.323,12 3.726,87 4.729,68 0,00 0,00 8.456,55 21.866,57 31/12/2021
567 334400 CLEUBA DE OLIVEIRA BARCELOS GONCALVES OFICIAL DO MP DIVINÓPOLIS - COMARCA; COORD REG SAUDE MACRORREGIAO SANITARIA OESTE 10.069,62 3.020,89 0,00 4.488,79 4.363,50 0,00 0,00 1.717,00 23.659,80 1.906,76 3.354,00 0,00 0,00 5.260,76 18.399,04 31/12/2021
568 347500 CLEUSA CORDEIRO DA MATA PIMENTA OFICIAL DO MP CAMPO BELO - COMARCA; CAMPO BELO-PJ-01PJ 10.069,62 8.055,69 0,00 5.051,82 6.041,77 2.712,33 0,00 1.717,00 33.648,23 2.712,33 5.672,31 0,00 0,00 8.384,64 25.263,59 31/12/2021
569 510200 CLEZIO SALES SILVA OFICIAL DO MP BRASÓPOLIS - COMARCA; BRASOPOLIS-PJ-UNPJ 6.123,79 1.224,76 0,00 2.926,82 2.449,52 0,00 0,00 3.255,78 15.980,67 988,05 1.553,40 0,00 0,00 2.541,45 13.439,22 31/12/2021
570 323000 CLOTILDE DE PADUA VIEIRA OFICIAL DO MP BELO HORIZONTE - COMARCA; BH-19PJ SAUDE-SECRETARIA 129PJ 7.663,37 2.299,01 0,00 2.057,12 0,00 0,00 0,00 1.717,00 13.736,50 1.406,26 1.483,57 0,00 0,00 2.889,83 10.846,67 31/12/2021
571 285200 CLOVIS ANDRE LUDTKE OFICIAL DO MP BELO HORIZONTE - COMARCA; DIVISAO DE MANUTENCAO PREDIAL 10.069,62 3.020,89 0,00 2.432,32 4.363,50 0,00 0,00 1.717,00 21.603,33 1.906,76 3.406,13 0,00 0,00 5.312,89 16.290,44 31/12/2021
572 381100 CONCEICAO APARECIDA TEIXEIRA ARANTES ANALISTA DO MP BELO HORIZONTE - COMARCA; BH-23PJ INFRACIONAL-ASS JURIDICA 14.324,23 2.864,85 0,00 3.202,19 0,00 0,00 1.830,99 2.404,56 24.626,82 2.845,40 3.509,20 0,00 0,00 6.354,60 18.272,22 31/12/2021
573 249900 CONSTANTINO CEZAR GOMES MOTA OFICIAL DO MP MONTES CLAROS - COMARCA; COORD REG BACIA RIOS VERDE GRANDE E PARDO 10.069,62 3.020,89 0,00 2.448,05 4.363,50 0,00 0,00 3.255,78 23.157,84 1.906,76 3.301,86 0,00 0,00 5.208,62 17.949,22 31/12/2021
574 481000 CRISHMA ANALIA LOMBELLO ANALISTA DO MP JUIZ DE FORA - COMARCA; JUIZ DE FORA-PJ-13PJ 10.069,62 2.013,92 0,00 2.374,70 0,00 0,00 0,00 1.717,00 16.175,24 1.745,64 1.921,43 0,00 0,00 3.667,07 12.508,17 31/12/2021
575 523900 CRISTHYANE BAZOLI COSTA GUEDES COUTO OFICIAL DO MP BELO HORIZONTE - COMARCA; BH-04PJ JUIZO REG PÚBLICOS-SECRETARIA 7.663,37 766,34 0,00 1.895,33 2.809,90 0,00 0,00 1.717,00 14.851,94 1.161,03 1.902,25 0,00 0,00 3.063,28 11.788,66 31/12/2021
576 187000 CRISTIAN DAYVSON EVANGELISTA OFICIAL DO MP JUIZ DE FORA - COMARCA; JUIZ DE FORA-PJ-13PJ 15.272,02 6.108,81 0,00 6.834,06 7.126,94 0,00 0,00 1.717,00 37.058,83 3.233,21 6.029,01 0,00 0,00 9.262,22 27.796,61 31/12/2021
577 682100 CRISTIAN TRISTAO DE ANDRADE ASSESSOR PROMOTOR JUSTICA TRÊS CORACOES - COMARCA; TRES CORACOES-PJ-04PJ 0,00 0,00 7.187,72 6.287,25 0,00 0,00 0,00 1.717,00 15.191,97 1.503,94 1.229,92 0,00 0,00 2.733,86 12.458,11 31/12/2021
578 319800 CRISTIANA GONCALVES DOS SANTOS GUSMAO OFICIAL DO MP PARAOPEBA - COMARCA; PARAOPEBA-PJ-UNPJ 10.069,62 3.020,89 0,00 2.432,32 0,00 0,00 0,00 1.717,00 17.239,83 1.906,76 2.206,17 0,00 0,00 4.112,93 13.126,90 31/12/2021
579 520600 CRISTIANA JANAINA BARBOZA JUVENCIO DOS SANTOS ANALISTA DO MP BELO HORIZONTE - COMARCA; BH-02PJ FAMILIA-SECRETARIA 10.069,62 1.006,96 0,00 2.212,81 3.692,19 0,00 0,00 1.717,00 18.698,58 1.584,53 2.756,31 0,00 0,00 4.340,84 14.357,74 31/12/2021
580 195600 CRISTIANA SOARES HALABI OFICIAL DO MP UBERABA - COMARCA; UBERABA-PJ-01PJ 16.112,82 6.445,13 0,00 3.370,64 0,00 0,00 0,00 1.717,00 27.645,59 3.421,55 4.393,15 0,00 0,00 7.814,70 19.830,89 31/12/2021
581 218900 CRISTIANE ALVES BELLES OFICIAL DO MP JUIZ DE FORA - COMARCA; JUIZ DE FORA-PJ-10PJ 6.123,79 1.837,14 0,00 1.977,47 2.653,64 0,00 0,00 2.870,54 15.462,58 1.086,03 1.646,71 0,00 0,00 2.732,74 12.729,84 31/12/2021
582 263600 CRISTIANE CARVALHO COUTINHO OFICIAL DO MP BELO HORIZONTE - COMARCA; BH-23PJ INFRACIONAL-SEC EXP 10.069,62 3.020,89 0,00 2.484,46 4.363,50 0,00 0,00 1.717,00 21.655,47 1.906,76 3.354,00 0,00 0,00 5.260,76 16.394,71 31/12/2021
583 541000 CRISTIANE COELHO ALVES OFICIAL DO MP ITABIRA - COMARCA; ITABIRA-PJ-03PJ 5.562,64 556,26 0,00 1.819,90 0,00 0,00 0,00 1.717,00 9.655,80 792,88 543,16 0,00 0,00 1.336,04 8.319,76 31/12/2021
584 441700 CRISTIANE CORRADO DE ANDRADE ANALISTA DO MP BELO HORIZONTE - COMARCA; DIRETORIA DE SISTEMAS DE INFORMACAO 14.324,23 2.864,85 0,00 2.707,36 0,00 0,00 0,00 1.717,00 21.613,44 2.562,53 3.152,94 0,00 0,00 5.715,47 15.897,97 31/12/2021
585 375100 CRISTIANE DAS DORES ERCIO DE LIMA OFICIAL DO MP GOVERNADOR VALADARES - COMARCA; COOR REG APOIO COM INC MOB VALE DO RIO DOCE 8.579,10 1.715,82 0,00 2.213,15 0,00 0,00 0,00 1.717,00 14.225,07 1.459,46 1.560,39 0,00 0,00 3.019,85 11.205,22 31/12/2021
586 178800 CRISTIANE DE LIMA HOSKEN OFICIAL DO MP BELO HORIZONTE - COMARCA; BH-14PJ DEFESA CONSUMIDOR-GAB 110PJ 16.750,82 6.700,33 0,00 3.388,10 7.817,05 0,00 0,00 1.717,00 36.373,30 3.564,46 6.697,03 0,00 0,00 10.261,49 26.111,81 31/12/2021
587 494000 CRISTIANE DE MELO MARQUEZ OLIVEIRA ANALISTA DO MP UBERLÂNDIA - COMARCA; UBERLANDIA-PJ-06PJ 12.204,02 2.440,80 0,00 3.009,73 4.881,61 0,00 0,00 2.948,02 25.484,18 2.155,45 3.907,66 0,00 0,00 6.063,11 19.421,07 31/12/2021
588 266100 CRISTIANE DE OLIVEIRA CASTRO OFICIAL DO MP BELO HORIZONTE - COMARCA; BH-14PJ DEFESA CONSUMIDOR-SECRETARIA 13.011,52 3.903,46 0,00 3.220,52 6.120,08 0,00 1.445,27 1.717,00 29.417,85 2.518,67 5.065,82 0,00 0,00 7.584,49 21.833,36 31/12/2021
589 329500 CRISTIANE DOS REIS SILVA OFICIAL DO MP ARAXÁ - COMARCA; ARAXA-PJ-04PJ 10.069,62 3.020,89 0,00 2.395,91 4.363,50 0,00 0,00 1.717,00 21.566,92 1.906,76 3.354,00 0,00 0,00 5.260,76 16.306,16 31/12/2021
590 301600 CRISTIANE GODINHO PIRES ANALISTA DO MP BETIM - COMARCA; BETIM-PJ-06PJ 18.820,14 5.646,04 0,00 3.379,04 0,00 0,00 0,00 1.717,00 29.562,22 3.726,87 4.833,95 0,00 0,00 8.560,82 21.001,40 31/12/2021
591 406100 CRISTIANE GONCALVES CHAVES ANALISTA DO MP BELO HORIZONTE - COMARCA; BH-14PJ DEFESA CONSUMIDOR-GAB 112PJ 14.790,66 4.437,20 0,00 3.035,20 0,00 0,00 0,00 1.717,00 23.980,06 2.888,73 3.623,90 0,00 0,00 6.512,63 17.467,43 31/12/2021
592 487600 CRISTIANE LOPES DE OLIVEIRA OFICIAL DO MP DIVINÓPOLIS - COMARCA; DIVINOPOLIS-PJ-03PJ 6.123,79 1.224,76 0,00 5.480,72 2.449,52 0,00 0,00 1.717,00 16.995,79 988,05 1.553,40 0,00 0,00 2.541,45 14.454,34 31/12/2021
593 502500 CRISTIANE MACIEL DE OLIVEIRA GOMES ANALISTA DO MP JUIZ DE FORA - COMARCA; JUIZ DE FORA-PJ-05PJ 10.069,62 2.013,92 0,00 2.826,05 4.027,85 0,00 0,00 2.486,39 21.423,83 1.745,64 3.081,22 0,00 0,00 4.826,86 16.596,97 31/12/2021
594 285500 CRISTIANE MAGALHAES LOURENCO ANALISTA DO MP BELO HORIZONTE - COMARCA; CENTRAL DE APOIO TECNICO-SETOR CONTABIL 18.103,37 5.431,01 0,00 3.972,39 7.844,79 0,00 0,00 1.717,00 37.068,56 3.577,78 6.723,89 0,00 0,00 10.301,67 26.766,89 31/12/2021
595 536500 CRISTIANE MICHELE DE SOUZA ANALISTA DO MP BARÃO DE COCAIS - COMARCA; BARAO DE COCAIS-PJ-UNPJ 9.444,70 944,47 0,00 2.405,93 0,00 0,00 0,00 1.717,00 14.512,10 1.474,54 1.477,89 0,00 0,00 2.952,43 11.559,67 31/12/2021
596 346600 CRISTIANE NOGUEIRA ANDRADE ANALISTA DO MP BELO HORIZONTE - COMARCA; CENTRAL DE APOIO TECNICO-SETOR CONTABIL 16.750,82 5.025,25 0,00 4.340,26 7.258,69 0,00 0,00 1.717,00 35.092,02 3.296,45 6.208,68 0,00 0,00 9.505,13 25.586,89 31/12/2021
597 234000 CRISTIANE OLIVEIRA TOSTES OFICIAL DO MP JUIZ DE FORA - COMARCA; JUIZ DE FORA-PJ-08PJ 14.790,66 4.437,20 0,00 3.035,20 6.409,29 0,00 0,00 2.486,39 31.158,74 2.888,73 5.386,46 0,00 0,00 8.275,19 22.883,55 31/12/2021
598 445800 CRISTIANE ORZIL COSTA OFICIAL DO MP SANTA LUZIA - COMARCA; SANTA LUZIA-PJ-05PJ 6.123,79 1.224,76 0,00 5.480,72 0,00 0,00 0,00 2.486,39 15.315,66 988,05 879,78 0,00 0,00 1.867,83 13.447,83 31/12/2021
599 616100 CRISTIANE PAES RODRIGUES MARCICANO ANALISTA DO MP CATAGUASES - COMARCA; CATAGUASES-PJ-05PJ 8.436,53 843,65 0,00 2.442,23 0,00 0,00 0,00 2.486,39 14.208,80 1.297,11 1.325,98 0,00 0,00 2.623,09 11.585,71 31/12/2021
600 612300 CRISTIANE RIBEIRO DOS REIS ARCANJO OFICIAL DO MP BELO HORIZONTE - COMARCA; DIRETORIA DE PAGAMENTO DE PESSOAL-DPAG 5.930,75 593,08 0,00 2.119,79 0,00 0,00 0,00 0,00 8.643,62 856,09 584,99 0,00 0,00 1.441,08 7.202,54 31/12/2021
601 257700 CRISTIANE RODRIGUES PAES NUNES ANALISTA DO MP BELO HORIZONTE - COMARCA; BH-22PJ PES COM DEF E IDOSOS-ORIENTACAO PSIC 18.820,14 5.646,04 0,00 3.724,41 8.155,39 0,00 0,00 2.486,39 38.832,37 3.726,87 7.024,55 0,00 0,00 10.751,42 28.080,95 31/12/2021
602 510800 CRISTIANE SANTOS FERNANDES ORNELES ANALISTA DO MP BELO HORIZONTE - COMARCA; BH-03PJ EMPRESARIAL-SECRETARIA 10.069,62 2.013,92 0,00 2.826,05 0,00 0,00 0,00 1.717,00 16.626,59 1.745,64 1.973,56 0,00 0,00 3.719,20 12.907,39 31/12/2021
603 535701 CRISTIANE SANTOS MIRANDA ANALISTA DO MP CONTAGEM - COMARCA; CONTAGEM-PJ-20PJ 8.170,49 817,05 0,00 2.234,72 0,00 0,00 324,23 1.717,00 13.263,49 1.250,28 1.258,39 0,00 0,00 2.508,67 10.754,82 31/12/2021
604 536200 CRISTIANO DE OLIVEIRA ANALISTA DO MP CONCEIÇÃO DO MATO DENTRO - COMARCA; CONCEICAO DO MATO DENTRO-PJ-UNPJ 10.069,62 1.006,96 0,00 2.264,94 3.692,19 0,00 0,00 2.486,39 19.520,10 1.584,53 2.704,17 0,00 0,00 4.288,70 15.231,40 31/12/2021
605 477400 CRISTIANO SOARES ELEUTERIO ANALISTA DO MP BELO HORIZONTE - COMARCA; GABINETE DE PROCURADOR DE JUSTIÇA - SALA 812 12.204,02 2.440,80 0,00 3.272,81 0,00 0,00 0,00 1.717,00 19.634,63 2.155,45 2.565,22 0,00 0,00 4.720,67 14.913,96 31/12/2021
606 449400 CRISTIANO TEIXEIRA RODRIGUES LANA ANALISTA DO MP BELO HORIZONTE - COMARCA; BH-18PJ VIOLENCIA DOMESTICA-GAB 185PJ 10.736,08 2.147,22 0,00 2.066,95 4.294,43 0,00 0,00 1.717,00 20.961,68 1.873,61 3.339,27 0,00 0,00 5.212,88 15.748,80 31/12/2021
607 239400 CRISTINA DE FATIMA CRUZ E SILVA OFICIAL DO MP MONTE SANTO DE MINAS - COMARCA; MONTE SANTO DE MINAS-PJ-SECRETARIA 13.011,52 3.903,46 0,00 2.791,06 0,00 0,00 0,00 1.717,00 21.423,04 2.518,67 3.089,63 0,00 0,00 5.608,30 15.814,74 31/12/2021
608 544000 CRISTINA DE OLIVEIRA TERRA ANALISTA DO MP BELO HORIZONTE - COMARCA; BH-18PJ VIOLENCIA DOMESTICA 9.444,70 944,47 0,00 7.332,47 0,00 0,00 0,00 1.717,00 19.438,64 1.474,54 1.582,16 0,00 0,00 3.056,70 16.381,94 31/12/2021
609 356800 CRISTINA DE PINHO BARROSO OFICIAL DO MP SABINÓPOLIS - COMARCA; SABINOPOLIS-PJ-UNPJ 8.436,53 2.530,96 0,00 2.267,49 0,00 0,00 0,00 1.717,00 14.951,98 1.567,08 1.611,48 0,00 0,00 3.178,56 11.773,42 31/12/2021
610 649500 CRISTINA DO DIVINO ESPIRITO SANTOS OFICIAL DO MP DIVINÓPOLIS - COMARCA; DIVINOPOLIS-PJ-12PJ 5.217,34 521,73 0,00 2.432,92 1.913,02 0,00 0,00 1.717,00 11.802,01 734,31 980,89 0,00 0,00 1.715,20 10.086,81 31/12/2021
611 348201 CRISTINA MARIA DA SILVA ANALISTA DO MP ARAXÁ - COMARCA; ARAXA-PJ-06PJ 10.069,62 2.013,92 0,00 2.322,57 0,00 0,00 0,00 2.486,39 16.892,50 1.745,64 1.973,56 0,00 0,00 3.719,20 13.173,30 31/12/2021
612 434900 CRISTINA MELO DE MADUREIRA ANALISTA DO MP BELO HORIZONTE - COMARCA; BH-07PJ 01 TRIBUNAL JURI-SECRETARIA 14.324,23 2.864,85 0,00 2.707,36 0,00 0,00 0,00 1.717,00 21.613,44 2.562,53 3.152,94 0,00 0,00 5.715,47 15.897,97 31/12/2021
613 307700 CRISTINA TEIXEIRA MARQUES OFICIAL DO MP BELO HORIZONTE - COMARCA; CENTRAL DE APOIO TECNICO-SETOR CONTABIL 9.146,93 2.744,08 0,00 2.489,10 0,00 0,00 0,00 1.717,00 16.097,11 1.714,84 1.929,09 0,00 0,00 3.643,93 12.453,18 31/12/2021
614 265300 CRISTOVAO SANCHES DE MEDEIROS ANALISTA DO MP BELO HORIZONTE - COMARCA; DIRETORIA DE CONTABILIDADE 17.413,92 5.224,18 0,00 3.904,02 0,00 0,00 0,00 1.717,00 28.259,12 3.434,37 4.411,67 0,00 0,00 7.846,04 20.413,08 31/12/2021
615 349800 CROZEIR LUIZ DA SILVA OFICIAL DO MP UNAÍ - COMARCA; UNAI-PJ-SECRETARIA 9.752,14 1.950,43 0,00 2.292,96 3.900,86 0,00 0,00 2.463,55 20.359,94 1.684,69 2.906,16 0,00 0,00 4.590,85 15.769,09 31/12/2021
616 490500 CYNTHIA CRISTINA DE SOUZA OLIVEIRA VALENTE ANALISTA DO MP BELO HORIZONTE - COMARCA; BH-09PJ AUDITORIA MILITAR-SECRETARIA 10.069,62 2.013,92 0,00 4.488,80 0,00 0,00 0,00 1.717,00 18.289,34 1.745,64 1.973,56 0,00 0,00 3.719,20 14.570,14 31/12/2021
617 389800 CYNTHIA GARIGLIO DOS SANTOS OFICIAL DO MP PERDIZES - COMARCA; PERDIZES-PJ-SECRETARIA 8.170,49 1.634,10 0,00 3.215,41 0,00 0,00 0,00 2.486,39 15.506,39 1.381,01 1.290,71 0,00 0,00 2.671,72 12.834,67 31/12/2021
618 335101 CYNTHIA GONTIJO D ASSUNCAO ANALISTA DO MP BELO HORIZONTE - COMARCA; FEPDC-SECRETARIA EXECUTIVA 10.069,62 2.013,92 0,00 2.322,57 4.027,85 0,00 0,00 2.486,39 20.920,35 1.745,64 3.081,22 0,00 0,00 4.826,86 16.093,49 31/12/2021
619 269700 CYNTIA ROCHA CAVALCANTI OFICIAL DO MP UBERLÂNDIA - COMARCA; UBERLANDIA-PJ-06PJ 13.011,52 3.903,46 0,00 2.791,06 5.638,33 0,00 0,00 2.486,39 27.830,76 2.518,67 4.640,17 0,00 0,00 7.158,84 20.671,92 31/12/2021
620 278000 DAIRTON LOPES MARTINS FILHO COORDENADOR/ANALISTA BELO HORIZONTE - COMARCA; DIRETORIA DE SISTEMAS DE INFORMACAO 0,00 4.030,55 13.435,16 3.416,74 5.821,90 0,00 0,00 1.717,00 28.421,35 1.906,76 5.010,37 0,00 0,00 6.917,13 21.504,22 31/12/2021
621 392700 DALIANA CHAVES IBRAIM MARINHO OFICIAL DO MP ITAÚNA - COMARCA; ITAUNA-PJ-04PJ 7.421,79 1.484,36 0,00 1.945,61 2.968,72 0,00 0,00 1.717,00 15.537,48 1.237,26 2.055,98 0,00 0,00 3.293,24 12.244,24 31/12/2021
622 558101 DALLEY TASSIA SILVA ANALISTA DO MP MORADA NOVA DE MINAS - COMARCA; MORADA NOVA DE MINAS-PJ-UNPJ 9.146,93 914,69 0,00 7.237,26 0,00 0,00 0,00 3.255,78 20.554,66 1.422,14 1.402,22 0,00 0,00 2.824,36 17.730,30 31/12/2021
623 476700 DALTON DAUD ANALISTA DO MP ARAGUARI - COMARCA; ARAGUARI-PJ-05PJ 10.069,62 2.013,92 0,00 2.426,84 4.027,85 0,00 0,00 1.717,00 20.255,23 1.745,64 2.976,95 0,00 0,00 4.722,59 15.532,64 31/12/2021
624 426900 DANIEL ALVES DA SILVA OFICIAL DO MP BELO HORIZONTE - COMARCA; DIVISAO TRANSPORTES 6.123,79 1.224,76 0,00 5.585,00 0,00 0,00 0,00 1.717,00 14.650,55 988,05 775,50 0,00 0,00 1.763,55 12.887,00 31/12/2021
625 122000 DANIEL ANTONIO VIEIRA OFICIAL DO MP ENTRE-RIOS DE MINAS - COMARCA; ENTRE RIOS DE MINAS-PJ-SECRETARIA 10.069,62 8.055,69 0,00 12.252,32 0,00 0,00 0,00 1.717,00 32.094,63 2.712,33 3.160,66 0,00 0,00 5.872,99 26.221,64 31/12/2021
626 714000 DANIEL FERREIRA CAMARA ASSESSOR PROMOTOR JUSTICA RIBEIRÃO DAS NEVES - COMARCA; RIBEIRAO DAS NEVES-PJ-12PJ 0,00 0,00 7.187,72 598,98 0,00 0,00 2.875,09 2.671,64 13.333,43 751,97 1.349,72 0,00 0,00 2.101,69 11.231,74 31/12/2021
627 411000 DANIEL FERREIRA DA SILVA ANALISTA DO MP GOVERNADOR VALADARES - COMARCA; GOVERNADOR VALADARES-PJ-15PJ 13.011,52 3.903,46 0,00 3.324,38 0,00 0,00 0,00 3.255,78 23.495,14 2.518,67 2.881,08 0,00 0,00 5.399,75 18.095,39 31/12/2021
628 703500 DANIEL FILIPE DE DEUS SOARES ASSESSOR PROMOTOR JUSTICA ITABIRITO - COMARCA; ITABIRITO-PJ-02PJ 0,00 0,00 7.187,72 3.269,31 0,00 0,00 0,00 1.717,00 12.174,03 1.274,11 1.229,92 0,00 0,00 2.504,03 9.670,00 31/12/2021
629 309000 DANIEL GOMES DOS SANTOS ANALISTA DO MP POÇOS DE CALDAS - COMARCA; POCOS DE CALDAS-PJ-05PJ 18.103,37 5.431,01 0,00 3.473,01 0,00 0,00 0,00 1.717,00 28.724,39 3.577,78 4.618,71 0,00 0,00 8.196,49 20.527,90 31/12/2021
630 554500 DANIEL GOMES PEREIRA OFICIAL DO MP NANUQUE - COMARCA; NANUQUE-PJ-02PJ 6.123,79 612,38 0,00 1.845,87 0,00 0,00 0,00 1.717,00 10.299,04 890,06 738,32 0,00 0,00 1.628,38 8.670,66 31/12/2021
631 453000 DANIEL GONCALVES PEREIRA ANALISTA DO MP UNAÍ - COMARCA; UNAI-PJ-02PJ 10.069,62 2.013,92 0,00 2.322,57 4.027,85 0,00 0,00 3.639,93 22.073,89 1.745,64 3.081,22 0,00 0,00 4.826,86 17.247,03 31/12/2021
632 495500 DANIEL GUIMARAES CABRAL OFICIAL DO MP BELO HORIZONTE - COMARCA; BH-17PJ PATRIMONIO PUBLICO-SECRETARIA 7.421,79 1.484,36 0,00 2.890,15 0,00 0,00 0,00 1.717,00 13.513,30 1.237,26 1.239,58 0,00 0,00 2.476,84 11.036,46 31/12/2021
633 442900 DANIEL GUIMARAES GONCALVES ANALISTA DO MP UBERLÂNDIA - COMARCA; UBERLANDIA-PJ-03PJ 13.011,52 2.602,30 0,00 4.207,75 5.204,61 0,00 0,00 1.717,00 26.743,18 841,65 4.434,91 0,00 0,00 5.276,56 21.466,62 31/12/2021
634 655900 DANIEL LUIZ DA SILVA ASSESSOR BELO HORIZONTE - COMARCA; DIV FISCAL ADM CONT TERCEIRIZACAO 0,00 0,00 5.136,32 2.176,95 0,00 0,00 0,00 1.717,00 9.030,27 1.308,46 669,60 0,00 0,00 1.978,06 7.052,21 31/12/2021
635 464600 DANIEL PIACENTINI STIVANIN ANALISTA DO MP ANDRADAS - COMARCA; ANDRADAS-PJ-02PJ 10.069,62 2.013,92 0,00 2.322,57 0,00 0,00 0,00 1.717,00 16.123,11 1.745,64 1.973,56 0,00 0,00 3.719,20 12.403,91 31/12/2021
636 417000 DANIEL QUEIROZ FERREIRA ANALISTA DO MP PASSOS - COMARCA; PASSOS-PJ-06PJ 13.011,52 2.602,30 0,00 2.653,71 0,00 0,00 0,00 3.024,96 21.292,49 2.310,49 2.789,06 0,00 0,00 5.099,55 16.192,94 31/12/2021
637 396700 DANIEL SILVA CARNEVALLI DIRETOR/ANALISTA BELO HORIZONTE - COMARCA; SUPERINTENDENCIA DE TECNOLOGIA DA INFORMACAO 14.790,66 2.958,13 3.482,78 3.713,28 7.077,19 0,00 0,00 2.486,39 34.508,43 2.652,08 6.186,23 0,00 0,00 8.838,31 25.670,12 31/12/2021
638 489300 DANIEL TABOZA ROCHA ANALISTA DO MP IPATINGA - COMARCA; IPATINGA-PJ-08PJ 10.069,62 2.013,92 0,00 3.449,32 0,00 0,00 0,00 2.486,39 18.019,25 841,65 2.081,26 0,00 88,61 3.011,52 15.007,73 31/12/2021
639 414100 DANIEL TARDELI VALADAO ANALISTA DO MP TRÊS CORACOES - COMARCA; TRES CORACOES-PJ-02PJ 13.011,52 2.602,30 0,00 3.162,04 0,00 0,00 0,00 3.255,78 22.031,64 2.310,49 2.580,51 0,00 0,00 4.891,00 17.140,64 31/12/2021
640 446601 DANIEL VIEIRA BUENO ANALISTA DO MP SÃO DOMINGOS DO PRATA - COMARCA; SAO DOMINGOS DO PRATA-PJ-UNPJ 9.146,93 914,69 0,00 2.312,98 0,00 0,00 0,00 2.486,39 14.860,99 1.422,14 1.454,36 0,00 0,00 2.876,50 11.984,49 31/12/2021
641 253200 DANIELA BATISTA LIMA BARBOSA ASSESSOR BELO HORIZONTE - COMARCA; CENTRAL DE APOIO TECN-SETOR DE MEIO AMBIENTE 0,00 1.540,90 5.136,32 2.578,53 0,00 0,00 0,00 1.717,00 10.972,75 1.503,94 1.089,53 0,00 0,00 2.593,47 8.379,28 31/12/2021
642 505800 DANIELA BORGES DE MATTOS RESENDE ANALISTA DO MP JUIZ DE FORA - COMARCA; JUIZ DE FORA-PJ-20PJ 10.069,62 2.013,92 0,00 4.488,80 0,00 0,00 0,00 1.717,00 18.289,34 1.745,64 1.973,56 0,00 0,00 3.719,20 14.570,14 31/12/2021
643 478000 DANIELA CARVALHO SOARES ANALISTA DO MP SÃO JOÃO DEL REI - COMARCA; SAO JOAO DEL REI-PJ-01PJ 10.069,62 2.013,92 0,00 4.182,17 0,00 0,00 0,00 1.717,00 17.982,71 1.745,64 1.973,56 0,00 0,00 3.719,20 14.263,51 31/12/2021
644 275900 DANIELA CHAGAS SODRE ANALISTA DO MP BELO HORIZONTE - COMARCA; CENTRAL DE APOIO TECNICO-SETOR CONTABIL 18.103,37 5.431,01 0,00 3.972,39 0,00 0,00 0,00 1.717,00 29.223,77 3.577,78 4.566,57 0,00 0,00 8.144,35 21.079,42 31/12/2021
645 234301 DANIELA CRUZ SOARES ANALISTA DO MP BELO HORIZONTE - COMARCA; LABORATORIO TECNOLOGIA INTELIGENCIA 18.820,14 5.646,04 0,00 4.035,67 8.155,39 0,00 0,00 1.717,00 38.374,24 3.726,87 7.076,68 0,00 0,00 10.803,55 27.570,69 31/12/2021
646 638000 DANIELA DE ALMEIDA BATISTA ANALISTA DO MP ANDRELÂNDIA - COMARCA; ANDRELANDIA-PJ-UNPJ 8.436,53 843,65 0,00 2.493,52 0,00 0,00 0,00 2.486,39 14.260,09 841,65 1.451,24 0,00 0,00 2.292,89 11.967,20 31/12/2021
647 301000 DANIELA DE ALMEIDA E OLIVEIRA ANALISTA DO MP BELO HORIZONTE - COMARCA; DIRETORIA DE SISTEMAS DE INFORMACAO 18.103,37 5.431,01 0,00 3.920,25 0,00 0,00 0,00 1.717,00 29.171,63 3.577,78 4.618,71 0,00 0,00 8.196,49 20.975,14 31/12/2021
648 296000 DANIELA DE AZEVEDO SILVA ANALISTA DO MP BRASÓPOLIS - COMARCA; BRASOPOLIS-PJ-UNPJ 18.820,14 5.646,04 0,00 3.379,04 0,00 0,00 0,00 1.717,00 29.562,22 3.726,87 4.833,95 0,00 0,00 8.560,82 21.001,40 31/12/2021
649 453500 DANIELA DE CASTRO SOUSA BARBOSA ANALISTA DO MP BELO HORIZONTE - COMARCA; BH-08PJ JUIZADO ESPECIAL-SECRETARIA 10.069,62 2.013,92 0,00 2.322,57 4.027,85 0,00 0,00 1.717,00 20.150,96 1.745,64 3.081,22 0,00 0,00 4.826,86 15.324,10 31/12/2021
650 506000 DANIELA DE OLIVEIRA CAVALIERI ANALISTA DO MP BELO HORIZONTE - COMARCA; BH-14PJ DEFESA CONSUMIDOR-GAB 005PJ 10.069,62 2.013,92 0,00 2.826,05 4.027,85 0,00 0,00 1.717,00 20.654,44 1.745,64 3.081,22 0,00 0,00 4.826,86 15.827,58 31/12/2021
651 546200 DANIELA DE VILHENA LEMES GONCALVES OFICIAL DO MP TRÊS CORACOES - COMARCA; TRES CORACOES-PJ-05PJ 5.562,64 556,26 0,00 2.476,61 0,00 0,00 22,44 1.961,76 10.579,71 792,88 491,02 0,00 0,00 1.283,90 9.295,81 31/12/2021
652 356400 DANIELA LEAL FERRAZ ANALISTA DO MP MONTES CLAROS - COMARCA; COORD REG PJ DEF EDUC DIR CRIANCA ADOL NORTE 15.272,02 4.581,61 0,00 3.840,83 0,00 0,00 0,00 1.717,00 25.411,46 2.988,86 3.768,45 0,00 0,00 6.757,31 18.654,15 31/12/2021
653 501000 DANIELA LOURENCO SANTOS DA SILVA GUIMARAES ANALISTA DO MP BELO HORIZONTE - COMARCA; BH-12PJ JUIZO CRIMINAL-GAB 095PJ 10.069,62 2.013,92 0,00 2.878,18 0,00 0,00 0,00 1.717,00 16.678,72 1.745,64 1.921,43 0,00 0,00 3.667,07 13.011,65 31/12/2021
654 195801 DANIELA MARIA DE OLIVEIRA QUEIROZ ANALISTA DO MP ARAGUARI - COMARCA; ARAGUARI-PJ-06PJ 14.324,23 5.729,69 0,00 2.991,01 0,00 0,00 0,00 1.717,00 24.761,93 3.020,90 3.814,72 0,00 0,00 6.835,62 17.926,31 31/12/2021
655 511400 DANIELA MARIA LARA DE OLIVEIRA ANALISTA DO MP BOA ESPERANÇA - COMARCA; BOA ESPERANCA-PJ-02PJ 10.069,62 2.013,92 0,00 4.514,86 4.027,85 0,00 0,00 2.486,39 23.112,64 1.745,64 3.029,08 0,00 0,00 4.774,72 18.337,92 31/12/2021
656 252101 DANIELA PAULA ALVES PENA ANALISTA DO MP CONTAGEM - COMARCA; CONTAGEM-PJ-APO TECNICO 14.790,66 5.916,26 0,00 3.589,02 0,00 0,00 0,00 1.717,00 26.012,94 3.125,38 3.965,56 0,00 0,00 7.090,94 18.922,00 31/12/2021
657 604700 DANIELA PEIXOTO NOGUEIRA COORDENADOR/OFICIAL BELO HORIZONTE - COMARCA; DIRET DE FORMACAO, APERFEIC. E POS-GRADUACAO 0,00 1.181,92 11.819,15 4.837,24 0,00 0,00 414,78 2.486,39 20.739,48 890,06 2.575,23 0,00 0,00 3.465,29 17.274,19 31/12/2021
658 662000 DANIELA RIBAS DE AVILA ASSESSOR BELO HORIZONTE - COMARCA; CENTRO AUTOCOMPOSICAO DE CONFLITOS 0,00 0,00 8.170,49 2.914,51 2.723,50 0,00 0,00 1.717,00 15.525,50 1.503,94 2.249,15 0,00 0,00 3.753,09 11.772,41 31/12/2021
659 711600 DANIELA SOTTE DE OLIVEIRA NEVES ASSESSOR PROMOTOR JUSTICA AIURUOCA - COMARCA; AIURUOCA-PJ-UNPJ 0,00 0,00 7.187,72 2.374,38 0,00 0,00 0,00 1.717,00 11.279,10 956,87 1.229,92 0,00 0,00 2.186,79 9.092,31 31/12/2021
660 462000 DANIELA SOUSA GOMES DO AMARAL ANALISTA DO MP BETIM - COMARCA; BETIM-PJ-04PJ 11.085,56 2.217,11 0,00 4.669,22 0,00 0,00 0,00 1.717,00 19.688,89 1.940,70 2.255,18 0,00 0,00 4.195,88 15.493,01 31/12/2021
661 427000 DANIELA TEIXEIRA DINIZ ANDRADE ANALISTA DO MP BELO HORIZONTE - COMARCA; DIRETORIA DE PROJETOS DE EDIFICACOES 10.069,62 2.013,92 0,00 2.374,70 0,00 0,00 0,00 1.717,00 16.175,24 1.745,64 1.921,43 0,00 0,00 3.667,07 12.508,17 31/12/2021
662 337200 DANIELA TOLEDO SENIUK ANALISTA DO MP BELO HORIZONTE - COMARCA; GABINETE DE PROCURADOR DE JUSTIÇA - SALA 412 13.872,60 4.161,78 0,00 6.167,35 6.011,46 0,00 0,00 1.717,00 31.930,19 2.697,78 5.001,36 0,00 0,00 7.699,14 24.231,05 31/12/2021
663 605600 DANIELE ALZIRA SILVA CABRAL MOREIRA OFICIAL DO MP BELO HORIZONTE - COMARCA; BH-10PJ EXECUÇÃO PENAL-SECRETARIA 6.123,79 612,38 0,00 1.716,55 0,00 0,00 0,00 2.486,39 10.939,11 890,06 738,32 0,00 0,00 1.628,38 9.310,73 31/12/2021
664 195500 DANIELE CHAVES FONSECA OFICIAL DO MP BELO HORIZONTE - COMARCA; EXTINTA-CGMP-DIV APOIO FISC ORIENT FUNCIONAL 16.112,82 6.445,13 0,00 3.893,81 7.519,32 0,00 0,00 1.717,00 35.688,08 3.421,55 6.460,96 0,00 0,00 9.882,51 25.805,57 31/12/2021
665 323400 DANIELE MEGALE SANTINI OFICIAL DO MP BELO HORIZONTE - COMARCA; EXTINTA-CGMP-DIV APOIO FISC ORIENT FUNCIONAL 10.736,08 3.220,82 0,00 2.207,25 0,00 0,00 0,00 1.717,00 17.881,15 2.045,38 2.354,17 0,00 0,00 4.399,55 13.481,60 31/12/2021
666 357900 DANIELE REJANE PINTO VERSIEUX OFICIAL DO MP PEDRO LEOPOLDO - COMARCA; PEDRO LEOPOLDO-PJ-03PJ 10.069,62 3.020,89 0,00 2.758,92 0,00 0,00 0,00 1.717,00 17.566,43 1.906,76 2.206,17 0,00 0,00 4.112,93 13.453,50 31/12/2021
667 389500 DANIELE VASCONCELOS AMORIM PRADO OFICIAL DO MP SÃO SEBASTIÃO DO PARAÍSO - COMARCA; SAO SEBASTIAO DO PARAISO-PJ-04PJ 9.146,93 1.829,39 0,00 2.164,14 0,00 0,00 0,00 1.717,00 14.857,46 1.568,49 1.717,79 0,00 0,00 3.286,28 11.571,18 31/12/2021
668 629700 DANIELLA BASTOS MARTINS BICALHO OFICIAL DO MP GOVERNADOR VALADARES - COMARCA; GOVERNADOR VALADARES-PJ-16PJ 5.930,75 593,08 0,00 4.612,50 0,00 0,00 0,00 1.717,00 12.853,33 856,09 689,27 0,00 0,00 1.545,36 11.307,97 31/12/2021
669 265000 DANIELLE CASTANHEIRA SCALABRINI OFICIAL DO MP BELO HORIZONTE - COMARCA; JUNTA RECURSAL DO PROCON ESTADUAL 10.069,62 3.020,89 0,00 2.484,46 0,00 0,00 0,00 1.717,00 17.291,97 1.906,76 2.154,03 0,00 0,00 4.060,79 13.231,18 31/12/2021
670 490100 DANIELLE DE AVILA SILVA LOPES ANALISTA DO MP BELO HORIZONTE - COMARCA; PROC. JUSTICA DIR. DIFUSOS E COLETIVOS-SEC 10.069,62 3.020,89 0,00 2.432,32 0,00 0,00 0,00 2.486,39 18.009,22 1.906,76 2.206,17 0,00 0,00 4.112,93 13.896,29 31/12/2021
671 711100 DANIELLE DOMINGOS LOPES DE MELO ASSESSOR PROCURADOR JUSTICA BELO HORIZONTE - COMARCA; GABINETE DE PROCURADOR DE JUSTIÇA - SALA 703 0,00 0,00 7.187,72 2.374,38 0,00 0,00 0,00 1.717,00 11.279,10 956,87 1.229,92 0,00 0,00 2.186,79 9.092,31 31/12/2021
672 549600 DANIELLE GOMES LOPES RODRIGUES OFICIAL DO MP VESPASIANO - COMARCA; VESPASIANO-PJ-02PJ 6.123,79 612,38 0,00 5.107,79 0,00 0,00 0,00 1.717,00 13.560,96 890,06 738,32 0,00 0,00 1.628,38 11.932,58 31/12/2021
673 613000 DANIELLE SILVA OLIVEIRA FRANKLIN ASSESSOR/OFICIAL BELO HORIZONTE - COMARCA; DIRETORIA DE ORCAMENTO-DIOR/SPC 0,00 1.039,75 10.397,52 8.540,72 0,00 0,00 0,00 2.486,39 22.464,38 856,09 2.040,46 0,00 0,00 2.896,55 19.567,83 31/12/2021
674 380800 DANILLO RIBEIRO ANTUNES ANALISTA DO MP MONTES CLAROS - COMARCA; MONTES CLAROS-PJ-SECRETARIA 14.790,66 2.958,13 0,00 2.931,21 0,00 0,00 0,00 1.717,00 22.397,00 2.652,08 3.230,10 0,00 0,00 5.882,18 16.514,82 31/12/2021
675 453700 DANILO BOTELHO DE CARVALHO DIRETOR/ANALISTA BELO HORIZONTE - COMARCA; SUPERINTENDENCIA DE FINANCAS 0,00 3.482,78 17.413,92 4.608,65 6.965,57 0,00 0,00 2.486,39 34.957,31 2.310,49 6.157,38 0,00 0,00 8.467,87 26.489,44 31/12/2021
676 391200 DANILO D'AVILA MENDES ANALISTA DO MP MONTES CLAROS - COMARCA; GAECO REGIONAL DE MONTES CLAROS 14.790,66 2.958,13 0,00 2.879,07 5.916,26 0,00 0,00 2.486,39 29.030,51 2.652,08 4.909,21 0,00 0,00 7.561,29 21.469,22 31/12/2021
677 710900 DANILO DE SOUZA RODRIGUES ASSESSOR PROMOTOR JUSTICA IPANEMA - COMARCA; IPANEMA-PJ-01PJ 0,00 0,00 7.187,72 2.933,82 0,00 0,00 0,00 1.717,00 11.838,54 1.028,75 1.229,92 0,00 0,00 2.258,67 9.579,87 31/12/2021
678 494900 DANILO GAVIAO AVELINO DE MELLO ANALISTA DO MP POUSO ALEGRE - COMARCA; GAECO REGIONAL DE POUSO ALEGRE 10.069,62 2.013,92 0,00 4.488,80 0,00 0,00 0,00 2.486,39 19.058,73 1.745,64 1.973,56 0,00 0,00 3.719,20 15.339,53 31/12/2021
679 604300 DANILO NASCIMENTO SALGADO ANALISTA DO MP JANAÚBA - COMARCA; JANAUBA-PJ-01PJ 9.444,70 944,47 0,00 2.102,17 3.463,06 0,00 0,00 1.717,00 17.671,40 1.474,54 2.534,50 0,00 0,00 4.009,04 13.662,36 31/12/2021
680 298300 DANUZA MONICA DE SOUZA DINIZ ANALISTA DO MP BELO HORIZONTE - COMARCA; CAO-FUNDACOES-ASSESSORIA JURIDICA 14.324,23 4.297,27 0,00 3.380,90 6.207,17 0,00 0,00 1.717,00 29.926,57 2.791,72 5.138,66 0,00 0,00 7.930,38 21.996,19 31/12/2021
681 398700 DARCY LUIZ MILEO GREGATTI OFICIAL DO MP LAMBARI - COMARCA; LAMBARI-PJ-SECRETARIA 9.444,70 1.888,94 0,00 3.637,54 0,00 0,00 0,00 1.717,00 16.688,18 1.625,66 1.800,33 0,00 0,00 3.425,99 13.262,19 31/12/2021
682 406200 DARIANA AUGUSTA DE TOLEDO PATROCINIO RUIZ COORDENADOR/OFICIAL BELO HORIZONTE - COMARCA; DIRETORIA GESTAO COMPRAS LICITACOES 0,00 2.687,03 13.435,16 3.399,85 5.374,06 0,00 0,00 2.537,68 27.433,78 1.568,49 4.610,77 0,00 0,00 6.179,26 21.254,52 31/12/2021
683 586901 DARIO VITORINO DE CARVALHO SILVA ASSESSOR BELO HORIZONTE - COMARCA; DIRETORIA DE SEGURANCA 0,00 0,00 17.413,92 5.046,42 5.804,64 0,00 0,00 1.717,00 29.981,98 1.503,94 5.586,27 0,00 0,00 7.090,21 22.891,77 31/12/2021
684 305000 DARLI LEITE DE OLIVEIRA OFICIAL DO MP ARAÇUAÍ - COMARCA; ARACUAI-PJ-01PJ 6.123,79 1.837,14 0,00 2.029,60 2.653,64 0,00 0,00 1.717,00 14.361,17 1.086,03 1.594,58 0,00 0,00 2.680,61 11.680,56 31/12/2021
685 703700 DAVID ALVES DOS SANTOS ASSESSOR PROMOTOR JUSTICA BELO HORIZONTE - COMARCA; CENTRO AUTOCOMPOSICAO DE CONFLITOS 0,00 0,00 7.187,72 3.269,31 0,00 0,00 0,00 1.717,00 12.174,03 1.274,11 1.229,92 0,00 0,00 2.504,03 9.670,00 31/12/2021
686 122200 DAVID RIBEIRO DOS SANTOS ANALISTA DO MP BORDA DA MATA - COMARCA; BORDA DA MATA-PJ-UNPJ 18.820,14 15.056,11 0,00 8.491,51 11.292,08 5.232,48 0,00 1.717,00 60.609,32 5.232,48 11.551,93 0,00 0,00 16.784,41 43.824,91 31/12/2021
687 389400 DAWSON CANEDO MARQUES OFICIAL DO MP TRÊS CORACOES - COMARCA; TRES CORACOES-PJ-01PJ 9.146,93 1.829,39 0,00 2.374,98 3.658,77 0,00 0,00 1.717,00 18.727,07 1.568,49 1.997,96 0,00 0,00 3.566,45 15.160,62 31/12/2021
688 537200 DAYANE TEIXEIRA DE OLIVEIRA CASELLI ANALISTA DO MP BELO HORIZONTE - COMARCA; ASSESS TECNICO-JUR JUNTO AS PROC. DE JUST 8.170,49 817,05 0,00 2.396,88 0,00 0,00 0,00 1.717,00 13.101,42 1.250,28 1.258,39 0,00 0,00 2.508,67 10.592,75 31/12/2021
689 256100 DAYSE ROSALY PEREIRA BATISTA OFICIAL DO MP BELO HORIZONTE - COMARCA; BH-08PJ JUIZADO ESPECIAL-SECRETARIA 10.069,62 3.020,89 0,00 2.432,32 0,00 0,00 0,00 1.717,00 17.239,83 1.906,76 2.206,17 0,00 0,00 4.112,93 13.126,90 31/12/2021
690 311901 DEBORA APARECIDA DA SILVA ASSESSOR BELO HORIZONTE - COMARCA; BH-23PJ CIVEL-SETOR ATEND PUB 0,00 0,00 3.076,28 1.471,71 0,00 0,00 0,00 1.717,00 6.264,99 736,24 224,40 0,00 0,00 960,64 5.304,35 31/12/2021
691 194301 DEBORA APARECIDA DOS SANTOS ANALISTA DO MP UBERLÂNDIA - COMARCA; UBERLANDIA-PJ-SEC FAMILIA 18.820,14 7.528,06 0,00 3.929,55 0,00 0,00 0,00 1.717,00 31.994,75 4.027,99 5.216,56 0,00 0,00 9.244,55 22.750,20 31/12/2021
692 518800 DEBORA CARVALHO FIORATTO COORDENADOR/OFICIAL BELO HORIZONTE - COMARCA; DIRETORIA MATERIAIS E SERVICOS 0,00 1.343,52 13.435,16 3.352,82 0,00 0,00 1.750,66 1.717,00 21.599,16 1.161,03 2.995,85 0,00 0,00 4.156,88 17.442,28 31/12/2021
693 444900 DEBORA CLAUDIA PEREIRA ALVES ANALISTA DO MP BELO HORIZONTE - COMARCA; BH-08PJ JUIZADO ESPECIAL-SECRETARIA 10.069,62 2.013,92 0,00 4.182,17 4.027,85 0,00 0,00 1.717,00 22.010,56 1.745,64 3.081,22 0,00 0,00 4.826,86 17.183,70 31/12/2021
694 617700 DEBORA COMANDUCI SCHREIDER ANALISTA DO MP BICAS - COMARCA; BICAS-PJ-UNPJ 9.146,93 914,69 0,00 2.545,03 0,00 0,00 0,00 1.717,00 14.323,65 1.422,14 1.454,36 0,00 0,00 2.876,50 11.447,15 31/12/2021
695 555700 DEBORA CRISTINA BUITRAGO PEREIRA ANALISTA DO MP BELO HORIZONTE - COMARCA; DIRETORIA GESTAO CONTRATOS CONVENIOS 9.444,70 944,47 0,00 2.301,66 0,00 0,00 0,00 3.255,78 15.946,61 1.474,54 1.582,16 0,00 0,00 3.056,70 12.889,91 31/12/2021
696 513100 DEBORA CRISTINA PEREIRA DE OLIVEIRA ANALISTA DO MP BELO HORIZONTE - COMARCA; BH-23PJ CIVEL-SETOR JURIDICO 10.736,08 2.147,22 0,00 2.577,76 0,00 0,00 0,00 2.486,39 17.947,45 1.873,61 2.158,30 0,00 0,00 4.031,91 13.915,54 31/12/2021
697 612100 DEBORA DUARTE SILVA DE SOUZA OFICIAL DO MP RIBEIRÃO DAS NEVES - COMARCA; RIBEIRAO DAS NEVES-PJ-06PJ 5.930,75 1.779,23 0,00 2.303,43 2.569,99 0,00 0,00 1.717,00 14.300,40 1.045,87 1.565,74 0,00 0,00 2.611,61 11.688,79 31/12/2021
698 539700 DEBORA SALES CARVALHO ANALISTA DO MP PATOS DE MINAS - COMARCA; COORD REG PJ DEF EDU DIR CRI ADO AL PAR NOROE 9.444,70 944,47 0,00 2.301,66 0,00 0,00 0,00 1.717,00 14.407,83 1.474,54 1.582,16 0,00 0,00 3.056,70 11.351,13 31/12/2021
699 424100 DEBORA SANTOS E ALVES ANALISTA DO MP JANUÁRIA - COMARCA; JANUARIA-PJ-01PJ 14.324,23 2.864,85 0,00 3.666,70 5.729,69 0,00 0,00 3.255,78 29.841,25 2.562,53 4.728,61 0,00 0,00 7.291,14 22.550,11 31/12/2021
700 426301 DEBORA SCUCATO MACHADO SOARES OFICIAL DO MP ITABIRITO - COMARCA; ITABIRITO-PJ-01PJ 6.123,79 1.224,76 0,00 5.480,72 2.449,52 0,00 0,00 2.486,39 17.765,18 988,05 1.553,40 0,00 0,00 2.541,45 15.223,73 31/12/2021
701 678100 DEBORA SOUZA COSTA ASSESSOR PROMOTOR JUSTICA BOTELHOS - COMARCA; BOTELHOS-PJ-UNPJ 0,00 0,00 7.187,72 6.339,39 0,00 0,00 0,00 2.486,39 16.013,50 1.503,94 1.177,78 0,00 0,00 2.681,72 13.331,78 31/12/2021
702 550200 DEBORA TRINDADE LEITE ANALISTA DO MP MANHUAÇU - COMARCA; MANHUACU-PJ-05PJ 9.444,70 944,47 0,00 2.405,93 3.463,06 0,00 0,00 1.717,00 17.975,16 1.474,54 2.430,23 0,00 0,00 3.904,77 14.070,39 31/12/2021
703 438000 DEBORAH COSTA LAGE ANALISTA DO MP BELO HORIZONTE - COMARCA; PROC JUST ATUACAO TRIBUNAIS SUPERIORES-GAB006 14.324,23 2.864,85 0,00 2.707,36 0,00 0,00 0,00 1.717,00 21.613,44 2.562,53 3.152,94 0,00 0,00 5.715,47 15.897,97 31/12/2021
704 475700 DEBORAH LOBAO LACERDA ASSESSOR/OFICIAL BELO HORIZONTE - COMARCA; BH-17PJ PATRIMONIO PUBLICO-SECRETARIA 0,00 1.634,10 8.170,49 2.359,05 3.268,20 0,00 359,50 5.638,84 21.430,18 988,05 2.453,94 0,00 0,00 3.441,99 17.988,19 31/12/2021
705 613700 DEISER MARIA FERREIRA ROSCOE OFICIAL DO MP BELO HORIZONTE - COMARCA; DIVISÃO DE EDUCAÇÃO PARA O CONSUMO 5.930,75 593,08 0,00 2.015,51 2.174,61 0,00 0,00 1.717,00 12.430,95 856,09 1.287,29 0,00 0,00 2.143,38 10.287,57 31/12/2021
706 551900 DEISY ROCHA DA SILVA ANALISTA DO MP CARMO DO PARANAÍBA - COMARCA; CARMO DO PARANAIBA-PJ-01PJ 9.444,70 944,47 0,00 2.301,66 3.463,06 0,00 0,00 1.717,00 17.870,89 1.474,54 2.534,50 0,00 0,00 4.009,04 13.861,85 31/12/2021
707 501900 DELI RAQUEL RODRIGUES ANALISTA DO MP ITUIUTABA - COMARCA; ITUIUTABA-PJ-04PJ 10.069,62 2.013,92 0,00 8.364,34 0,00 0,00 0,00 1.717,00 22.164,88 1.745,64 1.973,56 0,00 0,00 3.719,20 18.445,68 31/12/2021
708 378600 DELIANE LOPES VIEIRA BREIJAO ANALISTA DO MP JUIZ DE FORA - COMARCA; JUIZ DE FORA-PJ-12PJ 14.790,66 2.958,13 0,00 2.931,21 5.916,26 0,00 0,00 1.717,00 28.313,26 2.652,08 4.857,07 0,00 0,00 7.509,15 20.804,11 31/12/2021
709 487700 DENIA FERREIRA MAIA SILVA OFICIAL DO MP TRÊS CORACOES - COMARCA; TRES CORACOES-PJ-04PJ 6.123,79 1.224,76 0,00 2.978,97 0,00 0,00 0,00 2.255,57 12.583,09 988,05 775,50 0,00 0,00 1.763,55 10.819,54 31/12/2021
710 424800 DENIS APARECIDO CAMPOS DELFINO ANALISTA DO MP LUZ - COMARCA; LUZ-PJ-UNPJ 13.011,52 2.602,30 0,00 2.862,26 5.204,61 0,00 0,00 2.486,39 26.167,08 2.310,49 4.011,77 0,00 0,00 6.322,26 19.844,82 31/12/2021
711 381400 DENISE ANGELICA MELLO DE PAULA OFICIAL DO MP BELO HORIZONTE - COMARCA; BH-18PJ DIREITOS HUMANOS-SECRETARIA 9.146,93 1.829,39 0,00 2.374,98 3.658,77 0,00 0,00 2.486,39 19.496,46 1.568,49 2.723,96 0,00 0,00 4.292,45 15.204,01 31/12/2021
712 702100 DENISE CANDIDO LIMA MACEDO KATOPODIS ASSESSOR PROCURADOR JUSTICA BELO HORIZONTE - COMARCA; GABINETE DE PROCURADOR DE JUSTIÇA - SALA 514 0,00 0,00 7.187,72 3.005,74 0,00 0,00 0,00 1.717,00 11.910,46 1.441,83 1.229,92 0,00 0,00 2.671,75 9.238,71 31/12/2021
713 196300 DENISE DE ALMEIDA VILELA FURTADO OFICIAL DO MP BELO HORIZONTE - COMARCA; CENTRAL DE APOIO TECNICO-SECRETARIA 12.601,30 5.040,52 0,00 2.867,79 0,00 0,00 0,00 2.870,54 23.380,15 2.634,97 3.257,52 0,00 0,00 5.892,49 17.487,66 31/12/2021
714 271100 DENISE ELOY PEIXOTO OFICIAL DO MP BELO HORIZONTE - COMARCA; DIRETORIA DE INTELIGENCIA 13.011,52 3.903,46 0,00 2.791,06 5.638,33 0,00 0,00 1.717,00 27.061,37 2.518,67 4.640,17 0,00 0,00 7.158,84 19.902,53 31/12/2021
715 385400 DENISE FREITAS DE ASSIS ASSESSOR/OFICIAL CARATINGA - COMARCA; CARATINGA-PJ-SECRETARIA 0,00 2.079,50 10.397,52 2.618,58 4.159,01 0,00 0,00 1.717,00 20.971,61 1.513,10 3.289,45 0,00 0,00 4.802,55 16.169,06 31/12/2021
716 437100 DENISE NOGUEIRA MAGRI MENDES ANALISTA DO MP BELO HORIZONTE - COMARCA; LAB TECNOLOGIA CONTRA LAVAGEM DINHEIRO 14.324,23 4.297,27 0,00 11.463,10 6.207,17 0,00 0,00 1.717,00 38.008,77 2.791,72 5.034,39 0,00 0,00 7.826,11 30.182,66 31/12/2021
717 524700 DENISE RAMOS GUIMARAES OFICIAL DO MP BELO HORIZONTE - COMARCA; BH-07PJ 01 TRIBUNAL JURI-SECRETARIA 6.123,79 612,38 0,00 1.739,70 2.245,39 0,00 0,00 1.717,00 12.438,26 890,06 1.355,80 0,00 0,00 2.245,86 10.192,40 31/12/2021
718 239100 DENISE RIBEIRO DOS SANTOS CAETANO OFICIAL DO MP ITANHANDU - COMARCA; ITANHANDU-PJ-SECRETARIA 13.011,52 3.903,46 0,00 2.843,19 5.638,33 0,00 0,00 1.717,00 27.113,50 2.518,67 4.588,03 0,00 0,00 7.106,70 20.006,80 31/12/2021
719 325500 DENISE ROSA TORRES OFICIAL DO MP BELO HORIZONTE - COMARCA; DIRETORIA DE PESSOAL ADMINISTRATIVO - DPAD 10.736,08 3.220,82 0,00 2.155,11 4.652,30 0,00 0,00 1.717,00 22.481,31 2.045,38 3.566,67 0,00 432,80 6.044,85 16.436,46 31/12/2021
720 437200 DENISE VIVIANE DOS SANTOS ANALISTA DO MP BELO HORIZONTE - COMARCA; CGMP-ASSESSORIA JURIDICA 12.204,02 2.440,80 0,00 2.559,72 0,00 0,00 0,00 2.870,54 20.075,08 2.155,45 2.460,94 0,00 0,00 4.616,39 15.458,69 31/12/2021
721 267900 DENISIA DE ALMEIDA SALES OFICIAL DO MP BELO HORIZONTE - COMARCA; BH-18PJ DIREITOS HUMANOS-SECRETARIA 10.069,62 3.020,89 0,00 2.395,91 0,00 0,00 0,00 1.717,00 17.203,42 1.906,76 2.154,03 0,00 0,00 4.060,79 13.142,63 31/12/2021
722 480300 DESIREE ARANTES FERREIRA GOUVEA OFICIAL DO MP PRATÁPOLIS - COMARCA; PRATAPOLIS-PJ-UNPJ 6.123,79 1.224,76 0,00 3.456,70 0,00 988,05 0,00 1.717,00 13.510,30 988,05 1.151,49 0,00 0,00 2.139,54 11.370,76 31/12/2021
723 355300 DEYSE CRISTINA MORAIS OFICIAL DO MP PASSOS - COMARCA; PASSOS-PJ-02PJ 9.752,14 2.925,64 0,00 3.059,41 0,00 0,00 0,00 1.717,00 17.454,19 1.840,72 2.110,83 0,00 0,00 3.951,55 13.502,64 31/12/2021
724 523700 DIANA CAMPOS RESENDE OFICIAL DO MP SÃO JOÃO DEL REI - COMARCA; SAO JOAO DEL REI-PJ-04PJ 7.663,37 3.831,69 0,00 2.271,05 0,00 0,00 0,00 1.717,00 15.483,11 1.651,49 1.785,48 0,00 0,00 3.436,97 12.046,14 31/12/2021
725 241900 DIANA CARDOSO MARTINS OFICIAL DO MP BELO HORIZONTE - COMARCA; CAO-CRIMINAL 10.069,62 3.020,89 0,00 3.032,07 0,00 0,00 0,00 1.717,00 17.839,58 1.906,76 2.206,17 0,00 0,00 4.112,93 13.726,65 31/12/2021
726 410100 DIANA GORDILHO SILVEIRA SENA ANALISTA DO MP BELO HORIZONTE - COMARCA; BH-06PJ JUIZO CIVEL-SECRETARIA 14.324,23 2.864,85 0,00 3.666,70 0,00 0,00 0,00 1.717,00 22.572,78 2.562,53 3.152,94 0,00 0,00 5.715,47 16.857,31 31/12/2021
727 553000 DIANA MARIA MARQUES ANALISTA DO MP BETIM - COMARCA; BETIM-PJ-13PJ 9.444,70 944,47 0,00 2.353,79 0,00 0,00 0,00 1.717,00 14.459,96 1.474,54 1.530,03 0,00 0,00 3.004,57 11.455,39 31/12/2021
728 520000 DIARLE TOSTE DOS SANTOS ANALISTA DO MP RIO POMBA - COMARCA; RIO POMBA-PJ-UNPJ 10.069,62 1.006,96 0,00 2.264,94 3.692,19 0,00 0,00 1.717,00 18.750,71 1.584,53 2.099,17 0,00 0,00 3.683,70 15.067,01 31/12/2021
729 539800 DIEGO CAMARGOS RODRIGUES OFICIAL DO MP CONTAGEM - COMARCA; CONTAGEM-PJ-05PJ 6.123,79 612,38 0,00 1.845,87 0,00 0,00 0,00 1.717,00 10.299,04 890,06 738,32 0,00 0,00 1.628,38 8.670,66 31/12/2021
730 607300 DIEGO CERVEIRA DE SOUZA ANALISTA DO MP PATOS DE MINAS - COMARCA; COORD REG BACIAS PARACATU,URUCUIA E ABAETE 10.069,62 1.006,96 0,00 2.751,40 0,00 0,00 0,00 1.717,00 15.544,98 666,07 1.897,77 0,00 0,00 2.563,84 12.981,14 31/12/2021
731 446900 DIEGO DE FREITAS OFICIAL DO MP UBERABA - COMARCA; UBERABA-PJ-06PJ 8.436,53 1.687,31 0,00 2.074,16 3.374,61 0,00 0,00 1.717,00 17.289,61 1.432,09 2.448,89 0,00 0,00 3.880,98 13.408,63 31/12/2021
732 288800 DILENE NEPOMUCENO ALVES OFICIAL DO MP BELO HORIZONTE - COMARCA; DIRETORIA DE PESSOAL ADMINISTRATIVO - DPAD 10.069,62 3.020,89 0,00 4.488,79 4.363,50 0,00 0,00 1.717,00 23.659,80 1.906,76 3.406,13 0,00 0,00 5.312,89 18.346,91 31/12/2021
733 681200 DILLIANY PAULA LOPES SERRANO ASSESSOR PROMOTOR JUSTICA RESPLENDOR - COMARCA; RESPLENDOR-PJ-UNPJ 0,00 0,00 7.187,72 6.287,25 0,00 0,00 0,00 1.717,00 15.191,97 1.503,94 1.229,92 0,00 0,00 2.733,86 12.458,11 31/12/2021
734 270101 DILSON DO AMARAL ANALISTA DO MP RIO CASCA - COMARCA; RIO CASCA-PJ-UNPJ 9.444,70 944,47 0,00 2.301,66 0,00 0,00 0,00 1.717,00 14.407,83 1.474,54 1.582,16 0,00 0,00 3.056,70 11.351,13 31/12/2021
735 466000 DIMITRI GUDE MARCIAL ANALISTA DO MP NANUQUE - COMARCA; NANUQUE-PJ-02PJ 10.069,62 2.013,92 0,00 2.930,32 0,00 0,00 0,00 2.486,39 17.500,25 1.745,64 1.869,29 0,00 0,00 3.614,93 13.885,32 31/12/2021
736 516300 DINORA APARECIDA MACEDO BRANDAO ANALISTA DO MP BELO HORIZONTE - COMARCA; BH-19PJ SAUDE-SECRETARIA 150PJ 9.752,14 1.950,43 0,00 3.113,09 3.900,86 0,00 668,03 1.717,00 21.101,55 1.684,69 2.958,29 0,00 0,00 4.642,98 16.458,57 31/12/2021
737 511700 DIOGENES HENRIQUES PEREIRA LOURENCO ANALISTA DO MP BELO HORIZONTE - COMARCA; BH-03PJ EMPRESARIAL-SECRETARIA 10.069,62 2.013,92 0,00 2.826,05 0,00 0,00 0,00 2.486,39 17.395,98 1.745,64 1.973,56 0,00 0,00 3.719,20 13.676,78 31/12/2021
738 604100 DIOGO CESAR DE OLIVEIRA HONORIO ASSESSOR PIUMHI - COMARCA; PIUMHI-PJ-02PJ 0,00 0,00 5.136,32 4.745,11 0,00 0,00 0,00 1.717,00 11.598,43 1.308,46 669,60 0,00 0,00 1.978,06 9.620,37 31/12/2021
739 259600 DIOGO MESQUITA MAIA ANALISTA DO MP BELO HORIZONTE - COMARCA; DIRET DE APOIO AS PROCURADORIAS DE JUSTICA 17.413,92 13.931,14 0,00 8.570,93 0,00 2.959,56 0,00 1.717,00 44.592,55 4.827,49 7.184,71 0,00 0,00 12.012,20 32.580,35 31/12/2021
740 386700 DIRCIMAR FERNANDES CARNEIRO OFICIAL DO MP VISCONDE DO RIO BRANCO - COMARCA; VISCONDE DO RIO BRANCO-PJ-03PJ 9.146,93 6.402,85 0,00 2.646,92 5.183,26 0,00 0,00 1.739,68 25.119,64 2.300,24 4.199,66 0,00 0,00 6.499,90 18.619,74 31/12/2021
741 113800 DIRSON APARECIDO GUIMARAES ASSESSOR BELO HORIZONTE - COMARCA; DIVISAO DE MANUTENCAO PREDIAL 0,00 4.622,69 5.136,32 3.271,92 0,00 0,00 0,00 1.717,00 14.747,93 1.503,94 1.937,03 0,00 0,00 3.440,97 11.306,96 31/12/2021
742 216700 DOMICIO VALDETE PEREIRA OFICIAL DO MP TEÓFILO OTONI - COMARCA; COORD REG PJ DEF EDU DIR CRIAN ADOL JEQUI MUC 15.272,02 6.108,81 0,00 3.366,79 7.126,94 0,00 0,00 1.717,00 33.591,56 3.233,21 5.976,87 0,00 0,00 9.210,08 24.381,48 31/12/2021
743 192701 DONIZETTI APARECIDO AMORIM ANALISTA DO MP PRATÁPOLIS - COMARCA; PRATAPOLIS-PJ-UNPJ 10.069,62 4.027,85 0,00 2.545,77 0,00 0,00 0,00 1.717,00 18.360,24 2.067,87 2.386,64 0,00 0,00 4.454,51 13.905,73 31/12/2021
744 558700 DORCILIA FATIMA DE OLIVEIRA OFICIAL DO MP DIVINÓPOLIS - COMARCA; DIVINOPOLIS-PJ-02PJ 6.123,79 612,38 0,00 2.543,30 2.245,39 1.369,74 0,00 1.717,00 14.611,60 890,06 1.548,43 0,00 0,00 2.438,49 12.173,11 31/12/2021
745 555300 DOUGLAS CUNHA DE SOUZA ANALISTA DO MP VARZEA DA PALMA - COMARCA; VARZEA DA PALMA-PJ-01PJ 9.444,70 944,47 0,00 3.765,98 3.463,06 0,00 0,00 1.717,00 19.335,21 1.474,54 2.534,50 0,00 0,00 4.009,04 15.326,17 31/12/2021
746 265900 DOUGLAS GOMES MOREIRA ANALISTA DO MP BELO HORIZONTE - COMARCA; CENTRAL DE APOIO TECNICO-SETOR DE ENGENHARIA 18.820,14 5.646,04 0,00 3.672,27 0,00 0,00 0,00 1.717,00 29.855,45 3.726,87 4.833,95 0,00 0,00 8.560,82 21.294,63 31/12/2021
747 241000 DOUGLAS MEIRELLES DE CASTRO OFICIAL DO MP CONCEIÇÃO DO RIO VERDE - COMARCA; CONCEICAO DO RIO VERDE-PJ-UNPJ 13.011,52 5.204,61 0,00 3.382,45 0,00 0,00 0,00 1.717,00 23.315,58 2.726,86 3.285,91 0,00 0,00 6.012,77 17.302,81 31/12/2021
748 534900 DOUGLAS SILVA E SOUZA ANALISTA DO MP CAMPOS GERAIS - COMARCA; CAMPOS GERAIS-PJ-01PJ 9.444,70 944,47 0,00 2.353,79 0,00 0,00 0,00 1.717,00 14.459,96 1.474,54 1.530,03 0,00 0,00 3.004,57 11.455,39 31/12/2021
749 638900 DOUGLAS WALLAS CONCEICAO NEVES OFICIAL DO MP RIBEIRÃO DAS NEVES - COMARCA; RIBEIRAO DAS NEVES-PJ-SEC CIVEL 4.974,42 497,44 0,00 1.683,47 0,00 0,00 0,00 1.717,00 8.872,33 694,23 444,49 0,00 0,00 1.138,72 7.733,61 31/12/2021
750 146800 DUCINALVA AMARAL LOPES REIS OFICIAL DO MP PARAISÓPOLIS - COMARCA; PARAISOPOLIS-PJ-UNPJ 18.820,14 13.174,10 0,00 8.172,34 10.664,75 4.931,36 0,00 1.717,00 57.479,69 4.931,36 10.757,59 0,00 0,00 15.688,95 41.790,74 31/12/2021
751 122500 DUILIO CARLOS FERREIRA UTSCH OFICIAL DO MP CONCEIÇÃO DO MATO DENTRO - COMARCA; CONCEICAO DO MATO DENTRO-PJ-UNPJ 15.272,02 12.217,62 0,00 10.085,58 9.163,21 4.210,62 0,00 1.717,00 52.666,05 4.210,62 9.210,17 0,00 0,00 13.420,79 39.245,26 31/12/2021
752 201800 DULCINEIA ANDRE DE SOUZA OFICIAL DO MP JEQUITINHONHA - COMARCA; JEQUITINHONHA-PJ-SECRETARIA 15.272,02 6.108,81 0,00 3.471,07 7.126,94 0,00 0,00 1.717,00 33.695,84 3.233,21 5.872,60 0,00 0,00 9.105,81 24.590,03 31/12/2021
753 395800 DUVIDIER MEDIRCIO JUNIOR ANALISTA DO MP BELO HORIZONTE - COMARCA; CENTRAL DE APOIO TECNICO-SETOR DE ENGENHARIA 15.499,20 3.099,84 0,00 3.737,74 6.199,68 0,00 0,00 1.717,00 30.253,46 2.788,12 5.183,56 0,00 0,00 7.971,68 22.281,78 31/12/2021
754 604800 ECIA RAMILIS ISSA DE ABREU ANALISTA DO MP BRASÍLIA DE MINAS - COMARCA; BRASILIA DE MINAS-PJ-01PJ 9.444,70 944,47 0,00 3.566,49 0,00 0,00 0,00 1.717,00 15.672,66 1.474,54 1.582,16 0,00 0,00 3.056,70 12.615,96 31/12/2021
755 273000 EDELFINA APARECIDA GUIMARAES OFICIAL DO MP CACHOEIRA DE MINAS - COMARCA; CACHOEIRA DE MINAS-PJ-UNPJ 10.736,08 7.515,26 0,00 2.514,84 0,00 0,00 0,00 1.717,00 22.483,18 2.732,49 3.346,19 0,00 0,00 6.078,68 16.404,50 31/12/2021
756 523300 EDER DOS SANTOS PATRICIO ANALISTA DO MP NOVA SERRANA - COMARCA; NOVA SERRANA-PJ-03PJ 10.069,62 1.006,96 0,00 2.899,29 0,00 0,00 0,00 2.486,39 16.462,26 841,65 1.797,35 0,00 0,00 2.639,00 13.823,26 31/12/2021
757 356700 EDER JOSE PACHECO OFICIAL DO MP CAMPO BELO - COMARCA; CAMPO BELO-PJ-SECRETARIA 10.069,62 3.020,89 0,00 5.184,70 4.363,50 0,00 0,00 2.656,30 25.295,01 1.906,76 3.301,86 0,00 0,00 5.208,62 20.086,39 31/12/2021
758 507900 EDERSON SILVA LOPES OFICIAL DO MP BELO HORIZONTE - COMARCA; LABORATORIO TECNOLOGIA INTELIGENCIA 7.187,72 1.437,54 0,00 2.459,38 0,00 0,00 0,00 1.717,00 12.801,64 1.192,32 1.070,42 0,00 0,00 2.262,74 10.538,90 31/12/2021
759 296200 EDGARD GOULART MATOSINHO DE LAET JR ANALISTA DO MP GOVERNADOR VALADARES - COMARCA; GAECO REGIONAL DE GOVERNADOR VALADARES 17.413,92 5.224,18 0,00 4.008,30 0,00 0,00 498,04 7.150,14 34.294,58 3.434,37 4.307,39 0,00 0,00 7.741,76 26.552,82 31/12/2021
760 295000 EDILA MARIA DA SILVEIRA OFICIAL DO MP FORMIGA - COMARCA; FORMIGA-PJ-01PJ 9.146,93 2.744,08 0,00 4.009,35 0,00 0,00 0,00 1.717,00 17.617,36 1.714,84 1.929,09 0,00 0,00 3.643,93 13.973,43 31/12/2021
761 332300 EDILA MARILAC MIRANDA PRADO OFICIAL DO MP DIAMANTINA - COMARCA; DIAMANTINA-PJ-01PJ 10.069,62 5.034,81 0,00 2.756,11 0,00 0,00 0,00 3.255,78 21.116,32 2.228,99 2.567,11 0,00 0,00 4.796,10 16.320,22 31/12/2021
762 376600 EDILANE CONSOLACAO ROSA NAZARETH ANALISTA DO MP BETIM - COMARCA; BETIM-PJ-10PJ 14.790,66 2.958,13 0,00 7.206,28 0,00 0,00 0,00 1.717,00 26.672,07 841,65 3.546,73 0,00 0,00 4.388,38 22.283,69 31/12/2021
763 309800 EDILZA DOS REIS OFICIAL DO MP UBERLÂNDIA - COMARCA; UBERLANDIA-PJ-03PJ 10.069,62 3.020,89 0,00 2.484,46 4.363,50 0,00 0,00 1.717,00 21.655,47 1.906,76 3.354,00 0,00 0,00 5.260,76 16.394,71 31/12/2021
764 200500 EDINEIA MARIA DE OLIVEIRA ANTUNES OFICIAL DO MP MONTES CLAROS - COMARCA; MONTES CLAROS-PJ-10PJ 15.272,02 6.108,81 0,00 3.672,92 7.126,94 0,00 0,00 1.717,00 33.897,69 3.233,21 6.081,14 0,00 0,00 9.314,35 24.583,34 31/12/2021
765 427700 EDISANGELA SOARES LOPES OFICIAL DO MP PIRAPORA - COMARCA; PIRAPORA-PJ-02PJ 6.123,79 1.224,76 0,00 2.740,36 0,00 0,00 0,00 1.717,00 11.805,91 988,05 879,78 0,00 0,00 1.867,83 9.938,08 31/12/2021
766 555400 EDISON MONTEIRO SAMPAIO NETO ANALISTA DO MP BELO HORIZONTE - COMARCA; BH-12PJ JUIZO CRIMINAL-GAB 094PJ 9.444,70 944,47 0,00 2.301,66 0,00 0,00 0,00 1.717,00 14.407,83 1.474,54 1.582,16 0,00 0,00 3.056,70 11.351,13 31/12/2021
767 517700 EDMILSON TADEU FERNANDES OFICIAL DO MP POUSO ALEGRE - COMARCA; GAECO REGIONAL DE POUSO ALEGRE 7.421,79 742,18 0,00 2.269,42 2.721,32 0,00 0,00 1.717,00 14.871,71 1.118,51 1.816,50 0,00 0,00 2.935,01 11.936,70 31/12/2021
768 358400 EDNA APARECIDA SILVA FERREIRA OFICIAL DO MP CORONEL FABRICIANO - COMARCA; CORONEL FABRICIANO-PJ-02PJ 10.069,62 3.020,89 0,00 2.863,20 4.363,50 0,00 0,00 1.717,00 22.034,21 1.906,76 3.301,86 0,00 0,00 5.208,62 16.825,59 31/12/2021
769 331800 EDNA MARCIA CAMILO DA SILVA OFICIAL DO MP SETE LAGOAS - COMARCA; SETE LAGOAS-PJ-SEC CRIMINAIS 10.069,62 3.020,89 0,00 2.484,46 0,00 0,00 0,00 1.717,00 17.291,97 1.906,76 2.154,03 0,00 0,00 4.060,79 13.231,18 31/12/2021
770 327900 EDRIEL SANTANA PEREIRA OFICIAL DO MP TUPACIGUARA - COMARCA; TUPACIGUARA-PJ-01PJ 10.069,62 3.020,89 0,00 2.432,32 0,00 0,00 0,00 2.606,55 18.129,38 1.906,76 2.206,17 0,00 0,00 4.112,93 14.016,45 31/12/2021
771 482400 EDSON GARCIA OFICIAL DO MP MACHADO - COMARCA; MACHADO-PJ-02PJ 5.743,70 574,37 0,00 1.897,57 0,00 0,00 0,00 2.486,39 10.702,03 823,75 537,30 0,00 0,00 1.361,05 9.340,98 31/12/2021
772 225601 EDSON LABRE FILHO ANALISTA DO MP VARGINHA - COMARCA; VARGINHA-PJ-01PJ 17.413,92 5.224,18 0,00 3.956,16 7.546,03 0,00 0,00 1.717,00 35.857,29 3.434,37 6.434,69 0,00 0,00 9.869,06 25.988,23 31/12/2021
773 602700 EDSON NOGUEIRA BUENO OFICIAL DO MP PITANGUI - COMARCA; PITANGUI-PJ-02PJ 5.562,64 556,26 0,00 1.649,54 0,00 0,00 0,00 1.717,00 9.485,44 792,88 595,30 0,00 0,00 1.388,18 8.097,26 31/12/2021
774 414400 EDUARDO ABRANTES CAMPOS ANALISTA DO MP SÃO JOÃO DEL REI - COMARCA; SAO JOAO DEL REI-PJ-02PJ 14.324,23 2.864,85 0,00 3.666,70 0,00 0,00 0,00 1.717,00 22.572,78 2.562,53 3.152,94 0,00 0,00 5.715,47 16.857,31 31/12/2021
775 476800 EDUARDO ALVES DE MOURA ANALISTA DO MP UBERLÂNDIA - COMARCA; UBERLANDIA-PJ-02PJ 10.069,62 2.013,92 0,00 3.250,90 4.027,85 0,00 0,00 2.486,39 21.848,68 841,65 3.056,88 0,00 0,00 3.898,53 17.950,15 31/12/2021
776 390800 EDUARDO AMORIM PETTERSEN OFICIAL DO MP CARANGOLA - COMARCA; CARANGOLA-PJ-SECRETARIA 8.858,43 1.771,69 0,00 2.127,61 0,00 0,00 0,00 2.101,69 14.859,42 1.513,10 1.637,82 0,00 0,00 3.150,92 11.708,50 31/12/2021
777 461600 EDUARDO ANTONIO DE ASSIS FARIA ASSESSOR BELO HORIZONTE - COMARCA; ASSESS EXECUTIVA DO CONSELHO SUPERIOR DO MP 0,00 0,00 8.170,49 3.928,01 2.723,50 0,00 0,00 1.896,52 16.718,52 1.503,94 2.144,87 0,00 0,00 3.648,81 13.069,71 31/12/2021
778 248800 EDUARDO DE CASTRO AMORIM ANALISTA DO MP BELO HORIZONTE - COMARCA; SUPER DE GESTAO DE PESSOAS-LOTACAO TEMPORARIA 18.820,14 5.646,04 0,00 3.672,27 0,00 0,00 0,00 1.717,00 29.855,45 3.726,87 4.833,95 0,00 0,00 8.560,82 21.294,63 31/12/2021
779 209100 EDUARDO DE SOUZA MAIA ANALISTA DO MP BELO HORIZONTE - COMARCA; SUPER DE GESTAO DE PESSOAS-LOTACAO TEMPORARIA 18.820,14 7.528,06 0,00 4.033,82 8.782,73 0,00 0,00 1.717,00 40.881,75 4.027,99 7.527,54 0,00 0,00 11.555,53 29.326,22 31/12/2021
780 633900 EDUARDO GONCALVES PIRES OFICIAL DO MP BELO HORIZONTE - COMARCA; DIRETORIA DE PAGAMENTO DE PESSOAL-DPAG 6.529,10 1.958,73 0,00 1.666,12 2.829,28 0,00 0,00 1.717,00 14.700,23 1.170,33 1.921,00 0,00 0,00 3.091,33 11.608,90 31/12/2021
781 350500 EDUARDO GONCALVES RIBEIRO OFICIAL DO MP VESPASIANO - COMARCA; VESPASIANO-PJ-04PJ 9.146,93 2.744,08 0,00 8.247,08 0,00 0,00 0,00 1.717,00 21.855,09 1.714,84 1.929,09 0,00 0,00 3.643,93 18.211,16 31/12/2021
782 115800 EDUARDO HENRIQUE DE CAMPOS MAIA OFICIAL DO MP BELO HORIZONTE - COMARCA; DIV FISCAL ADM CONT TERCEIRIZACAO 17.413,92 8.706,96 0,00 3.900,63 0,00 0,00 0,00 1.717,00 31.738,51 3.991,62 5.059,77 0,00 0,00 9.051,39 22.687,12 31/12/2021
783 392600 EDUARDO HENRIQUE DOS SANTOS COSTA ELIAZAR OFICIAL DO MP MATOZINHOS - COMARCA; MATOZINHOS-PJ-01PJ 8.579,10 1.715,82 0,00 7.431,48 3.431,64 0,00 0,00 1.717,00 22.875,04 1.459,46 2.347,68 0,00 0,00 3.807,14 19.067,90 31/12/2021
784 99101 EDUARDO JOSE DE FREITAS NUNES ASSESSOR BELO HORIZONTE - COMARCA; PROC JUST ATUACAO TRIBUNAIS SUPERIORES-GAB007 0,00 2.054,53 5.136,32 5.403,65 0,00 0,00 5.136,32 1.717,00 19.447,82 1.442,19 1.230,78 0,00 0,00 2.672,97 16.774,85 31/12/2021
785 407500 EDUARDO MASCARENHAS CURI AZEVEDO COORDENADOR/ANALISTA BELO HORIZONTE - COMARCA; DIR CONTEUDO JORNALISTICO 0,00 2.687,03 13.435,16 3.231,26 0,00 0,00 0,00 2.486,39 21.839,84 1.745,64 3.084,19 0,00 0,00 4.829,83 17.010,01 31/12/2021
786 601300 EDUARDO TRAD VIEIRA OFICIAL DO MP SILVIANÓPOLIS - COMARCA; SILVIANOPOLIS-PJ-UNPJ 5.562,64 556,26 0,00 2.403,24 0,00 0,00 0,00 1.717,00 10.239,14 792,88 595,30 0,00 0,00 1.388,18 8.850,96 31/12/2021
787 257600 EDUARDO VALADARES CABRAL ANALISTA DO MP BELO HORIZONTE - COMARCA; COORD DE INCLUSAO E MOBILIZACAO SOCIAIS 16.112,82 4.833,85 0,00 13.572,91 0,00 0,00 0,00 1.717,00 36.236,58 3.163,74 4.020,95 0,00 0,00 7.184,69 29.051,89 31/12/2021
788 545700 EDVAIR FERREIRA DE CARVALHO OFICIAL DO MP ARAGUARI - COMARCA; ARAGUARI-PJ-06PJ 5.562,64 556,26 0,00 1.819,90 0,00 0,00 0,00 1.717,00 9.655,80 792,88 543,16 0,00 0,00 1.336,04 8.319,76 31/12/2021
789 401700 EDWANIA AMORIM DO CARMO OFICIAL DO MP RIBEIRÃO DAS NEVES - COMARCA; RIBEIRAO DAS NEVES-PJ-03PJ 9.146,93 1.829,39 0,00 3.739,60 0,00 0,00 0,00 1.717,00 16.432,92 1.568,49 1.717,79 0,00 0,00 3.286,28 13.146,64 31/12/2021
790 303600 EFIGENIO SARAIVA LOPES ANALISTA DO MP BELO HORIZONTE - COMARCA; DIRETORIA DE PAGAMENTO DE PESSOAL-DPAG 18.820,14 5.646,04 0,00 3.776,54 8.155,39 0,00 0,00 1.717,00 38.115,11 3.726,87 6.972,41 0,00 0,00 10.699,28 27.415,83 31/12/2021
791 286000 ELAINE APARECIDA SILVA BERZOINI OFICIAL DO MP JUIZ DE FORA - COMARCA; JUIZ DE FORA-PJ-14PJ 10.069,62 3.020,89 0,00 2.432,32 4.363,50 0,00 0,00 1.717,00 21.603,33 1.906,76 3.406,13 0,00 0,00 5.312,89 16.290,44 31/12/2021
792 509000 ELAINE CANDIDA PONTES OFICIAL DO MP BELO HORIZONTE - COMARCA; BH-02PJ FAMILIA-SECRETARIA 8.170,49 1.634,10 0,00 2.347,32 3.268,20 0,00 0,00 1.717,00 17.137,11 1.381,01 2.345,88 0,00 0,00 3.726,89 13.410,22 31/12/2021
793 283601 ELAINE CRISTINA MEQUELINO DUARTE ANALISTA DO MP ALFENAS - COMARCA; ALFENAS-PJ-02PJ 14.790,66 2.958,13 0,00 2.983,34 5.916,26 0,00 0,00 1.717,00 28.365,39 2.652,08 4.804,93 0,00 0,00 7.457,01 20.908,38 31/12/2021
794 535500 ELAINE DE OLIVEIRA CAMPOS REIS OFICIAL DO MP RIBEIRÃO DAS NEVES - COMARCA; RIBEIRAO NEVES-SEC PJ EXECUCAO PENAL 6.123,79 612,38 0,00 1.845,87 0,00 0,00 0,00 1.717,00 10.299,04 890,06 738,32 0,00 0,00 1.628,38 8.670,66 31/12/2021
795 455700 ELAINE DE OLIVEIRA CASTRO ANALISTA DO MP POMPÉU - COMARCA; POMPEU-PJ-UNPJ 10.069,62 2.013,92 0,00 2.374,70 0,00 0,00 0,00 1.717,00 16.175,24 1.745,64 1.921,43 0,00 0,00 3.667,07 12.508,17 31/12/2021
796 367200 ELAINE MUNIZ BARBOSA ANALISTA DO MP BELO HORIZONTE - COMARCA; DIRETORIA DE SISTEMAS DE INFORMACAO 15.272,02 4.581,61 0,00 4.871,19 0,00 0,00 1.038,48 2.486,39 28.249,69 2.988,86 3.716,31 0,00 0,00 6.705,17 21.544,52 31/12/2021
797 679200 ELAINE RIBEIRO CHAVES ASSESSOR PROCURADOR JUSTICA BELO HORIZONTE - COMARCA; GABINETE DE PROCURADOR DE JUSTIÇA - SALA 614 0,00 0,00 7.187,72 2.693,39 0,00 0,00 0,00 1.717,00 11.598,11 1.503,94 1.177,78 0,00 0,00 2.681,72 8.916,39 31/12/2021
798 176900 ELAINE RIBEIRO TAVEIRA OFICIAL DO MP BELO HORIZONTE - COMARCA; DIRETORIA DE PESSOAL ADMINISTRATIVO - DPAD 13.435,16 5.374,06 0,00 3.352,21 6.269,74 0,00 0,00 1.717,00 30.148,17 2.821,75 5.251,37 0,00 0,00 8.073,12 22.075,05 31/12/2021
799 496200 ELAINE SABRINA MOREIRA SCHUWARTEN ANALISTA DO MP IPATINGA - COMARCA; GAECO REGIONAL DE IPATINGA 10.736,08 2.147,22 0,00 2.577,76 0,00 0,00 0,00 1.717,00 17.178,06 1.873,61 2.158,30 0,00 0,00 4.031,91 13.146,15 31/12/2021
800 489200 ELAINE VICENTINO GARCIA ANALISTA DO MP BELO HORIZONTE - COMARCA; CENTRAL DE APOIO TECNICO-SETOR CONTABIL 10.069,62 3.020,89 0,00 2.536,59 4.363,50 0,00 0,00 1.717,00 21.707,60 1.906,76 3.301,86 0,00 0,00 5.208,62 16.498,98 31/12/2021
801 244500 ELCI ALVES DE SOUZA ASSESSOR BELO HORIZONTE - COMARCA; CAO-CONFLITOS AGRARIOS-SECRETARIA 0,00 1.540,90 5.136,32 2.630,66 0,00 0,00 0,00 1.717,00 11.024,88 1.503,94 1.037,40 0,00 0,00 2.541,34 8.483,54 31/12/2021
802 472500 ELCI VAZ DE OLIVEIRA FILHO ANALISTA DO MP PIUMHI - COMARCA; PIUMHI-PJ-02PJ 10.069,62 5.034,81 0,00 2.651,83 0,00 0,00 0,00 1.717,00 19.473,26 2.228,99 2.671,39 0,00 0,00 4.900,38 14.572,88 31/12/2021
803 385200 ELCI VIANA REIS OFICIAL DO MP RIO PARDO DE MINAS - COMARCA; RIO PARDO DE MINAS-PJ-SECRETARIA 9.146,93 3.658,77 0,00 2.603,23 4.268,57 0,00 0,00 1.717,00 21.394,50 1.861,19 3.314,24 0,00 0,00 5.175,43 16.219,07 31/12/2021
804 289801 ELCIO JOSE DOS SANTOS ASSESSOR/ANALISTA BELO HORIZONTE - COMARCA; DIVISAO DE SERVICOS 0,00 2.520,26 12.601,30 5.283,45 0,00 0,00 0,00 1.717,00 22.122,01 1.745,64 2.809,02 0,00 0,00 4.554,66 17.567,35 31/12/2021
805 319600 ELEN TULER DE ALBERGARIA ANALISTA DO MP BELO HORIZONTE - COMARCA; BH-19PJ SAUDE-SECRETARIA 130PJ 15.272,02 6.108,81 0,00 3.122,42 7.126,94 0,00 0,00 1.717,00 33.347,19 3.233,21 6.081,14 0,00 0,00 9.314,35 24.032,84 31/12/2021
806 205500 ELIANA ALVES DE SOUSA OFICIAL DO MP GOVERNADOR VALADARES - COMARCA; GOVERNADOR VALADARES-PJ-07PJ 10.069,62 4.027,85 0,00 2.542,08 0,00 0,00 0,00 1.717,00 18.356,55 2.067,87 2.438,78 0,00 0,00 4.506,65 13.849,90 31/12/2021
807 628800 ELIANA APARECIDA PEREIRA ANALISTA DO MP CAMBUÍ - COMARCA; CAMBUI-PJ-02PJ 8.436,53 843,65 0,00 1.976,43 0,00 0,00 0,00 1.717,00 12.973,61 1.297,11 1.273,85 0,00 0,00 2.570,96 10.402,65 31/12/2021
808 301700 ELIANA DA SILVEIRA ANALISTA DO MP BELO HORIZONTE - COMARCA; BH-11PJ COMB CRIME ORGANIZ-GAB 081PJ 16.750,82 5.025,25 0,00 3.169,50 0,00 0,00 0,00 1.717,00 26.662,57 3.296,45 4.212,54 0,00 0,00 7.508,99 19.153,58 31/12/2021
809 251500 ELIANA DE LIMA MILAGRES FONSECA ANALISTA DO MP CONTAGEM - COMARCA; CONTAGEM-PJ-16PJ 15.272,02 4.581,61 0,00 3.273,77 0,00 0,00 0,00 1.717,00 24.844,40 2.988,86 3.664,18 0,00 0,00 6.653,04 18.191,36 31/12/2021
810 503900 ELIANA DIAS DUTRA FERREIRA OFICIAL DO MP GOVERNADOR VALADARES - COMARCA; GOVERNADOR VALADARES-PJ-10PJ 7.912,85 1.582,57 0,00 2.495,26 0,00 0,00 0,00 0,00 11.990,68 1.331,54 1.271,43 0,00 0,00 2.602,97 9.387,71 31/12/2021
811 413900 ELIANA PINTO DE OLIVEIRA NEVES ANALISTA DO MP CAMPO BELO - COMARCA; CAMPO BELO-PJ-04PJ 13.011,52 2.602,30 0,00 2.653,71 5.204,61 0,00 0,00 1.717,00 25.189,14 2.310,49 4.220,32 0,00 0,00 6.530,81 18.658,33 31/12/2021
812 228200 ELIANA RODRIGUES DA CUNHA PINHEIRO OFICIAL DO MP BELO HORIZONTE - COMARCA; DIRETORIA DE PROJETOS DE EDIFICACOES 13.011,52 3.903,46 0,00 4.555,24 0,00 2.518,67 0,00 1.717,00 25.705,89 2.518,67 3.782,26 0,00 0,00 6.300,93 19.404,96 31/12/2021
813 386600 ELIANA SABINO CHAVES PESSOA ANALISTA DO MP CARATINGA - COMARCA; CARATINGA-PJ-06PJ 14.324,23 10.026,96 0,00 4.827,68 0,00 0,00 0,00 1.717,00 30.895,87 3.708,47 4.755,25 0,00 0,00 8.463,72 22.432,15 31/12/2021
814 677500 ELIANA SILVA ANDRADE ASSESSOR PROMOTOR JUSTICA TRÊS CORACOES - COMARCA; TRES CORACOES-PJ-06PJ 0,00 0,00 7.187,72 2.693,39 0,00 0,00 0,00 1.717,00 11.598,11 1.503,94 1.229,92 0,00 0,00 2.733,86 8.864,25 31/12/2021
815 297400 ELIANE AUGUSTA RIBEIRO COSTA ANALISTA DO MP CONSELHEIRO LAFAIETE - COMARCA; CONSELHEIRO LAFAIETE-PJ-05PJ 18.103,37 5.431,01 0,00 4.024,53 7.844,79 0,00 0,00 1.717,00 37.120,70 3.577,78 6.671,75 0,00 0,00 10.249,53 26.871,17 31/12/2021
816 510600 ELIANE CAROLINA MAIA ANALISTA DO MP IGARAPÉ - COMARCA; IGARAPE-PJ-03PJ 10.069,62 1.006,96 0,00 2.369,22 3.692,19 0,00 0,00 1.717,00 18.854,99 1.584,53 2.599,89 0,00 0,00 4.184,42 14.670,57 31/12/2021
817 262600 ELIANE FERREIRA SOARES ASSESSOR BELO HORIZONTE - COMARCA; BH-18PJ DIREITOS HUMANOS-SECRETARIA 0,00 2.054,53 5.136,32 4.269,13 0,00 0,00 0,00 1.717,00 13.176,98 1.503,94 1.178,64 0,00 0,00 2.682,58 10.494,40 31/12/2021
818 204400 ELIANE GLAUCE DE QUEIROS MAIA OFICIAL DO MP GUANHÃES - COMARCA; GUANHAES-PJ-02PJ 15.272,02 6.108,81 0,00 13.615,98 0,00 0,00 548,77 7.703,63 43.249,21 3.233,21 4.121,24 0,00 0,00 7.354,45 35.894,76 31/12/2021
819 91800 ELIANE KAPLER ALVES OFICIAL DO MP BELO HORIZONTE - COMARCA; DIVISAO DE CONTROLE IMOBILIARIO 18.820,14 9.410,07 0,00 9.150,97 0,00 0,00 0,00 1.717,00 39.098,18 4.329,11 5.599,17 0,00 0,00 9.928,28 29.169,90 31/12/2021
820 334200 ELIANE MARCIA DE OLIVEIRA BRITO OFICIAL DO MP BELO HORIZONTE - COMARCA; BH-08PJ JUIZADO ESPECIAL-SECRETARIA 6.123,79 1.837,14 0,00 2.926,83 0,00 0,00 0,00 1.717,00 12.604,76 1.086,03 1.021,24 0,00 0,00 2.107,27 10.497,49 31/12/2021
821 365900 ELIANE MARIA DE OLIVEIRA FERREIRA OFICIAL DO MP SETE LAGOAS - COMARCA; SETE LAGOAS-PJ-SEC CRIMINAIS 10.069,62 5.034,81 0,00 2.651,83 0,00 0,00 0,00 1.717,00 19.473,26 2.228,99 2.671,39 0,00 0,00 4.900,38 14.572,88 31/12/2021
822 320600 ELIANE STADLER DE SOUZA OFICIAL DO MP FRANCISCO SÁ - COMARCA; FRANCISCO SA-PJ-SECRETARIA 9.146,93 2.744,08 0,00 2.353,71 0,00 0,00 0,00 1.717,00 15.961,72 1.714,84 1.876,95 0,00 0,00 3.591,79 12.369,93 31/12/2021
823 448900 ELIAS PEREIRA OTONI ASSESSOR BELO HORIZONTE - COMARCA; BH-18PJ DIREITOS HUMANOS-SECRETARIA 0,00 0,00 3.076,28 3.038,29 0,00 0,00 0,00 1.717,00 7.831,57 736,24 162,01 0,00 0,00 898,25 6.933,32 31/12/2021
824 495400 ELICA SOUZA GASPARONI MATTOS OFICIAL DO MP UBÁ - COMARCA; UBA-PJ-06PJ 7.912,85 1.582,57 0,00 3.536,28 0,00 0,00 0,00 1.717,00 14.748,70 1.331,54 1.375,71 0,00 0,00 2.707,25 12.041,45 31/12/2021
825 86600 ELIENE FERREIRA DA SILVA OFICIAL DO MP BELO HORIZONTE - COMARCA; BH-22PJ PES COM DEF E IDOSOS-SECRETARIA 21.145,12 14.801,58 0,00 9.004,77 0,00 5.486,23 0,00 1.717,00 52.154,70 5.486,23 8.726,34 484,48 0,00 14.697,05 37.457,65 31/12/2021
826 183800 ELIENE MARIA CUNHA OFICIAL DO MP BELO HORIZONTE - COMARCA; DIRETORIA DE PESSOAL ADMINISTRATIVO - DPAD 16.750,82 6.700,33 0,00 14.078,52 7.817,05 0,00 0,00 1.717,00 47.063,72 3.564,46 6.697,03 0,00 0,00 10.261,49 36.802,23 31/12/2021
827 172300 ELINA APARECIDA SILVA ASSESSOR BELO HORIZONTE - COMARCA; BH-19PJ SAUDE-SECRETARIA 130PJ 0,00 1.230,51 3.076,28 1.958,75 1.435,60 0,00 0,00 1.717,00 9.418,14 1.076,20 816,07 0,00 0,00 1.892,27 7.525,87 31/12/2021
828 492501 ELINE CAMPOS DA FONSECA CUNHA ANALISTA DO MP PONTE NOVA - COMARCA; PONTE NOVA-PJ-02PJ 10.069,62 2.013,92 0,00 4.797,85 4.027,85 0,00 0,00 1.717,00 22.626,24 1.745,64 3.081,22 0,00 0,00 4.826,86 17.799,38 31/12/2021
829 618900 ELISA MOURA VIEIRA MARCATTI OFICIAL DO MP BELO HORIZONTE - COMARCA; BH-23PJ CIVEL-SEC EXP CIVEIS 5.930,75 593,08 0,00 2.015,51 0,00 0,00 0,00 2.486,39 11.025,73 856,09 689,27 0,00 0,00 1.545,36 9.480,37 31/12/2021
830 256500 ELISABETE NOGUEIRA ANALISTA DO MP RIBEIRÃO DAS NEVES - COMARCA; RIBEIRAO NEVES-SEC PJ EXECUCAO PENAL 15.272,02 7.636,01 0,00 7.696,87 0,00 0,00 0,00 1.717,00 32.321,90 3.477,56 4.317,61 0,00 0,00 7.795,17 24.526,73 31/12/2021
831 355000 ELISANGELA DARLANTONI RIBEIRO OFICIAL DO MP ARAXÁ - COMARCA; ARAXA-PJ-05PJ 9.444,70 2.833,41 0,00 2.702,21 4.092,70 0,00 0,00 1.717,00 20.790,02 1.776,77 3.091,86 0,00 0,00 4.868,63 15.921,39 31/12/2021
832 604400 ELISANGELA DEMASI FERREIRA MOREIRA ANALISTA DO MP CABO VERDE - COMARCA; CABO VERDE-PJ-UNPJ 9.444,70 944,47 0,00 2.102,17 0,00 0,00 0,00 1.717,00 14.208,34 1.474,54 1.582,16 0,00 0,00 3.056,70 11.151,64 31/12/2021
833 323800 ELISANGELA GONCALVES DE JESUS OFICIAL DO MP BELO HORIZONTE - COMARCA; DIVISAO FROTA 10.069,62 3.020,89 0,00 2.395,91 4.363,50 0,00 0,00 1.717,00 21.566,92 1.906,76 3.354,00 0,00 0,00 5.260,76 16.306,16 31/12/2021
834 507400 ELISANGELA MIGUEL DA ROCHA SILVA ASSESSOR BELO HORIZONTE - COMARCA; EXTINTA-CGMP-DIV APOIO FISC ORIENT FUNCIONAL 0,00 0,00 5.136,32 3.249,63 0,00 0,00 0,00 2.486,39 10.872,34 1.308,46 617,47 0,00 0,00 1.925,93 8.946,41 31/12/2021
835 261400 ELISANGELA REZENDE MENDES OFICIAL DO MP POUSO ALEGRE - COMARCA; POUSO ALEGRE-PJ-05PJ 10.069,62 3.020,89 0,00 2.432,32 0,00 0,00 0,00 1.717,00 17.239,83 1.906,76 2.206,17 0,00 0,00 4.112,93 13.126,90 31/12/2021
836 534100 ELISANGELA ROSINE SILVA OFICIAL DO MP UBERABA - COMARCA; UBERABA-PJ-06PJ 5.562,64 556,26 0,00 1.767,76 2.039,63 0,00 0,00 1.717,00 11.643,29 792,88 1.156,19 0,00 0,00 1.949,07 9.694,22 31/12/2021
837 634300 ELIUDE GRACA DAMASIO ROSARIO FRANCELINO OFICIAL DO MP BELO HORIZONTE - COMARCA; BH-18PJ VIOLENCIA DOMESTICA-SECRETARIA 4.974,42 497,44 0,00 2.220,57 0,00 0,00 0,00 2.486,39 10.178,82 694,23 444,49 0,00 0,00 1.138,72 9.040,10 31/12/2021
838 461700 ELIZABETH ALEIXO DA PAZ ANALISTA DO MP JUIZ DE FORA - COMARCA; JUIZ DE FORA-PJ-18PJ 10.069,62 2.013,92 0,00 2.322,57 4.027,85 0,00 0,00 1.717,00 20.150,96 1.745,64 3.081,22 0,00 0,00 4.826,86 15.324,10 31/12/2021
839 227300 ELIZABETH COIMBRA FELIX OFICIAL DO MP BELO HORIZONTE - COMARCA; DIRETORIA DE PAGAMENTO DE PESSOAL-DPAG 14.324,23 5.729,69 0,00 3.959,39 0,00 0,00 0,00 1.828,38 25.841,69 3.020,90 3.710,45 0,00 0,00 6.731,35 19.110,34 31/12/2021
840 354800 ELIZABETH DOS REIS OFICIAL DO MP BELO HORIZONTE - COMARCA; DIVISAO DE MATERIAIS 10.069,62 3.020,89 0,00 2.987,95 0,00 0,00 0,00 1.717,00 17.795,46 1.906,76 2.154,03 0,00 0,00 4.060,79 13.734,67 31/12/2021
841 612000 ELIZABETH MARIA DE QUEIROZ TANIGUCHI OFICIAL DO MP BELO HORIZONTE - COMARCA; SUPERINTENDENCIA GESTÃO DE PESSOAS 5.387,19 538,72 0,00 2.445,94 0,00 0,00 0,00 1.717,00 10.088,85 762,96 550,45 0,00 0,00 1.313,41 8.775,44 31/12/2021
842 452800 ELIZANGELA MARIA DAVI OFICIAL DO MP ARCOS - COMARCA; ARCOS-PJ-01PJ 6.123,79 1.224,76 0,00 2.766,43 0,00 0,00 0,00 1.717,00 11.831,98 988,05 827,64 0,00 0,00 1.815,69 10.016,29 31/12/2021
843 496300 ELIZANGELA MARQUES PINTO COELHO OFICIAL DO MP BELO HORIZONTE - COMARCA; DIRETORIA DE PESSOAL ADMINISTRATIVO - DPAD 7.912,85 1.582,57 0,00 2.390,99 3.165,14 0,00 0,00 1.717,00 16.768,55 1.331,54 2.246,12 0,00 0,00 3.577,66 13.190,89 31/12/2021
844 422500 ELIZETE FORTES DA CUNHA ANALISTA DO MP RIBEIRÃO DAS NEVES - COMARCA; RIBEIRAO DAS NEVES-PJ-07PJ 14.324,23 2.864,85 0,00 2.759,50 0,00 0,00 0,00 1.717,00 21.665,58 2.562,53 3.100,80 0,00 0,00 5.663,33 16.002,25 31/12/2021
845 506100 ELLEM CRISTINA ROCHA FONSECA BOWEN ANALISTA DO MP GOVERNADOR VALADARES - COMARCA; COORD REG PJ DEF EDU DIR CRIANCA ADOL RIODOCE 10.069,62 2.013,92 0,00 8.364,34 0,00 0,00 0,00 1.717,00 22.164,88 1.745,64 1.973,56 0,00 0,00 3.719,20 18.445,68 31/12/2021
846 468200 ELLEN CRISTINA BERNARDES DARE ANALISTA DO MP TRÊS PONTAS - COMARCA; TRES PONTAS-PJ-02PJ 10.069,62 2.013,92 0,00 2.374,70 4.027,85 0,00 0,00 2.486,39 20.972,48 1.745,64 3.029,08 0,00 0,00 4.774,72 16.197,76 31/12/2021
847 418800 ELLEN CRISTINA DE QUEIROZ FERREIRA ANALISTA DO MP BELO HORIZONTE - COMARCA; CENTRAL DE APOIO TECNICO-SETOR CONTABIL 13.011,52 2.602,30 0,00 6.661,29 5.204,61 0,00 0,00 2.870,54 30.350,26 841,65 4.434,91 0,00 0,00 5.276,56 25.073,70 31/12/2021
848 328401 ELLEN CRISTINA FERREIRA MORAIS MONTEIRO ANALISTA DO MP CAMANDUCAIA - COMARCA; CAMANDUCAIA-PJ-UNPJ 13.011,52 2.602,30 0,00 5.459,18 5.204,61 0,00 0,00 1.717,00 27.994,61 2.310,49 4.116,05 0,00 0,00 6.426,54 21.568,07 31/12/2021
849 556100 ELLEN CRISTINE BIANCHIN DA SILVA OFICIAL DO MP SÃO GONÇALO DO SAPUCAÍ - COMARCA; SAO GONCALO DO SAPUCAI-PJ-02PJ 5.562,64 556,26 0,00 4.782,86 0,00 0,00 0,00 1.717,00 12.618,76 792,88 543,16 0,00 0,00 1.336,04 11.282,72 31/12/2021
850 447100 ELLEN ROSANA DE MACEDO BORGES OFICIAL DO MP UBERLÂNDIA - COMARCA; UBERLANDIA-PJ-17PJ 8.579,10 1.715,82 0,00 2.527,36 3.431,64 0,00 0,00 1.717,00 17.970,92 1.459,46 2.504,09 0,00 0,00 3.963,55 14.007,37 31/12/2021
851 477700 ELMA JACOB OFICIAL DO MP BELO HORIZONTE - COMARCA; COORD DE GABINETE DO PGJ 7.912,85 5.539,00 0,00 4.108,08 0,00 1.303,36 0,00 1.717,00 20.580,29 1.964,57 2.648,07 0,00 0,00 4.612,64 15.967,65 31/12/2021
852 123300 ELMA PAULA DOS SANTOS COELHO OFICIAL DO MP BELO HORIZONTE - COMARCA; BH-19PJ SAUDE-SECRETARIA 130PJ 18.820,14 16.938,13 0,00 8.848,36 0,00 5.486,23 0,00 1.717,00 51.809,86 5.486,23 8.882,75 296,05 0,00 14.665,03 37.144,83 31/12/2021
853 356500 ELOISA CARDOSO SILVA FRANCA OFICIAL DO MP PEÇANHA - COMARCA; PECANHA-PJ-SECRETARIA 6.123,79 1.837,14 0,00 5.957,94 0,00 0,00 0,00 1.717,00 15.635,87 1.086,03 916,96 0,00 0,00 2.002,99 13.632,88 31/12/2021
854 251901 ELOISA COSTA E SILVA ANALISTA DO MP SANTOS DUMONT - COMARCA; SANTOS DUMONT-PJ-02PJ 10.069,62 3.020,89 0,00 2.484,46 0,00 0,00 0,00 2.486,39 18.061,36 1.906,76 2.154,03 0,00 0,00 4.060,79 14.000,57 31/12/2021
855 400400 ELOIZA MARIA FERRI PIRES DA SILVA OFICIAL DO MP BELO HORIZONTE - COMARCA; ASSESSORIA TECNICA DO PROCON-MG 8.579,10 1.715,82 0,00 2.092,60 0,00 0,00 0,00 1.717,00 14.104,52 1.459,46 1.508,25 0,00 0,00 2.967,71 11.136,81 31/12/2021
856 258000 ELSO CECIANO PALMEIRA ASSESSOR/OFICIAL BELO HORIZONTE - COMARCA; DIRET DE PESSOAL DO MINISTERIO PUBLICO - DPMP 12.601,30 8.820,91 3.024,31 4.444,67 8.148,84 0,00 0,00 1.717,00 38.757,03 3.239,83 7.203,41 0,00 0,00 10.443,24 28.313,79 31/12/2021
857 206900 ELVIRA RITA DOS SANTOS ANALISTA DO MP BELO HORIZONTE - COMARCA; CENTRAL DE APOIO TECNICO-SETOR CONTABIL 18.820,14 7.528,06 0,00 6.797,70 8.782,73 4.027,99 0,00 1.717,00 47.673,62 4.027,99 8.791,65 0,00 0,00 12.819,64 34.853,98 31/12/2021
858 506800 ELVIS FERREIRA DA SILVA ANALISTA DO MP BELO HORIZONTE - COMARCA; DIRETORIA DE SISTEMAS DE INFORMACAO 10.069,62 2.013,92 0,00 2.982,46 4.027,85 0,00 0,00 2.486,39 21.580,24 1.745,64 2.924,81 0,00 0,00 4.670,45 16.909,79 31/12/2021
859 602400 ELZA MARIA MOREIRA MUNIZ ANALISTA DO MP RIO PARANAÍBA - COMARCA; RIO PARANAIBA-PJ-UNPJ 9.444,70 944,47 0,00 2.317,76 0,00 0,00 0,00 1.717,00 14.423,93 1.474,54 1.530,03 0,00 0,00 3.004,57 11.419,36 31/12/2021
860 368401 ELZIRA SIMOES DOS SANTOS ASSESSOR BELO HORIZONTE - COMARCA; ASSESSORIA DE COMUNICACAO INTEGRADA 0,00 3.433,94 11.446,46 4.424,24 0,00 0,00 0,00 1.717,00 21.021,64 1.503,94 3.345,41 0,00 0,00 4.849,35 16.172,29 31/12/2021
861 437400 EMANOELLE DA SILVA RODRIGUES OFICIAL DO MP UNAÍ - COMARCA; UNAI-PJ-03PJ 7.912,85 1.582,57 0,00 2.527,68 3.165,14 0,00 0,00 3.255,78 18.444,02 1.331,54 2.193,98 0,00 0,00 3.525,52 14.918,50 31/12/2021
862 458900 EMANUELLE CONRAD SILVA FREDERICO NAVES ANALISTA DO MP ALFENAS - COMARCA; ALFENAS-PJ-05PJ 13.011,52 2.602,30 0,00 2.705,84 5.204,61 0,00 0,00 2.486,39 26.010,66 2.310,49 4.168,19 0,00 0,00 6.478,68 19.531,98 31/12/2021
863 284100 EMERSON MAGNO ALMEIDA PEDROSA DA FONSECA ANALISTA DO MP BELO HORIZONTE - COMARCA; CENTRAL DE APOIO TECNICO-SETOR CONTABIL 18.103,37 5.431,01 0,00 16.504,68 0,00 0,00 0,00 1.717,00 41.756,06 3.577,78 2.403,46 0,00 0,00 5.981,24 35.774,82 31/12/2021
864 179900 EMERSON MORAIS DIAS OFICIAL DO MP BELO HORIZONTE - COMARCA; SUPERINTENDÊNCIA DE ENGENHARIA E ARQUITETURA 16.750,82 6.700,33 0,00 4.596,79 0,00 0,00 0,00 1.717,00 29.764,94 3.564,46 4.599,48 0,00 0,00 8.163,94 21.601,00 31/12/2021
865 488700 EMERSON SIQUEIRA DE SOUSA TEIXEIRA ANALISTA DO MP ITANHOMI - COMARCA; ITANHOMI-PJ-UNPJ 10.069,62 2.013,92 0,00 2.982,46 4.027,85 0,00 44,31 2.200,34 21.338,50 1.745,64 2.924,81 0,00 0,00 4.670,45 16.668,05 31/12/2021
866 194200 EMILIA ALVES FERREIRA RAMOS OFICIAL DO MP UBERLÂNDIA - COMARCA; UBERLANDIA-PJ-SEC CIVEIS CRIMINAIS 11.085,56 4.434,22 0,00 3.547,75 5.173,26 0,00 0,00 1.717,00 25.957,79 2.295,44 4.189,98 0,00 0,00 6.485,42 19.472,37 31/12/2021
867 679500 EMILY DIAS LEMOS E SILVA ASSESSOR PROCURADOR JUSTICA BELO HORIZONTE - COMARCA; GABINETE DE PROCURADOR DE JUSTIÇA - SALA 515 0,00 0,00 7.187,72 2.797,66 2.395,91 0,00 0,00 2.486,39 14.867,68 1.503,94 1.784,52 0,00 0,00 3.288,46 11.579,22 31/12/2021
868 620700 EMILY FONTANA DE SIQUEIRA ANALISTA DO MP BELO HORIZONTE - COMARCA; BH-18PJ VIOLENCIA DOMESTICA-SECRETARIA 9.146,93 914,69 0,00 3.744,56 0,00 0,00 0,00 2.486,39 16.292,57 1.422,14 1.454,36 0,00 0,00 2.876,50 13.416,07 31/12/2021
869 297000 ENEIDA SOARES COSTA MELO ANALISTA DO MP PIUMHI - COMARCA; PIUMHI-PJ-01PJ 18.103,37 5.431,01 0,00 3.920,25 7.844,79 0,00 0,00 1.717,00 37.016,42 3.577,78 6.776,02 0,00 0,00 10.353,80 26.662,62 31/12/2021
870 276000 ENEZIO RODRIGUES DE SOUZA FILHO OFICIAL DO MP UBERLÂNDIA - COMARCA; UBERLANDIA-PJ-10PJ 10.069,62 3.020,89 0,00 2.432,32 4.363,50 0,00 527,98 7.476,82 27.891,13 1.906,76 3.406,13 0,00 0,00 5.312,89 22.578,24 31/12/2021
871 387700 ENI MARIA DOS REIS OFICIAL DO MP POUSO ALEGRE - COMARCA; POUSO ALEGRE-PJ-07PJ 9.146,93 1.829,39 0,00 3.739,60 0,00 0,00 0,00 1.717,00 16.432,92 1.568,49 1.717,79 0,00 0,00 3.286,28 13.146,64 31/12/2021
872 605100 ENIA MAIA ASSESSOR/OFICIAL BELO HORIZONTE - COMARCA; DIRETORIA DE ORCAMENTO-DIOR/SPC 0,00 1.039,75 10.397,52 2.822,08 0,00 0,00 0,00 1.717,00 15.976,35 890,06 2.031,12 0,00 0,00 2.921,18 13.055,17 31/12/2021
873 612200 ENILDO GOMES MEIRA FILHO ANALISTA DO MP BELO HORIZONTE - COMARCA; BH-23PJ INFRACIONAL-ASS JURIDICA 9.146,93 914,69 0,00 2.649,30 0,00 0,00 1.552,32 2.486,39 16.749,63 1.670,51 1.708,67 0,00 0,00 3.379,18 13.370,45 31/12/2021
874 553700 ENIVALDO NOVATO PUBLIO ANALISTA DO MP DIVINÓPOLIS - COMARCA; DIVINOPOLIS-PJ-09PJ 9.444,70 944,47 0,00 2.353,79 3.463,06 0,00 0,00 1.717,00 17.923,02 1.474,54 2.482,37 0,00 0,00 3.956,91 13.966,11 31/12/2021
875 680600 ENZO JOSE FERES SOUZA JABER ASSESSOR PROMOTOR JUSTICA NOVO CRUZEIRO - COMARCA; NOVO CRUZEIRO-PJ-SECRETARIA 0,00 0,00 7.187,72 2.693,39 0,00 0,00 0,00 1.717,00 11.598,11 1.503,94 1.229,92 0,00 0,00 2.733,86 8.864,25 31/12/2021
876 417300 ERIC BARATTI DA SILVA ANALISTA DO MP FRUTAL - COMARCA; FRUTAL-PJ-05PJ 10.069,62 2.013,92 0,00 2.322,57 0,00 0,00 0,00 1.717,00 16.123,11 1.745,64 1.973,56 0,00 0,00 3.719,20 12.403,91 31/12/2021
877 637600 ERIC DA ROCHA CHEHUEN ANALISTA DO MP LIMA DUARTE - COMARCA; LIMA DUARTE-PJ-UNPJ 8.436,53 843,65 0,00 6.987,29 0,00 0,00 0,00 1.717,00 17.984,47 841,65 1.451,24 0,00 0,00 2.292,89 15.691,58 31/12/2021
878 398900 ERIC TEIXEIRA SILVA OFICIAL DO MP UBERLÂNDIA - COMARCA; UBERLANDIA-PJ-SEC CIVEIS CRIMINAIS 9.444,70 1.888,94 0,00 2.127,61 0,00 0,00 0,00 1.717,00 15.178,25 1.625,66 1.800,33 0,00 0,00 3.425,99 11.752,26 31/12/2021
879 703600 ERICA CORDEIRO SANTOS ASSESSOR PROMOTOR JUSTICA MINAS NOVAS - COMARCA; MINAS NOVAS-PJ-UNPJ 0,00 0,00 7.187,72 3.269,31 0,00 0,00 0,00 1.717,00 12.174,03 1.274,11 1.229,92 0,00 0,00 2.504,03 9.670,00 31/12/2021
880 274200 ERICA DE SOUZA ANDRADE OFICIAL DO MP CURVELO - COMARCA; CURVELO-PJ-03PJ 11.085,56 3.325,67 0,00 3.012,09 0,00 0,00 0,00 1.717,00 19.140,32 2.118,07 2.459,12 0,00 0,00 4.577,19 14.563,13 31/12/2021
881 225700 ERICA GOMES DO COUTO OFICIAL DO MP BELO HORIZONTE - COMARCA; BH-21PJ TUTELA FUNDACOES-SECRETARIA 14.790,66 4.437,20 0,00 3.035,20 0,00 0,00 0,00 2.486,39 24.749,45 2.888,73 3.623,90 0,00 0,00 6.512,63 18.236,82 31/12/2021
882 632600 ERICA LEONOR MARTINS OFICIAL DO MP RESENDE COSTA - COMARCA; RESENDE COSTA-PJ-UNPJ 5.387,19 538,72 0,00 1.742,96 0,00 0,00 0,00 1.717,00 9.385,87 762,96 550,45 0,00 0,00 1.313,41 8.072,46 31/12/2021
883 524800 ERICA MACHADO DA COSTA E SOUZA ANALISTA DO MP BELO HORIZONTE - COMARCA; ASSESS TECNICO-JUR JUNTO AS PROC. DE JUST 10.736,08 1.073,61 0,00 1.975,18 3.936,56 0,00 0,00 1.717,00 19.438,43 1.701,83 2.846,31 0,00 0,00 4.548,14 14.890,29 31/12/2021
884 249500 ERICA RODRIGUES ANDRADE OFICIAL DO MP SÃO FRANCISCO - COMARCA; SAO FRANCISCO-PJ-02PJ 9.444,70 2.833,41 0,00 2.589,46 4.092,70 0,00 0,00 1.717,00 20.677,27 1.776,77 3.091,86 0,00 0,00 4.868,63 15.808,64 31/12/2021
885 260800 ERICA VIANA GIARDINI DE OLIVEIRA OFICIAL DO MP BELO HORIZONTE - COMARCA; DIRETORIA GESTAO COMPRAS LICITACOES 10.069,62 3.020,89 0,00 2.432,32 4.363,50 0,00 0,00 1.717,00 21.603,33 1.906,76 3.406,13 0,00 0,00 5.312,89 16.290,44 31/12/2021
886 299800 ERICH DOUGLAS RIBEIRO GARCIA ANALISTA DO MP BELO HORIZONTE - COMARCA; CENTRAL DE APOIO TECNICO-SETOR CONTABIL 17.413,92 5.224,18 0,00 3.904,02 0,00 0,00 0,00 1.717,00 28.259,12 3.434,37 4.411,67 0,00 0,00 7.846,04 20.413,08 31/12/2021
887 365000 ERICK EDUARDO JOSE DA SILVA OFICIAL DO MP SANTOS DUMONT - COMARCA; SANTOS DUMONT-PJ-02PJ 6.123,79 1.837,14 0,00 2.179,38 0,00 0,00 0,00 1.717,00 11.857,31 1.086,03 1.021,24 0,00 0,00 2.107,27 9.750,04 31/12/2021
888 688900 ERICK FERDINANN SANTOS GOMES ASSESSOR PROMOTOR JUSTICA OURO PRETO - COMARCA; OURO PRETO-PJ-04PJ 0,00 0,00 7.187,72 3.519,63 0,00 0,00 0,00 1.717,00 12.424,35 1.503,94 1.229,92 0,00 0,00 2.733,86 9.690,49 31/12/2021
889 227400 ERIKA DE LAET GOULART BOECHAT OFICIAL DO MP BELO HORIZONTE - COMARCA; BH-17PJ PATRIMONIO PUBLICO-SECRETARIA 14.790,66 4.437,20 0,00 3.045,34 0,00 0,00 0,00 1.717,00 23.990,20 2.888,73 3.571,76 0,00 0,00 6.460,49 17.529,71 31/12/2021
890 681301 ERIKA FERNANDA ELISEU FERREIRA ASSESSOR PROCURADOR JUSTICA BELO HORIZONTE - COMARCA; GABINETE DE PROCURADOR DE JUSTIÇA - SALA 411 0,00 0,00 7.187,72 2.933,82 0,00 0,00 0,00 1.717,00 11.838,54 1.028,75 1.229,92 0,00 0,00 2.258,67 9.579,87 31/12/2021
891 285100 ERIKA FERREIRA DA SILVA OFICIAL DO MP JUIZ DE FORA - COMARCA; JUIZ DE FORA-PJ-11PJ 10.069,62 3.020,89 0,00 2.432,32 4.363,50 0,00 0,00 1.717,00 21.603,33 1.906,76 3.406,13 0,00 0,00 5.312,89 16.290,44 31/12/2021
892 420100 ERIKA JEANINE VERSIANI DE CASTRO ANALISTA DO MP BELO HORIZONTE - COMARCA; COORD ESTADUAL DE DEFESA DA EDUCACAO 14.324,23 2.864,85 0,00 3.666,70 5.729,69 0,00 0,00 1.717,00 28.302,47 2.562,53 4.728,61 0,00 0,00 7.291,14 21.011,33 31/12/2021
893 677100 ERIKA LAYS CARDOSO FERNANDES ASSESSOR PROMOTOR JUSTICA GRAO MOGOL - COMARCA; GRAO MOGOL-PJ-UNPJ 0,00 0,00 7.187,72 2.693,39 0,00 0,00 0,00 1.717,00 11.598,11 1.503,94 1.229,92 0,00 0,00 2.733,86 8.864,25 31/12/2021
894 606900 ERIKA MARIA BARBOSA ANALISTA DO MP BELO HORIZONTE - COMARCA; CAO-SAUDE 8.579,10 857,91 0,00 2.069,13 0,00 0,00 0,00 1.717,00 13.223,14 1.322,20 1.310,08 0,00 0,00 2.632,28 10.590,86 31/12/2021
895 491000 ERIKA ROCHA PEREIRA E SILVA COORDENADOR/ANALISTA BELO HORIZONTE - COMARCA; DIR GOVERNANCA TECNOLOGIA INFORMACAO 0,00 2.687,03 13.435,16 3.903,02 5.374,06 0,00 0,00 1.717,00 27.116,27 1.745,64 4.562,06 0,00 0,00 6.307,70 20.808,57 31/12/2021
896 283201 ERIKA STEHLING COORDENADOR/ANALISTA BELO HORIZONTE - COMARCA; CENTRAL DE APOIO TECNICO-SETOR DE ENGENHARIA 10.069,62 2.013,92 2.363,83 5.345,68 4.815,79 0,00 0,00 1.717,00 26.325,84 1.745,64 3.947,96 0,00 0,00 5.693,60 20.632,24 31/12/2021
897 254000 ERLANDIA DA SILVA MENDES OFICIAL DO MP IPATINGA - COMARCA; IPATINGA-PJ-03PJ 13.011,52 5.204,61 0,00 3.084,83 6.072,04 0,00 0,00 1.717,00 29.090,00 2.726,86 4.903,59 0,00 0,00 7.630,45 21.459,55 31/12/2021
898 208600 ERNANE JOSE DA COSTA ANALISTA DO MP BELO HORIZONTE - COMARCA; CENTRAL DE APOIO TECNICO-SETOR MEDICO 18.820,14 15.056,11 0,00 4.697,96 0,00 0,00 0,00 1.717,00 40.291,21 5.232,48 7.007,68 0,00 0,00 12.240,16 28.051,05 31/12/2021
899 260600 ERNANI CALDEIRA DE ANDRADE ANALISTA DO MP BELO HORIZONTE - COMARCA; CENTRAL DE APOIO TECNICO-SETOR CONTABIL 18.820,14 5.646,04 0,00 3.672,27 0,00 0,00 538,26 7.588,88 36.265,59 3.726,87 4.833,95 0,00 0,00 8.560,82 27.704,77 31/12/2021
900 348500 ERNILANDIA DE OLIVEIRA DIAS OFICIAL DO MP MONTES CLAROS - COMARCA; MONTES CLAROS-PJ-16PJ 9.146,93 2.744,08 0,00 2.260,70 3.963,67 0,00 0,00 1.717,00 19.832,38 1.714,84 3.019,10 0,00 0,00 4.733,94 15.098,44 31/12/2021
901 199300 ERTON PORTINARI DE ANDRADE OFICIAL DO MP SETE LAGOAS - COMARCA; SETE LAGOAS-PJ-05PJ 15.272,02 6.108,81 0,00 3.366,79 0,00 0,00 0,00 1.717,00 26.464,62 3.233,21 4.016,96 0,00 0,00 7.250,17 19.214,45 31/12/2021
902 618800 ESLY DE CARLA AYALLA BARBOSA MENDES OFICIAL DO MP NOVA LIMA - COMARCA; NOVA LIMA-PJ-SECRETARIA 5.387,19 538,72 0,00 1.876,57 0,00 0,00 0,00 1.717,00 9.519,48 762,96 550,45 0,00 0,00 1.313,41 8.206,07 31/12/2021
903 537000 ESTANISLAU CORREIA ALMEIDA JUNIOR OFICIAL DO MP UBERLÂNDIA - COMARCA; UBERLANDIA-PJ-25PJ 6.123,79 612,38 0,00 1.845,87 0,00 0,00 0,00 1.717,00 10.299,04 890,06 738,32 0,00 0,00 1.628,38 8.670,66 31/12/2021
904 692100 ESTEFANIA FARIA FERREIRA ASSESSOR PROCURADOR JUSTICA BELO HORIZONTE - COMARCA; GABINETE DE PROCURADOR DE JUSTIÇA - SALA 814 0,00 0,00 7.187,72 6.287,25 0,00 0,00 0,00 1.717,00 15.191,97 1.503,94 1.229,92 0,00 0,00 2.733,86 12.458,11 31/12/2021
905 326900 ESTER ALICE PIMENTA OFICIAL DO MP BELO HORIZONTE - COMARCA; COORD DE INCLUSAO E MOBILIZACAO SOCIAIS 10.069,62 3.020,89 0,00 2.432,32 4.363,50 0,00 0,00 1.717,00 21.603,33 1.906,76 3.406,13 0,00 0,00 5.312,89 16.290,44 31/12/2021
906 503700 ESTHER GONCALVES FONSECA ANALISTA DO MP BELO HORIZONTE - COMARCA; DIR CRIACAO E MIDIAS 9.752,14 1.950,43 0,00 2.900,53 0,00 0,00 0,00 1.717,00 16.320,10 1.684,69 1.885,56 0,00 0,00 3.570,25 12.749,85 31/12/2021
907 475600 ETIENE DE FATIMA OLIVEIRA PEREIRA ANALISTA DO MP PATROCÍNIO - COMARCA; PATROCINIO-PJ-04PJ 10.069,62 2.013,92 0,00 3.082,23 4.027,85 0,00 0,00 1.717,00 20.910,62 726,99 3.140,54 0,00 0,00 3.867,53 17.043,09 31/12/2021
908 428800 EUGENIA RODRIGUES TRAJANO BORGES ANALISTA DO MP UBERABA - COMARCA; UBERABA-PJ-10PJ 13.011,52 2.602,30 0,00 2.953,49 0,00 0,00 515,26 8.107,37 27.189,94 2.310,49 2.789,06 0,00 0,00 5.099,55 22.090,39 31/12/2021
909 272700 EUGENIO DE BARCELOS FILHO OFICIAL DO MP FRUTAL - COMARCA; FRUTAL-PJ-03PJ 9.146,93 2.744,08 0,00 4.035,42 0,00 0,00 0,00 1.943,80 17.870,23 1.714,84 1.876,95 0,00 0,00 3.591,79 14.278,44 31/12/2021
910 254100 EULALIA ALVES MIRANDA LUCAS OFICIAL DO MP ALMENARA - COMARCA; ALMENARA-PJ-02PJ 12.601,30 3.780,39 0,00 3.153,56 5.460,56 0,00 0,00 1.717,00 26.712,81 2.433,35 4.363,81 0,00 0,00 6.797,16 19.915,65 31/12/2021
911 641200 EUNICE ELVIRA DA SILVA MATOS OFICIAL DO MP BELO HORIZONTE - COMARCA; BH-14PJ DEFESA CONSUMIDOR-SECRETARIA 4.974,42 497,44 0,00 1.664,49 0,00 0,00 0,00 1.717,00 8.853,35 694,23 444,49 0,00 0,00 1.138,72 7.714,63 31/12/2021
912 557900 EURIPEDES JOSUE PERES OFICIAL DO MP IBIÁ - COMARCA; IBIA-PJ-UNPJ 5.562,64 556,26 0,00 4.709,49 0,00 0,00 0,00 1.717,00 12.545,39 792,88 595,30 0,00 0,00 1.388,18 11.157,21 31/12/2021
913 225800 EURO CESAR VIEIRA BARBOSA ANALISTA DO MP BELO HORIZONTE - COMARCA; BH-17PJ PATRIMONIO PUBLICO-SECRETARIA 18.820,14 7.528,06 0,00 3.981,69 8.782,73 0,00 0,00 1.717,00 40.829,62 4.027,99 7.579,67 0,00 0,00 11.607,66 29.221,96 31/12/2021
914 199400 EUSTAQUIO ADAILTON LIMA E SILVA OFICIAL DO MP MANGA - COMARCA; MANGA-PJ-01PJ 15.272,02 10.690,41 0,00 8.761,73 0,00 0,00 0,00 1.717,00 36.441,16 3.966,27 4.971,04 0,00 0,00 8.937,31 27.503,85 31/12/2021
915 548000 EVA VILMA LEAO REIS JULIO OFICIAL DO MP BELO HORIZONTE - COMARCA; BH-07PJ 01 TRIBUNAL JURI-SECRETARIA 6.123,79 1.837,14 0,00 1.998,67 0,00 0,00 0,00 1.717,00 11.676,60 1.086,03 1.021,24 0,00 0,00 2.107,27 9.569,33 31/12/2021
916 517000 EVALDO SENA COSTA FILHO ANALISTA DO MP CONTAGEM - COMARCA; CONTAGEM-PJ-15PJ 10.069,62 3.020,89 0,00 2.588,73 0,00 0,00 0,00 1.717,00 17.396,24 1.906,76 2.049,76 0,00 0,00 3.956,52 13.439,72 31/12/2021
917 217500 EVELANGE LEAO RABELO ASSESSOR BELO HORIZONTE - COMARCA; CAO-PESSOAS IDOSAS E PESSOAS COM DEFICIENCIA 0,00 2.054,53 5.136,32 2.694,09 0,00 0,00 0,00 1.717,00 11.601,94 1.503,94 1.230,78 0,00 0,00 2.734,72 8.867,22 31/12/2021
918 679600 EVERTON BARBOSA DA SILVA ASSESSOR PROCURADOR JUSTICA BELO HORIZONTE - COMARCA; GABINETE DE PROCURADOR DE JUSTIÇA - SALA 510 0,00 0,00 7.187,72 2.693,39 0,00 0,00 0,00 1.717,00 11.598,11 1.503,94 1.229,92 0,00 0,00 2.733,86 8.864,25 31/12/2021
919 540400 EVIE SARAMELLA DE RESENDE OFICIAL DO MP BARBACENA - COMARCA; BARBACENA-PJ-05PJ 6.123,79 612,38 0,00 1.845,87 4.490,78 0,00 0,00 1.717,00 14.789,82 890,06 1.973,28 0,00 0,00 2.863,34 11.926,48 31/12/2021
920 469000 EWERTON CARDOSO DE SA RODRIGUES ANALISTA DO MP CAMPO BELO - COMARCA; CAMPO BELO-PJ-02PJ 10.069,62 2.013,92 0,00 2.426,84 4.027,85 0,00 0,00 2.486,39 21.024,62 1.745,64 2.976,95 0,00 0,00 4.722,59 16.302,03 31/12/2021
921 368900 FABIANA BARBOSA SIQUEIRA OFICIAL DO MP BELO HORIZONTE - COMARCA; CAO-ORDEM ECONOMICA E TRIBUTARIA-SECRETARIA 10.069,62 2.013,92 0,00 8.416,47 0,00 0,00 0,00 1.717,00 22.217,01 1.745,64 1.921,43 0,00 0,00 3.667,07 18.549,94 31/12/2021
922 273800 FABIANA CARNEIRO AMORIM COORDENADOR/OFICIAL BELO HORIZONTE - COMARCA; BH-23PJ CIVEL-COORD ADM CIVEL 12.204,02 3.661,21 2.363,83 3.212,42 6.076,35 0,00 0,00 1.717,00 29.234,83 2.350,71 5.063,91 0,00 0,00 7.414,62 21.820,21 31/12/2021
923 519300 FABIANA DE OLIVEIRA LOUREIRO ANALISTA DO MP BELO HORIZONTE - COMARCA; BH-09PJ AUDITORIA MILITAR-SECRETARIA 10.069,62 1.006,96 0,00 2.212,81 3.692,19 0,00 0,00 1.717,00 18.698,58 1.584,53 2.756,31 0,00 0,00 4.340,84 14.357,74 31/12/2021
924 363400 FABIANA DOURADO DUPIN VIEGAS ANALISTA DO MP BELO HORIZONTE - COMARCA; GABINETE DE PROCURADOR DE JUSTIÇA - SALA 705 16.750,82 5.025,25 0,00 7.039,27 0,00 0,00 0,00 1.717,00 30.532,34 3.296,45 4.160,40 0,00 0,00 7.456,85 23.075,49 31/12/2021
925 410800 FABIANA DUARTE QUITITE ANALISTA DO MP BELO HORIZONTE - COMARCA; BH-15PJ M AMB PAT HIST CULT-GAB 116PJ 14.324,23 2.864,85 0,00 3.666,70 5.729,69 0,00 0,00 1.717,00 28.302,47 2.562,53 4.728,61 0,00 0,00 7.291,14 21.011,33 31/12/2021
926 419500 FABIANA EULALIA DOS SANTOS ANALISTA DO MP SÃO JOÃO DEL REI - COMARCA; SAO JOAO DEL REI-PJ-01PJ 14.324,23 2.864,85 0,00 5.257,14 5.729,69 0,00 0,00 1.717,00 29.892,91 2.562,53 4.728,61 0,00 0,00 7.291,14 22.601,77 31/12/2021
927 700300 FABIANA MARCIA DE SOUZA ASSESSOR BELO HORIZONTE - COMARCA; DIRET DE CONTROLE E DE MANUTENCAO DE IMOVEIS 0,00 0,00 3.076,28 1.648,21 0,00 0,00 0,00 1.717,00 6.441,49 736,24 224,40 0,00 0,00 960,64 5.480,85 31/12/2021
928 376300 FABIANA MATTOSO LEMOS ANALISTA DO MP BELO HORIZONTE - COMARCA; BH-21PJ TUTELA FUNDACOES-SECRETARIA 14.790,66 2.958,13 0,00 3.219,93 0,00 0,00 0,00 1.717,00 22.685,72 2.652,08 3.282,24 0,00 0,00 5.934,32 16.751,40 31/12/2021
929 331500 FABIANA PACHECO OFICIAL DO MP GUAXUPÉ - COMARCA; GUAXUPE-PJ-01PJ 10.069,62 3.020,89 0,00 2.536,59 0,00 0,00 0,00 2.486,39 18.113,49 1.906,76 2.101,90 0,00 0,00 4.008,66 14.104,83 31/12/2021
930 510700 FABIANA PEREIRA SANTOS BORGES ANALISTA DO MP BELO HORIZONTE - COMARCA; DIRETORIA DE SISTEMAS DE INFORMACAO 10.069,62 2.013,92 0,00 2.878,18 0,00 0,00 0,00 1.717,00 16.678,72 1.745,64 1.921,43 0,00 0,00 3.667,07 13.011,65 31/12/2021
931 181700 FABIANA SOUZA FERREIRA OFICIAL DO MP BELO HORIZONTE - COMARCA; BH-19PJ SAUDE-SECRETARIA 150PJ 6.123,79 2.449,52 0,00 2.044,22 2.857,77 0,00 0,00 1.717,00 15.192,30 1.184,01 1.844,31 0,00 0,00 3.028,32 12.163,98 31/12/2021
932 272900 FABIANA STOCKLER LEITE OFICIAL DO MP LAJINHA - COMARCA; LAJINHA-PJ-SECRETARIA 10.069,62 5.034,81 0,00 2.703,97 0,00 0,00 0,00 1.717,00 19.525,40 2.228,99 2.619,25 0,00 0,00 4.848,24 14.677,16 31/12/2021
933 225500 FABIANE DE FATIMA PORTELLA ANALISTA DO MP BELO HORIZONTE - COMARCA; BH-18PJ DIREITOS HUMANOS-SECRETARIA 18.820,14 5.646,04 0,00 3.672,27 0,00 0,00 0,00 1.717,00 29.855,45 3.726,87 4.833,95 0,00 0,00 8.560,82 21.294,63 31/12/2021
934 433800 FABIANE DINIZ MATTOS ANALISTA DO MP BELO HORIZONTE - COMARCA; BH-23PJ INFRACIONAL-ASS JURIDICA 14.324,23 2.864,85 0,00 2.707,36 0,00 0,00 3.535,92 1.717,00 25.149,36 3.128,28 3.969,74 0,00 0,00 7.098,02 18.051,34 31/12/2021
935 455000 FABIANO CARVALHO DA SILVA ANALISTA DO MP LAVRAS - COMARCA; LAVRAS-PJ-05PJ 10.069,62 2.013,92 0,00 2.322,57 0,00 0,00 0,00 1.717,00 16.123,11 1.745,64 1.973,56 0,00 0,00 3.719,20 12.403,91 31/12/2021
936 498800 FABIANO FURTADO PESSOA COELHO ANALISTA DO MP BELO HORIZONTE - COMARCA; DIRETORIA DE REDES E BANCOS DE DADOS 10.069,62 2.013,92 0,00 2.878,18 4.027,85 0,00 0,00 1.717,00 20.706,57 1.745,64 3.029,08 0,00 0,00 4.774,72 15.931,85 31/12/2021
937 663000 FABIANO MARQUES CORREA ASSESSOR BELO HORIZONTE - COMARCA; DIRETORIA DE SUPORTE E MANUTENCAO 0,00 0,00 5.136,32 2.176,95 0,00 0,00 0,00 1.717,00 9.030,27 1.308,46 669,60 0,00 0,00 1.978,06 7.052,21 31/12/2021
938 394600 FABIANO PALHARES SILVA ANALISTA DO MP BELO HORIZONTE - COMARCA; CENTRAL DE APOIO TECN-SETOR DE MEIO AMBIENTE 14.790,66 2.958,13 0,00 2.931,21 0,00 0,00 520,63 7.396,61 28.597,24 2.652,08 3.230,10 0,00 0,00 5.882,18 22.715,06 31/12/2021
939 676600 FABIANO RESENDE VELOSO ASSESSOR PROCURADOR JUSTICA BELO HORIZONTE - COMARCA; GABINETE DE PROCURADOR DE JUSTIÇA - SALA 1002 0,00 0,00 7.187,72 2.693,39 2.395,91 0,00 0,00 1.717,00 13.994,02 1.503,94 1.888,80 0,00 0,00 3.392,74 10.601,28 31/12/2021
940 444400 FABIANO SARAIVA MEDEIROS ANALISTA DO MP BETIM - COMARCA; BETIM-PJ-11PJ 13.011,52 2.602,30 0,00 2.757,98 5.204,61 0,00 0,00 1.717,00 25.293,41 2.310,49 4.116,05 0,00 0,00 6.426,54 18.866,87 31/12/2021
941 408700 FABIANO SOARES PORTILHO ANALISTA DO MP JUIZ DE FORA - COMARCA; GAECO REGIONAL DA ZONA DA MATA-JUIZ DE FORA 14.324,23 2.864,85 0,00 2.707,36 5.729,69 0,00 0,00 1.717,00 27.343,13 2.562,53 4.728,61 0,00 0,00 7.291,14 20.051,99 31/12/2021
942 442600 FABIO CARVALHO VIEIRA ANALISTA DO MP MONTES CLAROS - COMARCA; MONTES CLAROS-PJ-06PJ 10.069,62 2.013,92 0,00 2.513,05 4.027,85 0,00 0,00 1.717,00 20.341,44 1.745,64 3.081,22 0,00 0,00 4.826,86 15.514,58 31/12/2021
943 702700 FABIO JUNIOR COSTA BARREIROS ASSESSOR BELO HORIZONTE - COMARCA; DIVISAO DE MANUTENCAO PREDIAL 0,00 0,00 3.076,28 1.608,11 0,00 0,00 0,00 2.486,39 7.170,78 643,95 162,01 0,00 0,00 805,96 6.364,82 31/12/2021
944 240101 FABIO JUNQUEIRA DE ASSIS FONSECA OFICIAL DO MP BELO HORIZONTE - COMARCA; BH-17PJ PATRIMONIO PUBLICO-SECRETARIA 8.436,53 2.530,96 0,00 2.571,74 0,00 0,00 0,00 1.717,00 15.256,23 1.567,08 1.715,75 0,00 0,00 3.282,83 11.973,40 31/12/2021
945 271500 FABIO LUIZ VIEIRA OFICIAL DO MP SANTA VITÓRIA - COMARCA; SANTA VITORIA-PJ-UNPJ 10.069,62 3.020,89 0,00 2.536,59 4.363,50 0,00 0,00 1.747,00 21.737,60 1.906,76 3.301,86 0,00 0,00 5.208,62 16.528,98 31/12/2021
946 213100 FABIO PRATES GONCALVES ASSESSOR BELO HORIZONTE - COMARCA; DIR RELACOES INSTITUCIONAIS 0,00 4.159,01 10.397,52 4.507,78 4.852,18 0,00 0,00 1.717,00 25.633,49 1.503,94 4.434,28 0,00 0,00 5.938,22 19.695,27 31/12/2021
947 436700 FABIO SANTIAGO DE CARVALHO OFICIAL DO MP POÇO FUNDO - COMARCA; POCO FUNDO-PJ-UNPJ 8.858,43 1.771,69 0,00 2.127,61 3.543,37 0,00 0,00 1.717,00 18.018,10 1.513,10 2.612,25 0,00 0,00 4.125,35 13.892,75 31/12/2021
948 208400 FABIOLA DE SOUSA CARDOSO ASSESSOR/ANALISTA BELO HORIZONTE - COMARCA; CGMP-ASSESSORIA JURIDICA 18.820,14 7.528,06 2.520,26 4.444,47 9.622,82 0,00 0,00 1.717,00 44.652,75 4.027,99 8.608,04 0,00 0,00 12.636,03 32.016,72 31/12/2021
949 392200 FABIOLA LEROY COSTA ANALISTA DO MP ESMERALDAS - COMARCA; ESMERALDAS-PJ-01PJ 10.069,62 2.013,92 0,00 8.364,34 0,00 0,00 0,00 3.255,78 23.703,66 1.745,64 1.973,56 0,00 0,00 3.719,20 19.984,46 31/12/2021
950 409000 FABIOLA MONTEIRO DE CARVALHO CASTRO ANALISTA DO MP BOM SUCESSO - COMARCA; BOM SUCESSO-PJ-UNPJ 12.204,02 2.440,80 0,00 3.272,81 4.881,61 0,00 0,00 1.717,00 24.516,24 2.155,45 3.907,66 0,00 0,00 6.063,11 18.453,13 31/12/2021
951 525800 FABRICIA ALVES DANTAS OFICIAL DO MP MONTES CLAROS - COMARCA; MONTES CLAROS-PJ-01PJ 7.663,37 766,34 0,00 1.999,60 2.809,90 0,00 0,00 1.717,00 14.956,21 1.161,03 1.850,11 0,00 0,00 3.011,14 11.945,07 31/12/2021
952 263400 FABRICIA PINTO TEIXEIRA SANTIAGO OFICIAL DO MP BELO HORIZONTE - COMARCA; CAO-FUNDACOES-SECRETARIA 13.011,52 3.903,46 0,00 2.895,33 0,00 0,00 0,00 1.717,00 21.527,31 2.518,67 2.985,35 0,00 0,00 5.504,02 16.023,29 31/12/2021
953 420800 FABRICIO BERNARDES DE OLIVEIRA OFICIAL DO MP ITURAMA - COMARCA; ITURAMA-PJ-02PJ 8.858,43 1.771,69 0,00 2.179,75 3.543,37 0,00 0,00 1.717,00 18.070,24 1.513,10 2.560,11 0,00 0,00 4.073,21 13.997,03 31/12/2021
954 474000 FABRICIO DE FREITAS SALES ANALISTA DO MP MONTES CLAROS - COMARCA; COORD REG PATRI PUB ORD TRIB-NORTE MINAS 10.069,62 2.013,92 0,00 2.322,57 0,00 0,00 0,00 1.717,00 16.123,11 1.745,64 1.973,56 0,00 0,00 3.719,20 12.403,91 31/12/2021
955 510100 FABRICIO FURTADO ASSIS DO CARMO ANALISTA DO MP BELO HORIZONTE - COMARCA; SERVICO MEDICO-DEPTO PERIC MEDICA SAUDE OCUP 10.069,62 2.013,92 0,00 3.042,83 0,00 0,00 963,51 3.255,78 19.345,66 1.745,64 2.238,53 0,00 0,00 3.984,17 15.361,49 31/12/2021
956 519600 FABRICIO GONTIJO SALVATI ANALISTA DO MP JUIZ DE FORA - COMARCA; JUIZ DE FORA-CAO ESPECIALIZADO-SECRETARIA 10.069,62 1.006,96 0,00 3.875,56 0,00 0,00 0,00 1.717,00 16.669,14 1.584,53 1.740,95 0,00 0,00 3.325,48 13.343,66 31/12/2021
957 637400 FABRICIO HENRIQUE DA SILVA PASSOS ASSESSOR/ANALISTA BELO HORIZONTE - COMARCA; DIR CRIACAO E MIDIAS 0,00 1.039,75 10.397,52 4.046,76 0,00 0,00 0,00 1.717,00 17.201,03 1.422,14 1.884,80 0,00 0,00 3.306,94 13.894,09 31/12/2021
958 428200 FABRICIO ORZIL VIANA ANALISTA DO MP SANTA LUZIA - COMARCA; SANTA LUZIA-PJ-04PJ 10.069,62 2.013,92 0,00 4.182,17 0,00 0,00 0,00 1.717,00 17.982,71 1.745,64 1.973,56 0,00 0,00 3.719,20 14.263,51 31/12/2021
959 455600 FABRICIO PAIVA DA ROCHA ANALISTA DO MP SÃO JOÃO DEL REI - COMARCA; SAO JOAO DEL REI-PJ-06PJ 10.069,62 2.013,92 0,00 2.374,70 0,00 0,00 0,00 2.486,39 16.944,63 1.745,64 1.921,43 0,00 0,00 3.667,07 13.277,56 31/12/2021
960 511500 FABRICIO RENE CARDOSO DE PADUA ANALISTA DO MP SÃO SEBASTIÃO DO PARAÍSO - COMARCA; SAO SEBASTIAO DO PARAISO-PJ-03PJ 10.069,62 2.013,92 0,00 2.826,05 0,00 0,00 0,00 1.717,00 16.626,59 1.745,64 1.973,56 0,00 0,00 3.719,20 12.907,39 31/12/2021
961 496100 FABRICIO RESENDE GONCALVES OFICIAL DO MP ENTRE-RIOS DE MINAS - COMARCA; ENTRE RIOS DE MINAS-PJ-UNPJ 7.663,37 1.532,67 0,00 6.429,31 0,00 0,00 0,00 2.486,39 18.111,74 1.283,64 1.306,55 0,00 0,00 2.590,19 15.521,55 31/12/2021
962 650300 FABRICIO ROBERTO AZEVEDO OFICIAL DO MP NOVA SERRANA - COMARCA; NOVA SERRANA-PJ-04PJ 4.817,57 481,76 0,00 1.585,88 0,00 0,00 0,00 1.717,00 8.602,21 668,35 405,84 0,00 0,00 1.074,19 7.528,02 31/12/2021
963 514900 FADUA MARIA DRUMOND CHEQUER ANALISTA DO MP BETIM - COMARCA; BETIM-PJ-12PJ 10.069,62 1.006,96 0,00 3.927,69 0,00 0,00 0,00 1.717,00 16.721,27 1.584,53 1.636,68 0,00 0,00 3.221,21 13.500,06 31/12/2021
964 282500 FANNY FERREIRA MELO OFICIAL DO MP ARAXÁ - COMARCA; ARAXA-PJ-03PJ 8.436,53 2.530,96 0,00 2.200,91 3.655,83 0,00 0,00 1.717,00 18.541,23 1.567,08 2.721,11 0,00 0,00 4.288,19 14.253,04 31/12/2021
965 692500 FARID JUNIOR NUNES DA SILVA ASSESSOR PROCURADOR JUSTICA BELO HORIZONTE - COMARCA; GABINETE DE PROCURADOR DE JUSTIÇA - SALA 902 0,00 0,00 7.187,72 2.797,66 2.395,91 0,00 0,00 1.717,00 14.098,29 1.503,94 1.784,52 0,00 0,00 3.288,46 10.809,83 31/12/2021
966 540100 FATIMA CRISTINA POVOA DA COSTA ASSESSOR/OFICIAL BELO HORIZONTE - COMARCA; BH-18PJ VIOLENCIA DOMESTICA-SECRETARIA 0,00 3.119,26 10.397,52 3.796,56 4.505,59 3.239,66 0,00 1.717,00 26.775,59 1.170,33 4.086,79 0,00 2.069,33 7.326,45 19.449,14 31/12/2021
967 382800 FATIMA DE OLIVEIRA COELHO E SILVA OFICIAL DO MP BELO HORIZONTE - COMARCA; DIRETORIA DE ADMINISTRACAO FINANCEIRA 7.421,79 2.226,54 0,00 2.261,41 0,00 0,00 0,00 1.717,00 13.626,74 1.356,01 1.358,89 0,00 0,00 2.714,90 10.911,84 31/12/2021
968 398601 FELIPE ANTONIO HORTA DE PAULA ANALISTA DO MP BELO HORIZONTE - COMARCA; PROC. JUSTICA DIR. DIFUSOS E COLETIVOS-SEC 9.444,70 944,47 0,00 2.301,66 0,00 0,00 0,00 1.717,00 14.407,83 1.474,54 1.582,16 0,00 0,00 3.056,70 11.351,13 31/12/2021
969 430900 FELIPE BOY VIEIRA ANALISTA DO MP BELO HORIZONTE - COMARCA; DIRETORIA DE SEGURANCA 12.601,30 2.520,26 0,00 3.859,69 0,00 0,00 0,00 1.717,00 20.698,25 841,65 2.863,18 0,00 55,45 3.760,28 16.937,97 31/12/2021
970 631700 FELIPE DE MORAIS SIMOES COELHO ANALISTA DO MP BELO HORIZONTE - COMARCA; BH-18PJ VIOLENCIA DOMESTICA-SECRETARIA 8.436,53 843,65 0,00 1.924,29 0,00 0,00 0,00 1.717,00 12.921,47 1.297,11 1.325,98 0,00 0,00 2.623,09 10.298,38 31/12/2021
971 549100 FELIPE FERNANDES ALVIM ANALISTA DO MP LAJINHA - COMARCA; LAJINHA-PJ-UNPJ 9.444,70 944,47 0,00 2.301,66 3.463,06 0,00 0,00 2.486,39 18.640,28 1.474,54 2.534,50 0,00 0,00 4.009,04 14.631,24 31/12/2021
972 693100 FELIPE FROIS DO AMARAL ASSESSOR PROMOTOR JUSTICA RIBEIRÃO DAS NEVES - COMARCA; RIBEIRAO NEVES-SEC PJ EXECUCAO PENAL 0,00 0,00 7.187,72 2.797,66 0,00 0,00 0,00 1.717,00 11.702,38 1.503,94 1.125,65 0,00 0,00 2.629,59 9.072,79 31/12/2021
973 620100 FELIPE GOMES DE AZEVEDO ASSESSOR/OFICIAL BELO HORIZONTE - COMARCA; DIVISAO DE SERVICOS 0,00 817,05 8.170,49 2.338,41 0,00 0,00 0,00 1.717,00 13.042,95 762,96 1.392,40 0,00 0,00 2.155,36 10.887,59 31/12/2021
974 601600 FELIPE RODRIGUES DE SIQUEIRA ANALISTA DO MP BELO HORIZONTE - COMARCA; BH-02PJ FAMILIA-SECRETARIA 9.444,70 944,47 0,00 2.842,09 3.463,06 0,00 0,00 1.717,00 18.411,32 877,68 2.263,97 0,00 0,00 3.141,65 15.269,67 31/12/2021
975 628900 FELIX FERNANDO JUNIO VIEIRA ANALISTA DO MP CAETÉ - COMARCA; CAETE-PJ-02PJ 9.146,93 914,69 0,00 3.744,56 3.353,87 0,00 0,00 1.717,00 18.877,05 1.422,14 2.376,67 0,00 0,00 3.798,81 15.078,24 31/12/2021
976 544500 FELLIPE LEMOS MARCONDES BUENO ANALISTA DO MP SÃO SEBASTIÃO DO PARAÍSO - COMARCA; SAO SEBASTIAO DO PARAISO-PJ-04PJ 9.444,70 944,47 0,00 2.301,66 0,00 0,00 38,09 2.132,57 14.861,49 1.474,54 1.582,16 0,00 0,00 3.056,70 11.804,79 31/12/2021
977 688500 FELLIPE TADEU DE ANDRADE RAMOS ASSESSOR PROCURADOR JUSTICA BELO HORIZONTE - COMARCA; GABINETE DE PROCURADOR DE JUSTIÇA - SALA 907 0,00 0,00 7.187,72 2.693,39 0,00 0,00 0,00 1.717,00 11.598,11 1.503,94 1.229,92 0,00 0,00 2.733,86 8.864,25 31/12/2021
978 612600 FERNANDA ADRIANA DE PAULA GUIDO ANALISTA DO MP PARACATU - COMARCA; PARACATU-PJ-02PJ 9.146,93 914,69 0,00 2.492,89 0,00 0,00 0,00 2.486,39 15.040,90 1.422,14 1.506,50 0,00 0,00 2.928,64 12.112,26 31/12/2021
979 508400 FERNANDA AGANETTI MATTOS DE OLIVEIRA ANALISTA DO MP BELO HORIZONTE - COMARCA; JUNTA RECURSAL DO PROCON ESTADUAL 10.069,62 2.013,92 0,00 2.826,05 0,00 0,00 0,00 2.486,39 17.395,98 1.745,64 1.973,56 0,00 0,00 3.719,20 13.676,78 31/12/2021
980 453600 FERNANDA ALBERNAZ RABELO ANALISTA DO MP BELO HORIZONTE - COMARCA; GABINETE DE PROCURADOR DE JUSTIÇA - SALA 616 10.069,62 2.013,92 0,00 2.322,57 0,00 0,00 0,00 1.717,00 16.123,11 1.745,64 1.973,56 0,00 0,00 3.719,20 12.403,91 31/12/2021
981 255600 FERNANDA ALINA DE ALMEIDA ANDRADE OFICIAL DO MP BELO HORIZONTE - COMARCA; DIRETORIA DE INTELIGENCIA 10.069,62 3.020,89 0,00 2.432,32 4.363,50 0,00 527,98 7.476,82 27.891,13 1.906,76 3.406,13 0,00 0,00 5.312,89 22.578,24 31/12/2021
982 443200 FERNANDA ALMEIDA LOPES ANALISTA DO MP CONTAGEM - COMARCA; CONTAGEM-PJ-10PJ 13.011,52 2.602,30 0,00 3.057,77 0,00 0,00 0,00 3.255,78 21.927,37 2.310,49 2.684,78 0,00 0,00 4.995,27 16.932,10 31/12/2021
983 281100 FERNANDA ANANIAS MEIRA ANALISTA DO MP BELO HORIZONTE - COMARCA; BH-23PJ INFRACIONAL-ASS JURIDICA 17.413,92 5.224,18 0,00 3.904,02 7.546,03 0,00 2.328,48 1.717,00 38.133,63 3.806,93 7.024,70 0,00 0,00 10.831,63 27.302,00 31/12/2021
984 539000 FERNANDA BARBOSA ALVES ANALISTA DO MP UBERABA - COMARCA; UBERABA-PJ-04PJ 9.444,70 944,47 0,00 2.301,66 0,00 0,00 0,00 2.486,39 15.177,22 1.474,54 1.582,16 0,00 0,00 3.056,70 12.120,52 31/12/2021
985 451200 FERNANDA BLOISE PRADO OFICIAL DO MP BELO HORIZONTE - COMARCA; BH-12PJ JUIZO CRIMINAL-SECRETARIA 8.436,53 1.687,31 0,00 2.074,16 3.374,61 0,00 0,00 1.717,00 17.289,61 1.432,09 2.448,89 0,00 0,00 3.880,98 13.408,63 31/12/2021
986 427900 FERNANDA BRAGA CARNEIRO BICALHO ANALISTA DO MP PEÇANHA - COMARCA; PECANHA-PJ-SECRETARIA 10.069,62 2.013,92 0,00 2.374,70 0,00 0,00 0,00 2.486,39 16.944,63 1.745,64 1.921,43 0,00 0,00 3.667,07 13.277,56 31/12/2021
987 507100 FERNANDA CABRINI VAZ MOTA ANALISTA DO MP BELO HORIZONTE - COMARCA; DIVISAO DE MATERIAIS 10.069,62 2.013,92 0,00 2.826,05 0,00 0,00 0,00 3.255,78 18.165,37 1.745,64 1.973,56 0,00 0,00 3.719,20 14.446,17 31/12/2021
988 259800 FERNANDA CALZAVARA DE SOUSA COORDENADOR/OFICIAL BELO HORIZONTE - COMARCA; DIRET DE FORMACAO, APERFEIC. E POS-GRADUACAO 13.011,52 3.903,46 2.687,03 3.447,78 0,00 0,00 0,00 1.717,00 24.766,79 2.518,67 3.776,42 0,00 0,00 6.295,09 18.471,70 31/12/2021
989 494400 FERNANDA CAMPOS BARATA OFICIAL DO MP JUIZ DE FORA - COMARCA; JUIZ DE FORA-PJ-08PJ 6.123,79 1.224,76 0,00 2.112,63 0,00 0,00 0,00 1.717,00 11.178,18 988,05 879,78 0,00 0,00 1.867,83 9.310,35 31/12/2021
990 555600 FERNANDA CAROLINE RIBEIRO ANALISTA DO MP BELO HORIZONTE - COMARCA; DIRETORIA GESTAO CONTRATOS CONVENIOS 9.444,70 944,47 0,00 2.301,66 0,00 0,00 0,00 1.717,00 14.407,83 1.474,54 1.582,16 0,00 0,00 3.056,70 11.351,13 31/12/2021
991 692000 FERNANDA CESAR SILVA ASSESSOR PROCURADOR JUSTICA BELO HORIZONTE - COMARCA; GABINETE DE PROCURADOR DE JUSTIÇA - SALA 809 0,00 0,00 7.187,72 3.519,63 2.395,91 0,00 0,00 1.717,00 14.820,26 1.503,94 1.888,80 0,00 0,00 3.392,74 11.427,52 31/12/2021
992 294500 FERNANDA COSTA FLORES OFICIAL DO MP PARÁ DE MINAS - COMARCA; PARA DE MINAS-PJ-04PJ 10.069,62 3.020,89 0,00 2.432,32 4.363,50 0,00 0,00 1.717,00 21.603,33 1.906,76 3.406,13 0,00 0,00 5.312,89 16.290,44 31/12/2021
993 344500 FERNANDA CRISTINA DE SOUZA PAZ ASSESSOR BELO HORIZONTE - COMARCA; CENTRAL DE APOIO TECN-SETOR DE MEIO AMBIENTE 0,00 0,00 5.136,32 2.262,27 0,00 0,00 0,00 1.717,00 9.115,59 1.308,46 565,33 0,00 0,00 1.873,79 7.241,80 31/12/2021
994 538100 FERNANDA CRISTINA DOS SANTOS ROSA OFICIAL DO MP RIBEIRÃO DAS NEVES - COMARCA; RIBEIRAO DAS NEVES-PJ-09PJ 6.123,79 1.837,14 0,00 5.853,66 0,00 0,00 0,00 1.717,00 15.531,59 1.086,03 1.021,24 0,00 0,00 2.107,27 13.424,32 31/12/2021
995 337800 FERNANDA CRISTINA ROLAND CLIMACO MENDES COORDENADOR/OFICIAL BELO HORIZONTE - COMARCA; DIRETORIA DE PAGAMENTO DE PESSOAL-DPAG 12.204,02 3.661,21 2.687,03 3.263,54 6.184,09 0,00 0,00 1.717,00 29.716,89 2.350,71 5.286,69 0,00 0,00 7.637,40 22.079,49 31/12/2021
996 545400 FERNANDA CUNHA GUIMARAES ANALISTA DO MP BELO HORIZONTE - COMARCA; EXTINTA-COORD EST DEF DIR FAM PES DEFIC IDOSO 9.444,70 944,47 0,00 3.765,98 3.463,06 0,00 0,00 1.717,00 19.335,21 1.474,54 2.534,50 0,00 0,00 4.009,04 15.326,17 31/12/2021
997 429801 FERNANDA CUNHA PINHEIRO DA SILVA ANALISTA DO MP BELO HORIZONTE - COMARCA; ASSESSORIA DE COMUNICACAO INTEGRADA 10.069,62 2.013,92 0,00 4.934,65 0,00 0,00 684,72 1.717,00 19.419,91 1.745,64 1.869,29 0,00 0,00 3.614,93 15.804,98 31/12/2021
998 408000 FERNANDA DAS NEVES RAMOS ANALISTA DO MP BELO HORIZONTE - COMARCA; FEPDC-SECRETARIA EXECUTIVA 14.324,23 2.864,85 0,00 2.707,36 0,00 0,00 0,00 2.486,39 22.382,83 2.562,53 3.152,94 0,00 0,00 5.715,47 16.667,36 31/12/2021
999 496000 FERNANDA DE ALMEIDA VIANA ANALISTA DO MP BELO HORIZONTE - COMARCA; PROC JUST ATUACAO TRIBUNAIS SUPERIORES-GAB002 10.069,62 2.013,92 0,00 2.930,32 0,00 0,00 0,00 3.255,78 18.269,64 1.745,64 1.869,29 0,00 0,00 3.614,93 14.654,71 31/12/2021
1000 266700 FERNANDA DE CASTRO LUCAS COORDENADOR/OFICIAL BELO HORIZONTE - COMARCA; DIRET DE DESENV DE RECURSOS HUMANOS-DDRH 13.011,52 3.903,46 2.687,03 3.447,78 6.534,00 0,00 0,00 2.486,39 32.070,18 2.518,67 5.573,27 0,00 0,00 8.091,94 23.978,24 31/12/2021
1001 433200 FERNANDA DE FIGUEIREDO NORTE ANALISTA DO MP BELO HORIZONTE - COMARCA; ASSESS JUR DO CONS SUPERIOR DO MINISTERIO PUB 14.324,23 2.864,85 0,00 2.811,64 5.729,69 0,00 0,00 1.717,00 27.447,41 2.562,53 4.624,33 0,00 0,00 7.186,86 20.260,55 31/12/2021
1002 419200 FERNANDA DE MIRANDA MARTINS SIMOES ANALISTA DO MP UBERLÂNDIA - COMARCA; UBERLANDIA-PJ-17PJ 14.324,23 2.864,85 0,00 3.666,70 5.729,69 0,00 0,00 2.486,39 29.071,86 2.562,53 4.728,61 0,00 0,00 7.291,14 21.780,72 31/12/2021
1003 441400 FERNANDA DE MORAIS PINTO ANALISTA DO MP BELO HORIZONTE - COMARCA; PROC. JUSTICA DIR. DIFUSOS E COLETIVOS-SEC 13.011,52 2.602,30 0,00 2.653,71 0,00 0,00 0,00 1.717,00 19.984,53 2.310,49 2.789,06 0,00 0,00 5.099,55 14.884,98 31/12/2021
1004 432200 FERNANDA DE MOURA GUIMARAES ANALISTA DO MP BELO HORIZONTE - COMARCA; BH-26 CRIME CONT CRIAN ADOL-SECRETARIA 13.011,52 2.602,30 0,00 2.953,49 5.204,61 0,00 0,00 1.717,00 25.488,92 2.310,49 4.220,32 0,00 0,00 6.530,81 18.958,11 31/12/2021
1005 461800 FERNANDA DE OLIVEIRA SANTOS ANALISTA DO MP JUIZ DE FORA - COMARCA; JUIZ DE FORA-PJ-21PJ 11.085,56 2.217,11 0,00 2.809,62 0,00 0,00 0,00 2.486,39 18.598,68 1.940,70 2.255,18 0,00 0,00 4.195,88 14.402,80 31/12/2021
1006 432500 FERNANDA DE PAULA PINTO ANALISTA DO MP BELO HORIZONTE - COMARCA; PROC JUST ATUACAO TRIBUNAIS SUPERIORES-GAB003 13.011,52 2.602,30 0,00 2.653,71 0,00 0,00 0,00 2.486,39 20.753,92 2.310,49 2.789,06 0,00 0,00 5.099,55 15.654,37 31/12/2021
1007 431600 FERNANDA DIAS BARBOSA PEREIRA ANALISTA DO MP BELO HORIZONTE - COMARCA; BH-02PJ FAMILIA-SECRETARIA 13.011,52 2.602,30 0,00 5.459,18 5.204,61 0,00 0,00 2.486,39 28.764,00 2.310,49 4.116,05 0,00 0,00 6.426,54 22.337,46 31/12/2021
1008 162200 FERNANDA FERNANDES MONTEIRO ASSESSOR BELO HORIZONTE - COMARCA; BH-12PJ JUIZO CRIMINAL-SECRETARIA 0,00 2.054,53 5.136,32 2.746,23 2.396,95 0,00 0,00 1.717,00 14.051,03 1.503,94 1.837,81 0,00 0,00 3.341,75 10.709,28 31/12/2021
1009 512800 FERNANDA FERREIRA BARBOSA MOREIRA ANALISTA DO MP IPATINGA - COMARCA; IPATINGA-PJ-05PJ 10.069,62 2.013,92 0,00 2.826,05 4.027,85 0,00 0,00 2.486,39 21.423,83 1.745,64 3.081,22 0,00 0,00 4.826,86 16.596,97 31/12/2021
1010 329200 FERNANDA GABRIEL GUZELLA OFICIAL DO MP BELO HORIZONTE - COMARCA; DIRET DE PLANOS PROJETOS E PROGRAMAS INST 10.069,62 3.020,89 0,00 2.638,69 0,00 0,00 0,00 1.717,00 17.446,20 1.906,76 2.206,17 0,00 0,00 4.112,93 13.333,27 31/12/2021
1011 324200 FERNANDA GEORGIA NEVES ZAHAN OFICIAL DO MP IPANEMA - COMARCA; IPANEMA-PJ-SECRETARIA 8.436,53 5.905,57 0,00 2.568,75 0,00 0,00 0,00 1.717,00 18.627,85 2.107,01 2.495,29 0,00 0,00 4.602,30 14.025,55 31/12/2021
1012 548200 FERNANDA GONCALVES DE CARVALHO ZUZA OFICIAL DO MP TUPACIGUARA - COMARCA; TUPACIGUARA-PJ-01PJ 6.123,79 612,38 0,00 1.845,87 2.245,39 0,00 0,00 1.717,00 12.544,43 890,06 1.355,80 0,00 0,00 2.245,86 10.298,57 31/12/2021
1013 355400 FERNANDA HELENA BASQUES OFICIAL DO MP SABARÁ - COMARCA; SABARA-PJ-01PJ 10.069,62 3.020,89 0,00 3.489,42 0,00 0,00 0,00 1.717,00 18.296,93 1.906,76 2.206,17 0,00 0,00 4.112,93 14.184,00 31/12/2021
1014 454800 FERNANDA IATAROLA BARBOSA DIAS ANALISTA DO MP BARBACENA - COMARCA; BARBACENA-PJ-05PJ 11.085,56 2.217,11 0,00 2.717,28 4.434,22 0,00 0,00 1.717,00 22.171,17 1.940,70 3.422,46 0,00 0,00 5.363,16 16.808,01 31/12/2021
1015 515500 FERNANDA LILIANE MARUGEIRO ANALISTA DO MP LAGOA SANTA - COMARCA; LAGOA SANTA-PJ-01PJ 10.069,62 2.013,92 0,00 3.271,90 0,00 0,00 684,72 3.255,78 19.295,94 1.745,64 1.921,43 0,00 0,00 3.667,07 15.628,87 31/12/2021
1016 392900 FERNANDA MAGALHAES SILVA ANALISTA DO MP BELO HORIZONTE - COMARCA; DIR CONTEUDO JORNALISTICO 14.790,66 2.958,13 0,00 3.219,93 0,00 0,00 0,00 1.717,00 22.685,72 2.652,08 3.282,24 0,00 0,00 5.934,32 16.751,40 31/12/2021
1017 409200 FERNANDA MAIA SANTIAGO CARDOSO ANALISTA DO MP PIRAPORA - COMARCA; PIRAPORA-PJ-02PJ 10.069,62 2.013,92 0,00 2.322,57 0,00 0,00 0,00 2.486,39 16.892,50 1.745,64 1.973,56 0,00 0,00 3.719,20 13.173,30 31/12/2021
1018 714100 FERNANDA MELO FIORENZANO REIS ASSESSOR BELO HORIZONTE - COMARCA; DIR CONTEUDO JORNALISTICO 0,00 0,00 10.397,52 866,46 0,00 0,00 3.119,26 2.617,18 17.000,42 751,97 2.217,44 0,00 0,00 2.969,41 14.031,01 31/12/2021
1019 556500 FERNANDA OTERO COSTA ANALISTA DO MP BELO HORIZONTE - COMARCA; ASSESS TECNICO-JUR JUNTO AS PROC. DE JUST 10.069,62 1.006,96 0,00 2.212,81 0,00 0,00 0,00 1.717,00 15.006,39 1.584,53 1.740,95 0,00 0,00 3.325,48 11.680,91 31/12/2021
1020 615300 FERNANDA PATRICIA RIBEIRO MOTA OFICIAL DO MP UBERABA - COMARCA; UBERABA-PJ-05PJ 5.930,75 593,08 0,00 1.876,57 0,00 0,00 0,00 1.717,00 10.117,40 856,09 689,27 0,00 0,00 1.545,36 8.572,04 31/12/2021
1021 619800 FERNANDA PINTO PEREIRA ANALISTA DO MP UBERLÂNDIA - COMARCA; UBERLANDIA-PJ-20PJ 9.146,93 914,69 0,00 2.459,07 0,00 0,00 0,00 3.255,78 15.776,47 1.422,14 1.454,36 0,00 0,00 2.876,50 12.899,97 31/12/2021
1022 412900 FERNANDA PORTELA ROSA ANALISTA DO MP BELO HORIZONTE - COMARCA; BH-08PJ JUIZADO ESPECIAL-SECRETARIA 14.324,23 2.864,85 0,00 6.216,48 0,00 0,00 0,00 2.486,39 25.891,95 2.562,53 3.152,94 0,00 0,00 5.715,47 20.176,48 31/12/2021
1023 274301 FERNANDA QUEIROZ PARREIRA ANALISTA DO MP PATOS DE MINAS - COMARCA; GAECO REGIONAL DE PATOS DE MINAS 10.069,62 2.013,92 0,00 2.826,05 4.027,85 0,00 0,00 1.717,00 20.654,44 1.745,64 3.081,22 0,00 0,00 4.826,86 15.827,58 31/12/2021
1024 467900 FERNANDA QUEIROZ SIMOES GANNAM ANALISTA DO MP SÃO LOURENÇO - COMARCA; SAO LOURENCO-PJ-02PJ 11.085,56 2.217,11 0,00 2.861,75 0,00 0,00 0,00 1.717,00 17.881,42 1.940,70 2.203,04 0,00 0,00 4.143,74 13.737,68 31/12/2021
1025 681001 FERNANDA ROCHA DE MATOS TEIXEIRA ASSESSOR PROMOTOR JUSTICA BELO VALE - COMARCA; BELO VALE-PJ-UNPJ 0,00 0,00 7.187,72 3.491,18 0,00 0,00 0,00 2.486,39 13.165,29 1.106,40 1.177,78 0,00 0,00 2.284,18 10.881,11 31/12/2021
1026 255500 FERNANDA SIMOES LOPES MENDES ANALISTA DO MP BELO HORIZONTE - COMARCA; BH-17PJ PATRIMONIO PUBLICO-SECRETARIA 18.820,14 5.646,04 0,00 4.139,94 8.155,39 0,00 89,71 2.695,65 39.546,87 3.726,87 6.972,41 0,00 0,00 10.699,28 28.847,59 31/12/2021
1027 708700 FERNANDA TIAGO BOLINA ASSESSOR PROMOTOR JUSTICA IGUATAMA - COMARCA; IGUATAMA-PJ-UNPJ 0,00 0,00 7.187,72 3.462,75 0,00 0,00 0,00 1.717,00 12.367,47 1.106,40 1.229,92 0,00 0,00 2.336,32 10.031,15 31/12/2021
1028 481700 FERNANDA VIANA FROES DA SILVA OFICIAL DO MP GOVERNADOR VALADARES - COMARCA; GOVERNADOR VALADARES-PJ-09PJ 7.912,85 1.582,57 0,00 2.190,15 3.165,14 0,00 0,00 1.717,00 16.567,71 1.331,54 2.246,12 0,00 0,00 3.577,66 12.990,05 31/12/2021
1029 123900 FERNANDO ANTONIO FARIA DE ABREU ANALISTA DO MP BELO HORIZONTE - COMARCA; SUPERINTENDÊNCIA DE ENGENHARIA E ARQUITETURA 26.471,31 23.824,17 0,00 8.848,36 11.820,74 5.486,23 0,00 1.717,00 78.167,81 5.486,23 12.133,45 14.833,26 0,00 32.452,94 45.714,87 31/12/2021
1030 416900 FERNANDO APARECIDO DA SILVA ANALISTA DO MP BOM DESPACHO - COMARCA; BOM DESPACHO-PJ-02PJ 13.011,52 9.108,06 0,00 3.792,74 0,00 0,00 0,00 1.717,00 27.629,32 3.351,41 4.187,61 0,00 0,00 7.539,02 20.090,30 31/12/2021
1031 500100 FERNANDO CEZAR PINTO OFICIAL DO MP SANTA LUZIA - COMARCA; SANTA LUZIA-PJ-04PJ 7.912,85 1.582,57 0,00 2.443,13 0,00 0,00 0,00 1.717,00 13.655,55 1.331,54 1.323,57 0,00 0,00 2.655,11 11.000,44 31/12/2021
1032 346100 FERNANDO EUSTAQUIO CAMPOS UTSCH MOREIRA ANALISTA DO MP BELO HORIZONTE - COMARCA; DIRETORIA DE SISTEMAS DE INFORMACAO 16.750,82 5.025,25 0,00 4.444,54 0,00 0,00 0,00 1.717,00 27.937,61 3.296,45 4.108,26 0,00 0,00 7.404,71 20.532,90 31/12/2021
1033 103500 FERNANDO LUIZ DA SILVA JUNIOR OFICIAL DO MP BELO HORIZONTE - COMARCA; DIVISAO DE ATENDIMENTO E CONSULTA JURIDICA 18.820,14 9.410,07 0,00 4.082,55 0,00 0,00 517,55 7.363,04 40.193,35 4.329,11 5.703,44 0,00 0,00 10.032,55 30.160,80 31/12/2021
1034 287300 FERNANDO MARCIO ALVES MARTINS OFICIAL DO MP LEOPOLDINA - COMARCA; LEOPOLDINA-PJ-01PJ 8.858,43 2.657,53 0,00 2.325,39 3.838,65 0,00 0,00 1.717,00 19.397,00 1.654,83 2.793,81 0,00 0,00 4.448,64 14.948,36 31/12/2021
1035 472900 FERNANDO RODRIGUES DE FREITAS ANALISTA DO MP BELO HORIZONTE - COMARCA; BH-15PJ M AMB PAT HIST CULT-ASS TECNICA 10.069,62 2.013,92 0,00 2.322,57 0,00 0,00 0,00 1.717,00 16.123,11 1.745,64 1.973,56 0,00 0,00 3.719,20 12.403,91 31/12/2021
1036 421400 FERNANDO TEODORO MACIEL ANALISTA DO MP SANTA VITÓRIA - COMARCA; SANTA VITORIA-PJ-UNPJ 12.204,02 2.440,80 0,00 3.377,09 4.881,61 0,00 0,00 2.486,39 25.389,91 2.155,45 3.803,39 0,00 0,00 5.958,84 19.431,07 31/12/2021
1037 446300 FERNANDO VITOR DE OLIVEIRA ANALISTA DO MP MONTES CLAROS - COMARCA; COORD REG BACIA RIOS VERDE GRANDE E PARDO 13.011,52 2.602,30 0,00 2.953,49 0,00 0,00 0,00 1.717,00 20.284,31 2.310,49 2.789,06 0,00 0,00 5.099,55 15.184,76 31/12/2021
1038 639300 FILIPE ALMEIDA RODRIGUES ANALISTA DO MP IPATINGA - COMARCA; COORD REG SAUDE MACRORREGIAO SANIT VALE ACO 8.436,53 843,65 0,00 2.163,32 3.093,39 0,00 0,00 1.717,00 16.253,89 1.297,11 2.176,67 0,00 0,00 3.473,78 12.780,11 31/12/2021
1039 692600 FILIPPE WAGNER MAGALHAES ALAMY REIS ASSESSOR PROCURADOR JUSTICA BELO HORIZONTE - COMARCA; GABINETE DE PROCURADOR DE JUSTIÇA - SALA 604 0,00 0,00 7.187,72 2.693,39 0,00 0,00 0,00 2.486,39 12.367,50 1.503,94 1.229,92 0,00 0,00 2.733,86 9.633,64 31/12/2021
1040 398400 FLAVIA ALVARES GUIMARAES COORDENADOR/OFICIAL BELO HORIZONTE - COMARCA; EXTINTA-CGMP-DIV APOIO FISC ORIENT FUNCIONAL 0,00